Wetterdaten: Mittwoch, 10.07.2019
Datum Zeit Temp. A. Pool Temp. Temp. 5cm Feuchte A. Luftdruck Regen Wind Richtung Richtung Sonnenschein ET UV Solar Taupunkt Windchill Windben Empfang
10.07.2019 00:00 14,8 C 22,8 C 13,9 C 67 % 1015,5 hPa 0,0 l/m 5,6 km/h (1 Bft) NO 51 0 min 0,000 mm 0,0 UV-I 0 W/m 8,7 C 14,8 C 8,0 km/h (2 Bft) 94,29 %
10.07.2019 00:02 14,6 C 22,8 C 13,9 C 69 % 1015,5 hPa 0,0 l/m 7,7 km/h (2 Bft) NO 51 0 min 0,000 mm 0,0 UV-I 0 W/m 9,0 C 13,8 C 12,9 km/h (3 Bft) 97,14 %
10.07.2019 00:04 14,4 C 22,8 C 13,9 C 70 % 1015,5 hPa 0,0 l/m 9,1 km/h (2 Bft) NO 43 0 min 0,000 mm 0,0 UV-I 0 W/m 9,0 C 12,9 C 11,3 km/h (2 Bft) 95,74 %
10.07.2019 00:06 14,4 C 22,8 C 13,9 C 70 % 1015,5 hPa 0,0 l/m 5,9 km/h (2 Bft) NO 36 0 min 0,000 mm 0,0 UV-I 0 W/m 9,0 C 14,4 C 8,0 km/h (2 Bft) 97,87 %
10.07.2019 00:08 14,3 C 22,8 C 13,3 C 71 % 1015,6 hPa 0,0 l/m 6,4 km/h (2 Bft) N-NO 17 0 min 0,000 mm 0,0 UV-I 0 W/m 9,1 C 14,3 C 8,0 km/h (2 Bft) 95,74 %
10.07.2019 00:10 14,2 C 22,8 C 13,9 C 70 % 1015,6 hPa 0,0 l/m 5,2 km/h (1 Bft) N-NO 13 0 min 0,000 mm 0,0 UV-I 0 W/m 8,8 C 14,2 C 6,4 km/h (2 Bft) 97,87 %
10.07.2019 00:12 14,3 C 22,8 C 13,9 C 70 % 1015,6 hPa 0,0 l/m 4,0 km/h (1 Bft) N-NO 21 0 min 0,000 mm 0,0 UV-I 0 W/m 8,9 C 14,3 C 6,4 km/h (2 Bft) 95,74 %
10.07.2019 00:14 14,3 C 22,8 C 13,9 C 69 % 1015,7 hPa 0,0 l/m 4,8 km/h (1 Bft) N-NO 23 0 min 0,000 mm 0,0 UV-I 0 W/m 8,7 C 14,3 C 8,0 km/h (2 Bft) 97,87 %
10.07.2019 00:16 14,3 C 22,8 C 13,9 C 70 % 1015,7 hPa 0,0 l/m 5,7 km/h (1 Bft) NO 38 0 min 0,000 mm 0,0 UV-I 0 W/m 8,9 C 14,3 C 8,0 km/h (2 Bft) 100,00 %
10.07.2019 00:18 14,3 C 22,8 C 13,3 C 69 % 1015,6 hPa 0,0 l/m 4,9 km/h (1 Bft) NO 39 0 min 0,000 mm 0,0 UV-I 0 W/m 8,7 C 14,3 C 6,4 km/h (2 Bft) 100,00 %
10.07.2019 00:20 14,3 C 22,8 C 13,3 C 69 % 1015,7 hPa 0,0 l/m 4,7 km/h (1 Bft) NO 43 0 min 0,000 mm 0,0 UV-I 0 W/m 8,7 C 14,3 C 4,8 km/h (1 Bft) 100,00 %
10.07.2019 00:22 14,4 C 22,8 C 13,3 C 68 % 1015,7 hPa 0,0 l/m 4,6 km/h (1 Bft) NO 44 0 min 0,000 mm 0,0 UV-I 0 W/m 8,6 C 14,4 C 4,8 km/h (1 Bft) 97,87 %
10.07.2019 00:24 14,3 C 22,8 C 13,3 C 69 % 1015,7 hPa 0,0 l/m 4,6 km/h (1 Bft) O-NO 61 0 min 0,000 mm 0,0 UV-I 0 W/m 8,7 C 14,3 C 6,4 km/h (2 Bft) 100,00 %
10.07.2019 00:26 14,3 C 22,8 C 13,3 C 69 % 1015,7 hPa 0,0 l/m 5,7 km/h (1 Bft) NO 49 0 min 0,000 mm 0,0 UV-I 0 W/m 8,7 C 14,3 C 8,0 km/h (2 Bft) 100,00 %
10.07.2019 00:28 14,3 C 22,8 C 13,3 C 69 % 1015,7 hPa 0,0 l/m 4,7 km/h (1 Bft) NO 49 0 min 0,000 mm 0,0 UV-I 0 W/m 8,7 C 14,3 C 6,4 km/h (2 Bft) 100,00 %
10.07.2019 00:30 14,2 C 22,8 C 12,8 C 69 % 1015,6 hPa 0,0 l/m 5,3 km/h (1 Bft) O-NO 66 0 min 0,000 mm 0,0 UV-I 0 W/m 8,6 C 14,2 C 8,0 km/h (2 Bft) 98,11 %
10.07.2019 00:32 14,2 C 22,8 C 12,8 C 69 % 1015,7 hPa 0,0 l/m 5,4 km/h (1 Bft) NO 55 0 min 0,000 mm 0,0 UV-I 0 W/m 8,6 C 14,2 C 9,7 km/h (2 Bft) 100,00 %
10.07.2019 00:34 14,2 C 22,8 C 12,8 C 67 % 1015,7 hPa 0,0 l/m 6,4 km/h (2 Bft) NO 53 0 min 0,000 mm 0,0 UV-I 0 W/m 8,2 C 14,2 C 9,7 km/h (2 Bft) 100,00 %
10.07.2019 00:36 14,2 C 22,2 C 12,8 C 67 % 1015,7 hPa 0,0 l/m 6,0 km/h (2 Bft) NO 47 0 min 0,000 mm 0,0 UV-I 0 W/m 8,2 C 14,2 C 8,0 km/h (2 Bft) 100,00 %
10.07.2019 00:38 14,1 C 22,2 C 13,3 C 67 % 1015,7 hPa 0,0 l/m 7,5 km/h (2 Bft) NO 54 0 min 0,000 mm 0,0 UV-I 0 W/m 8,1 C 13,4 C 11,3 km/h (2 Bft) 97,37 %
10.07.2019 00:40 14,1 C 22,8 C 13,3 C 66 % 1015,7 hPa 0,0 l/m 6,0 km/h (2 Bft) O-NO 64 0 min 0,000 mm 0,0 UV-I 0 W/m 7,8 C 14,1 C 8,0 km/h (2 Bft) 100,00 %
10.07.2019 00:42 14,1 C 22,2 C 13,3 C 66 % 1015,8 hPa 0,0 l/m 4,6 km/h (1 Bft) NO 52 0 min 0,000 mm 0,0 UV-I 0 W/m 7,8 C 14,1 C 6,4 km/h (2 Bft) 100,00 %
10.07.2019 00:44 14,1 C 22,2 C 13,3 C 67 % 1015,8 hPa 0,0 l/m 5,4 km/h (1 Bft) O-NO 65 0 min 0,000 mm 0,0 UV-I 0 W/m 8,1 C 14,1 C 6,4 km/h (2 Bft) 97,87 %
10.07.2019 00:46 14,1 C 22,8 C 12,8 C 67 % 1015,8 hPa 0,0 l/m 5,0 km/h (1 Bft) NO 55 0 min 0,000 mm 0,0 UV-I 0 W/m 8,1 C 14,1 C 6,4 km/h (2 Bft) 98,00 %
10.07.2019 00:48 14,1 C 22,2 C 12,8 C 67 % 1015,8 hPa 0,0 l/m 4,8 km/h (1 Bft) O-NO 63 0 min 0,000 mm 0,0 UV-I 0 W/m 8,1 C 14,1 C 6,4 km/h (2 Bft) 95,74 %
10.07.2019 00:50 14,0 C 22,2 C 12,8 C 67 % 1015,8 hPa 0,0 l/m 5,7 km/h (1 Bft) NO 53 0 min 0,000 mm 0,0 UV-I 0 W/m 8,0 C 14,0 C 9,7 km/h (2 Bft) 98,00 %
10.07.2019 00:52 14,0 C 22,2 C 12,8 C 66 % 1015,8 hPa 0,0 l/m 5,1 km/h (1 Bft) O-NO 71 0 min 0,000 mm 0,0 UV-I 0 W/m 7,7 C 14,0 C 6,4 km/h (2 Bft) 96,00 %
10.07.2019 00:54 14,1 C 22,2 C 13,3 C 66 % 1015,8 hPa 0,0 l/m 7,1 km/h (2 Bft) O-NO 64 0 min 0,000 mm 0,0 UV-I 0 W/m 7,8 C 13,7 C 12,9 km/h (3 Bft) 93,62 %
10.07.2019 00:56 14,0 C 22,2 C 13,3 C 66 % 1015,8 hPa 0,0 l/m 7,3 km/h (2 Bft) O-NO 59 0 min 0,000 mm 0,0 UV-I 0 W/m 7,7 C 13,5 C 11,3 km/h (2 Bft) 95,74 %
10.07.2019 00:58 13,9 C 22,2 C 13,3 C 66 % 1015,8 hPa 0,0 l/m 6,1 km/h (2 Bft) O-NO 59 0 min 0,000 mm 0,0 UV-I 0 W/m 7,7 C 13,9 C 12,9 km/h (3 Bft) 94,44 %
10.07.2019 01:00 13,9 C 22,2 C 12,8 C 66 % 1015,8 hPa 0,0 l/m 6,4 km/h (2 Bft) NO 51 0 min 0,025 mm 0,0 UV-I 0 W/m 7,7 C 13,9 C 9,7 km/h (2 Bft) 95,74 %
10.07.2019 01:02 13,8 C 22,2 C 12,8 C 66 % 1015,8 hPa 0,0 l/m 5,8 km/h (2 Bft) NO 43 0 min 0,000 mm 0,0 UV-I 0 W/m 7,6 C 13,8 C 8,0 km/h (2 Bft) 91,49 %
10.07.2019 01:04 13,8 C 22,2 C 12,8 C 66 % 1015,8 hPa 0,0 l/m 5,6 km/h (1 Bft) NO 55 0 min 0,000 mm 0,0 UV-I 0 W/m 7,6 C 13,8 C 6,4 km/h (2 Bft) 95,74 %
10.07.2019 01:06 13,8 C 22,2 C 12,8 C 67 % 1015,8 hPa 0,0 l/m 4,6 km/h (1 Bft) NO 53 0 min 0,000 mm 0,0 UV-I 0 W/m 7,8 C 13,8 C 6,4 km/h (2 Bft) 95,74 %
10.07.2019 01:08 13,7 C 22,2 C 12,8 C 67 % 1015,8 hPa 0,0 l/m 3,8 km/h (1 Bft) NO 53 0 min 0,000 mm 0,0 UV-I 0 W/m 7,7 C 13,7 C 4,8 km/h (1 Bft) 91,49 %
10.07.2019 01:10 13,7 C 22,2 C 12,8 C 67 % 1015,8 hPa 0,0 l/m 3,1 km/h (1 Bft) NO 53 0 min 0,000 mm 0,0 UV-I 0 W/m 7,7 C 13,7 C 4,8 km/h (1 Bft) 95,74 %
10.07.2019 01:12 13,7 C 22,2 C 12,2 C 67 % 1015,8 hPa 0,0 l/m 2,2 km/h (1 Bft) NO 53 0 min 0,000 mm 0,0 UV-I 0 W/m 7,7 C 13,7 C 4,8 km/h (1 Bft) 93,62 %
10.07.2019 01:14 13,7 C 22,2 C 12,2 C 67 % 1015,8 hPa 0,0 l/m 2,6 km/h (1 Bft) NO 53 0 min 0,000 mm 0,0 UV-I 0 W/m 7,7 C 13,7 C 4,8 km/h (1 Bft) 96,00 %
10.07.2019 01:16 13,7 C 22,2 C 12,2 C 67 % 1015,8 hPa 0,0 l/m 3,0 km/h (1 Bft) NO 53 0 min 0,000 mm 0,0 UV-I 0 W/m 7,7 C 13,7 C 4,8 km/h (1 Bft) 93,62 %
10.07.2019 01:18 13,7 C 22,2 C 12,2 C 67 % 1015,8 hPa 0,0 l/m 3,2 km/h (1 Bft) NO 53 0 min 0,000 mm 0,0 UV-I 0 W/m 7,7 C 13,7 C 4,8 km/h (1 Bft) 94,29 %
10.07.2019 01:20 13,7 C 22,2 C 12,2 C 67 % 1015,9 hPa 0,0 l/m 4,3 km/h (1 Bft) O-NO 57 0 min 0,000 mm 0,0 UV-I 0 W/m 7,7 C 13,7 C 8,0 km/h (2 Bft) 95,16 %
10.07.2019 01:22 13,6 C 22,2 C 12,2 C 68 % 1015,9 hPa 0,0 l/m 4,7 km/h (1 Bft) NO 49 0 min 0,000 mm 0,0 UV-I 0 W/m 7,8 C 13,6 C 6,4 km/h (2 Bft) 95,74 %
10.07.2019 01:24 13,6 C 22,2 C 12,2 C 67 % 1015,9 hPa 0,0 l/m 5,9 km/h (2 Bft) NO 42 0 min 0,000 mm 0,0 UV-I 0 W/m 7,6 C 13,6 C 8,0 km/h (2 Bft) 94,74 %
10.07.2019 01:26 13,4 C 22,2 C 12,2 C 68 % 1015,9 hPa 0,0 l/m 5,1 km/h (1 Bft) NO 52 0 min 0,000 mm 0,0 UV-I 0 W/m 7,6 C 13,4 C 8,0 km/h (2 Bft) 97,87 %
10.07.2019 01:28 13,4 C 22,2 C 12,2 C 68 % 1015,9 hPa 0,0 l/m 5,4 km/h (1 Bft) NO 53 0 min 0,000 mm 0,0 UV-I 0 W/m 7,6 C 13,4 C 8,0 km/h (2 Bft) 95,74 %
10.07.2019 01:30 13,3 C 22,2 C 11,7 C 68 % 1015,8 hPa 0,0 l/m 5,0 km/h (1 Bft) NO 51 0 min 0,000 mm 0,0 UV-I 0 W/m 7,5 C 13,3 C 8,0 km/h (2 Bft) 95,74 %
10.07.2019 01:32 13,3 C 22,2 C 11,7 C 68 % 1015,8 hPa 0,0 l/m 3,5 km/h (1 Bft) O-NO 60 0 min 0,000 mm 0,0 UV-I 0 W/m 7,5 C 13,3 C 4,8 km/h (1 Bft) 95,74 %
10.07.2019 01:34 13,2 C 22,2 C 11,7 C 68 % 1015,8 hPa 0,0 l/m 3,6 km/h (1 Bft) O 80 0 min 0,000 mm 0,0 UV-I 0 W/m 7,4 C 13,2 C 6,4 km/h (2 Bft) 97,87 %
10.07.2019 01:36 13,2 C 22,2 C 11,7 C 69 % 1015,7 hPa 0,0 l/m 3,7 km/h (1 Bft) O 80 0 min 0,000 mm 0,0 UV-I 0 W/m 7,6 C 13,2 C 4,8 km/h (1 Bft) 97,87 %
10.07.2019 01:38 13,2 C 22,2 C 11,7 C 68 % 1015,7 hPa 0,0 l/m 4,0 km/h (1 Bft) O 82 0 min 0,000 mm 0,0 UV-I 0 W/m 7,4 C 13,2 C 4,8 km/h (1 Bft) 100,00 %
10.07.2019 01:40 13,3 C 22,2 C 11,7 C 68 % 1015,7 hPa 0,0 l/m 3,8 km/h (1 Bft) O 85 0 min 0,000 mm 0,0 UV-I 0 W/m 7,5 C 13,3 C 6,4 km/h (2 Bft) 100,00 %
10.07.2019 01:42 13,4 C 22,2 C 11,7 C 67 % 1015,8 hPa 0,0 l/m 4,2 km/h (1 Bft) O-NO 67 0 min 0,000 mm 0,0 UV-I 0 W/m 7,4 C 13,4 C 6,4 km/h (2 Bft) 100,00 %
10.07.2019 01:44 13,4 C 22,2 C 11,7 C 67 % 1015,8 hPa 0,0 l/m 3,5 km/h (1 Bft) O-NO 67 0 min 0,000 mm 0,0 UV-I 0 W/m 7,4 C 13,4 C 4,8 km/h (1 Bft) 100,00 %
10.07.2019 01:46 13,4 C 22,2 C 11,7 C 67 % 1015,8 hPa 0,0 l/m 3,8 km/h (1 Bft) O-NO 73 0 min 0,000 mm 0,0 UV-I 0 W/m 7,4 C 13,4 C 4,8 km/h (1 Bft) 100,00 %
10.07.2019 01:48 13,3 C 22,2 C 11,7 C 68 % 1015,8 hPa 0,0 l/m 3,3 km/h (1 Bft) O-NO 73 0 min 0,000 mm 0,0 UV-I 0 W/m 7,5 C 13,3 C 4,8 km/h (1 Bft) 97,87 %
10.07.2019 01:50 13,2 C 22,2 C 11,7 C 69 % 1015,8 hPa 0,0 l/m 4,5 km/h (1 Bft) O-NO 66 0 min 0,000 mm 0,0 UV-I 0 W/m 7,6 C 13,2 C 6,4 km/h (2 Bft) 98,00 %
10.07.2019 01:52 13,1 C 22,2 C 11,7 C 70 % 1015,8 hPa 0,0 l/m 4,3 km/h (1 Bft) O-NO 68 0 min 0,000 mm 0,0 UV-I 0 W/m 7,8 C 13,1 C 6,4 km/h (2 Bft) 97,87 %
10.07.2019 01:54 13,2 C 22,2 C 11,7 C 69 % 1015,8 hPa 0,0 l/m 3,5 km/h (1 Bft) O-NO 68 0 min 0,000 mm 0,0 UV-I 0 W/m 7,6 C 13,2 C 4,8 km/h (1 Bft) 97,87 %
10.07.2019 01:56 13,3 C 22,2 C 11,7 C 68 % 1015,9 hPa 0,0 l/m 2,5 km/h (1 Bft) O-NO 73 0 min 0,000 mm 0,0 UV-I 0 W/m 7,5 C 13,3 C 4,8 km/h (1 Bft) 97,87 %
10.07.2019 01:58 13,3 C 22,2 C 11,7 C 69 % 1015,9 hPa 0,0 l/m 1,5 km/h (1 Bft) O-NO 73 0 min 0,000 mm 0,0 UV-I 0 W/m 7,7 C 13,3 C 3,2 km/h (1 Bft) 97,87 %
10.07.2019 02:00 13,3 C 22,2 C 11,7 C 69 % 1015,9 hPa 0,0 l/m 1,5 km/h (1 Bft) O-NO 73 0 min 0,026 mm 0,0 UV-I 0 W/m 7,7 C 13,3 C 3,2 km/h (1 Bft) 97,87 %
10.07.2019 02:02 13,2 C 22,2 C 12,2 C 70 % 1015,8 hPa 0,0 l/m 0,3 km/h (0 Bft) O-NO 73 0 min 0,000 mm 0,0 UV-I 0 W/m 7,9 C 13,2 C 1,6 km/h (1 Bft) 93,62 %
10.07.2019 02:04 13,2 C 22,2 C 12,2 C 70 % 1015,9 hPa 0,0 l/m 1,9 km/h (1 Bft) O-NO 73 0 min 0,000 mm 0,0 UV-I 0 W/m 7,9 C 13,2 C 3,2 km/h (1 Bft) 98,00 %
10.07.2019 02:06 13,2 C 22,2 C 12,2 C 70 % 1015,9 hPa 0,0 l/m 1,9 km/h (1 Bft) O-NO 73 0 min 0,000 mm 0,0 UV-I 0 W/m 7,9 C 13,2 C 3,2 km/h (1 Bft) 97,87 %
10.07.2019 02:08 13,1 C 22,2 C 12,2 C 70 % 1015,9 hPa 0,0 l/m 2,6 km/h (1 Bft) O-NO 71 0 min 0,000 mm 0,0 UV-I 0 W/m 7,8 C 13,1 C 4,8 km/h (1 Bft) 97,87 %
10.07.2019 02:10 13,1 C 22,2 C 12,2 C 70 % 1015,9 hPa 0,0 l/m 1,7 km/h (1 Bft) O-NO 71 0 min 0,000 mm 0,0 UV-I 0 W/m 7,8 C 13,1 C 4,8 km/h (1 Bft) 97,37 %
10.07.2019 02:12 13,2 C 22,2 C 12,2 C 70 % 1015,9 hPa 0,0 l/m 0,8 km/h (0 Bft) O-NO 71 0 min 0,000 mm 0,0 UV-I 0 W/m 7,9 C 13,2 C 1,6 km/h (1 Bft) 95,74 %
10.07.2019 02:14 13,3 C 22,2 C 12,2 C 68 % 1015,9 hPa 0,0 l/m 0,7 km/h (0 Bft) O-NO 71 0 min 0,000 mm 0,0 UV-I 0 W/m 7,5 C 13,3 C 1,6 km/h (1 Bft) 95,74 %
10.07.2019 02:16 13,3 C 22,2 C 12,2 C 68 % 1015,9 hPa 0,0 l/m 0,6 km/h (0 Bft) O-NO 71 0 min 0,000 mm 0,0 UV-I 0 W/m 7,5 C 13,3 C 1,6 km/h (1 Bft) 97,87 %
10.07.2019 02:18 13,3 C 22,2 C 12,8 C 68 % 1016,0 hPa 0,0 l/m 0,4 km/h (0 Bft) O-NO 71 0 min 0,000 mm 0,0 UV-I 0 W/m 7,5 C 13,3 C 1,6 km/h (1 Bft) 95,83 %
10.07.2019 02:20 13,3 C 22,2 C 12,8 C 68 % 1016,1 hPa 0,0 l/m 0,0 km/h (0 Bft) O-NO 71 0 min 0,000 mm 0,0 UV-I 0 W/m 7,5 C 13,3 C 0,0 km/h (0 Bft) 95,74 %
10.07.2019 02:22 13,4 C 22,2 C 12,8 C 68 % 1016,1 hPa 0,0 l/m 0,0 km/h (0 Bft) O-NO 71 0 min 0,000 mm 0,0 UV-I 0 W/m 7,6 C 13,4 C 0,0 km/h (0 Bft) 95,74 %
10.07.2019 02:24 13,5 C 22,2 C 12,8 C 68 % 1016,1 hPa 0,0 l/m 0,2 km/h (0 Bft) O-NO 71 0 min 0,000 mm 0,0 UV-I 0 W/m 7,7 C 13,5 C 1,6 km/h (1 Bft) 95,74 %
10.07.2019 02:26 13,6 C 22,2 C 12,8 C 68 % 1016,1 hPa 0,0 l/m 0,2 km/h (0 Bft) O-NO 71 0 min 0,000 mm 0,0 UV-I 0 W/m 7,8 C 13,6 C 1,6 km/h (1 Bft) 97,87 %
10.07.2019 02:28 13,6 C 22,2 C 12,8 C 68 % 1016,1 hPa 0,0 l/m 0,0 km/h (0 Bft) O-NO 71 0 min 0,000 mm 0,0 UV-I 0 W/m 7,8 C 13,6 C 0,0 km/h (0 Bft) 93,62 %
10.07.2019 02:30 13,6 C 22,2 C 12,8 C 67 % 1016,1 hPa 0,0 l/m 0,0 km/h (0 Bft) O-NO 71 0 min 0,000 mm 0,0 UV-I 0 W/m 7,6 C 13,6 C 0,0 km/h (0 Bft) 94,00 %
10.07.2019 02:32 13,6 C 22,2 C 12,8 C 68 % 1016,1 hPa 0,0 l/m 1,2 km/h (1 Bft) O-NO 71 0 min 0,000 mm 0,0 UV-I 0 W/m 7,8 C 13,6 C 1,6 km/h (1 Bft) 98,00 %
10.07.2019 02:34 13,6 C 22,2 C 12,8 C 70 % 1016,1 hPa 0,0 l/m 1,4 km/h (1 Bft) O-NO 71 0 min 0,000 mm 0,0 UV-I 0 W/m 8,2 C 13,6 C 1,6 km/h (1 Bft) 97,87 %
10.07.2019 02:36 13,4 C 22,2 C 12,8 C 68 % 1016,1 hPa 0,0 l/m 1,3 km/h (1 Bft) O-NO 71 0 min 0,000 mm 0,0 UV-I 0 W/m 7,6 C 13,4 C 1,6 km/h (1 Bft) 97,87 %
10.07.2019 02:38 13,4 C 22,2 C 12,8 C 68 % 1016,2 hPa 0,0 l/m 0,2 km/h (0 Bft) O-NO 71 0 min 0,000 mm 0,0 UV-I 0 W/m 7,6 C 13,4 C 1,6 km/h (1 Bft) 97,87 %
10.07.2019 02:40 13,6 C 22,2 C 12,8 C 68 % 1016,2 hPa 0,0 l/m 0,4 km/h (0 Bft) O-NO 71 0 min 0,000 mm 0,0 UV-I 0 W/m 7,8 C 13,6 C 1,6 km/h (1 Bft) 97,87 %
10.07.2019 02:42 13,6 C 22,2 C 13,3 C 67 % 1016,2 hPa 0,0 l/m 0,3 km/h (0 Bft) O-NO 71 0 min 0,000 mm 0,0 UV-I 0 W/m 7,6 C 13,6 C 1,6 km/h (1 Bft) 97,87 %
10.07.2019 02:44 13,6 C 22,2 C 13,3 C 70 % 1016,2 hPa 0,0 l/m 0,0 km/h (0 Bft) O-NO 71 0 min 0,000 mm 0,0 UV-I 0 W/m 8,2 C 13,6 C 0,0 km/h (0 Bft) 97,87 %
10.07.2019 02:46 13,5 C 22,2 C 13,3 C 75 % 1016,2 hPa 0,0 l/m 2,2 km/h (1 Bft) O-NO 71 0 min 0,000 mm 0,0 UV-I 0 W/m 9,2 C 13,5 C 4,8 km/h (1 Bft) 100,00 %
10.07.2019 02:48 13,3 C 22,2 C 13,3 C 75 % 1016,3 hPa 0,0 l/m 2,2 km/h (1 Bft) O-NO 71 0 min 0,000 mm 0,0 UV-I 0 W/m 9,0 C 13,3 C 3,2 km/h (1 Bft) 100,00 %
10.07.2019 02:50 13,2 C 22,2 C 13,3 C 76 % 1016,2 hPa 0,0 l/m 2,4 km/h (1 Bft) O-NO 71 0 min 0,000 mm 0,0 UV-I 0 W/m 9,1 C 13,2 C 3,2 km/h (1 Bft) 97,87 %
10.07.2019 02:52 13,2 C 22,2 C 13,3 C 74 % 1016,2 hPa 0,0 l/m 2,3 km/h (1 Bft) O-NO 71 0 min 0,000 mm 0,0 UV-I 0 W/m 8,7 C 13,2 C 3,2 km/h (1 Bft) 100,00 %
10.07.2019 02:54 13,2 C 22,2 C 13,3 C 73 % 1016,2 hPa 0,0 l/m 2,2 km/h (1 Bft) O-NO 71 0 min 0,000 mm 0,0 UV-I 0 W/m 8,5 C 13,2 C 3,2 km/h (1 Bft) 100,00 %
10.07.2019 02:56 13,2 C 22,2 C 13,3 C 74 % 1016,2 hPa 0,0 l/m 1,2 km/h (1 Bft) O-NO 71 0 min 0,000 mm 0,0 UV-I 0 W/m 8,7 C 13,2 C 3,2 km/h (1 Bft) 97,87 %
10.07.2019 02:58 13,3 C 22,2 C 13,3 C 72 % 1016,2 hPa 0,0 l/m 1,4 km/h (1 Bft) O-NO 71 0 min 0,000 mm 0,0 UV-I 0 W/m 8,4 C 13,3 C 1,6 km/h (1 Bft) 100,00 %
10.07.2019 03:00 13,3 C 22,2 C 13,3 C 73 % 1016,2 hPa 0,0 l/m 1,2 km/h (1 Bft) O-NO 71 0 min 0,000 mm 0,0 UV-I 0 W/m 8,6 C 13,3 C 1,6 km/h (1 Bft) 100,00 %
10.07.2019 03:02 13,3 C 22,2 C 13,3 C 76 % 1016,2 hPa 0,0 l/m 2,3 km/h (1 Bft) O-NO 71 0 min 0,000 mm 0,0 UV-I 0 W/m 9,2 C 13,3 C 3,2 km/h (1 Bft) 100,00 %
10.07.2019 03:04 13,1 C 22,2 C 13,3 C 77 % 1016,1 hPa 0,0 l/m 3,6 km/h (1 Bft) O-NO 74 0 min 0,000 mm 0,0 UV-I 0 W/m 9,2 C 13,1 C 4,8 km/h (1 Bft) 97,87 %
10.07.2019 03:06 12,9 C 22,2 C 12,8 C 75 % 1016,1 hPa 0,0 l/m 3,4 km/h (1 Bft) O-NO 74 0 min 0,000 mm 0,0 UV-I 0 W/m 8,6 C 12,9 C 4,8 km/h (1 Bft) 93,62 %
10.07.2019 03:08 12,9 C 22,2 C 12,8 C 74 % 1016,2 hPa 0,0 l/m 2,1 km/h (1 Bft) O-NO 74 0 min 0,000 mm 0,0 UV-I 0 W/m 8,4 C 12,9 C 4,8 km/h (1 Bft) 97,87 %
10.07.2019 03:10 12,9 C 22,2 C 12,8 C 73 % 1016,2 hPa 0,0 l/m 1,2 km/h (1 Bft) O-NO 74 0 min 0,000 mm 0,0 UV-I 0 W/m 8,2 C 12,9 C 1,6 km/h (1 Bft) 98,11 %
10.07.2019 03:12 13,1 C 22,2 C 12,8 C 72 % 1016,2 hPa 0,0 l/m 2,0 km/h (1 Bft) O-NO 74 0 min 0,000 mm 0,0 UV-I 0 W/m 8,2 C 13,1 C 4,8 km/h (1 Bft) 100,00 %
10.07.2019 03:14 13,2 C 22,2 C 12,8 C 72 % 1016,2 hPa 0,0 l/m 2,4 km/h (1 Bft) O-NO 75 0 min 0,000 mm 0,0 UV-I 0 W/m 8,3 C 13,2 C 4,8 km/h (1 Bft) 100,00 %
10.07.2019 03:16 13,1 C 22,2 C 12,2 C 72 % 1016,2 hPa 0,0 l/m 3,3 km/h (1 Bft) O-NO 75 0 min 0,000 mm 0,0 UV-I 0 W/m 8,2 C 13,1 C 4,8 km/h (1 Bft) 97,87 %
10.07.2019 03:18 12,9 C 22,2 C 12,2 C 71 % 1016,2 hPa 0,0 l/m 3,3 km/h (1 Bft) O-NO 76 0 min 0,000 mm 0,0 UV-I 0 W/m 7,8 C 12,9 C 4,8 km/h (1 Bft) 95,74 %
10.07.2019 03:20 12,9 C 22,2 C 12,2 C 71 % 1016,2 hPa 0,0 l/m 2,3 km/h (1 Bft) O-NO 76 0 min 0,000 mm 0,0 UV-I 0 W/m 7,8 C 12,9 C 4,8 km/h (1 Bft) 100,00 %
10.07.2019 03:22 12,9 C 22,2 C 12,2 C 71 % 1016,3 hPa 0,0 l/m 1,0 km/h (0 Bft) O-NO 76 0 min 0,000 mm 0,0 UV-I 0 W/m 7,8 C 12,9 C 3,2 km/h (1 Bft) 97,87 %
10.07.2019 03:24 12,9 C 22,2 C 12,2 C 72 % 1016,3 hPa 0,0 l/m 1,0 km/h (0 Bft) O-NO 76 0 min 0,000 mm 0,0 UV-I 0 W/m 8,0 C 12,9 C 1,6 km/h (1 Bft) 100,00 %
10.07.2019 03:26 12,8 C 22,2 C 12,2 C 74 % 1016,2 hPa 0,0 l/m 0,5 km/h (0 Bft) O-NO 76 0 min 0,000 mm 0,0 UV-I 0 W/m 8,3 C 12,8 C 3,2 km/h (1 Bft) 100,00 %
10.07.2019 03:28 12,6 C 22,2 C 11,7 C 76 % 1016,1 hPa 0,0 l/m 2,8 km/h (1 Bft) O-NO 78 0 min 0,000 mm 0,0 UV-I 0 W/m 8,5 C 12,6 C 4,8 km/h (1 Bft) 100,00 %
10.07.2019 03:30 12,3 C 22,2 C 11,7 C 77 % 1016,1 hPa 0,0 l/m 4,1 km/h (1 Bft) O 98 0 min 0,000 mm 0,0 UV-I 0 W/m 8,4 C 12,3 C 6,4 km/h (2 Bft) 100,00 %
10.07.2019 03:32 12,3 C 22,2 C 11,7 C 75 % 1016,2 hPa 0,0 l/m 2,6 km/h (1 Bft) O 98 0 min 0,000 mm 0,0 UV-I 0 W/m 8,0 C 12,3 C 4,8 km/h (1 Bft) 100,00 %
10.07.2019 03:34 12,4 C 22,2 C 11,7 C 75 % 1016,2 hPa 0,0 l/m 1,6 km/h (1 Bft) O 98 0 min 0,000 mm 0,0 UV-I 0 W/m 8,1 C 12,4 C 3,2 km/h (1 Bft) 100,00 %
10.07.2019 03:36 12,4 C 22,2 C 11,7 C 76 % 1016,2 hPa 0,0 l/m 2,1 km/h (1 Bft) O 98 0 min 0,000 mm 0,0 UV-I 0 W/m 8,3 C 12,4 C 3,2 km/h (1 Bft) 100,00 %
10.07.2019 03:38 12,6 C 22,2 C 11,7 C 76 % 1016,2 hPa 0,0 l/m 1,3 km/h (1 Bft) O 98 0 min 0,000 mm 0,0 UV-I 0 W/m 8,5 C 12,6 C 3,2 km/h (1 Bft) 100,00 %
10.07.2019 03:40 12,3 C 22,2 C 11,7 C 77 % 1016,1 hPa 0,0 l/m 2,8 km/h (1 Bft) O 98 0 min 0,000 mm 0,0 UV-I 0 W/m 8,4 C 12,3 C 4,8 km/h (1 Bft) 100,00 %
10.07.2019 03:42 12,1 C 22,2 C 11,7 C 78 % 1016,2 hPa 0,0 l/m 2,8 km/h (1 Bft) O 98 0 min 0,000 mm 0,0 UV-I 0 W/m 8,4 C 12,1 C 4,8 km/h (1 Bft) 97,87 %
10.07.2019 03:44 12,1 C 22,2 C 11,7 C 77 % 1016,2 hPa 0,0 l/m 0,7 km/h (0 Bft) O 98 0 min 0,000 mm 0,0 UV-I 0 W/m 8,2 C 12,1 C 3,2 km/h (1 Bft) 100,00 %
10.07.2019 03:46 12,2 C 22,2 C 11,7 C 76 % 1016,2 hPa 0,0 l/m 1,9 km/h (1 Bft) O 98 0 min 0,000 mm 0,0 UV-I 0 W/m 8,1 C 12,2 C 3,2 km/h (1 Bft) 100,00 %
10.07.2019 03:48 12,2 C 22,2 C 11,7 C 77 % 1016,2 hPa 0,0 l/m 1,8 km/h (1 Bft) O 98 0 min 0,000 mm 0,0 UV-I 0 W/m 8,3 C 12,2 C 3,2 km/h (1 Bft) 97,87 %
10.07.2019 03:50 12,3 C 22,2 C 11,7 C 76 % 1016,2 hPa 0,0 l/m 0,7 km/h (0 Bft) O 98 0 min 0,000 mm 0,0 UV-I 0 W/m 8,2 C 12,3 C 1,6 km/h (1 Bft) 97,87 %
10.07.2019 03:52 12,2 C 22,2 C 11,1 C 77 % 1016,1 hPa 0,0 l/m 0,1 km/h (0 Bft) O 98 0 min 0,000 mm 0,0 UV-I 0 W/m 8,3 C 12,2 C 1,6 km/h (1 Bft) 95,74 %
10.07.2019 03:54 11,9 C 22,2 C 11,1 C 78 % 1016,1 hPa 0,0 l/m 2,4 km/h (1 Bft) O 98 0 min 0,000 mm 0,0 UV-I 0 W/m 8,2 C 11,9 C 4,8 km/h (1 Bft) 97,87 %
10.07.2019 03:56 11,7 C 22,2 C 11,1 C 79 % 1016,1 hPa 0,0 l/m 5,2 km/h (1 Bft) O-SO 115 0 min 0,000 mm 0,0 UV-I 0 W/m 8,2 C 11,7 C 9,7 km/h (2 Bft) 90,00 %
10.07.2019 03:58 11,8 C 22,2 C 10,6 C 76 % 1016,2 hPa 0,0 l/m 3,2 km/h (1 Bft) O-SO 115 0 min 0,000 mm 0,0 UV-I 0 W/m 7,7 C 11,8 C 4,8 km/h (1 Bft) 92,45 %
10.07.2019 04:00 12,1 C 22,2 C 11,1 C 75 % 1016,3 hPa 0,0 l/m 1,7 km/h (1 Bft) O-SO 115 0 min 0,000 mm 0,0 UV-I 0 W/m 7,8 C 12,1 C 3,2 km/h (1 Bft) 93,62 %
10.07.2019 04:02 12,2 C 22,2 C 11,1 C 75 % 1016,3 hPa 0,0 l/m 1,3 km/h (1 Bft) O-SO 115 0 min 0,000 mm 0,0 UV-I 0 W/m 7,9 C 12,2 C 1,6 km/h (1 Bft) 91,67 %
10.07.2019 04:04 12,3 C 22,2 C 10,6 C 75 % 1016,2 hPa 0,0 l/m 0,0 km/h (0 Bft) O-SO 115 0 min 0,000 mm 0,0 UV-I 0 W/m 8,0 C 12,3 C 0,0 km/h (0 Bft) 94,00 %
10.07.2019 04:06 12,2 C 22,2 C 10,6 C 78 % 1016,3 hPa 0,0 l/m 0,0 km/h (0 Bft) O-SO 115 0 min 0,000 mm 0,0 UV-I 0 W/m 8,5 C 12,2 C 0,0 km/h (0 Bft) 93,62 %
10.07.2019 04:08 11,9 C 22,2 C 10,6 C 80 % 1016,2 hPa 0,0 l/m 0,1 km/h (0 Bft) O-SO 115 0 min 0,000 mm 0,0 UV-I 0 W/m 8,6 C 11,9 C 1,6 km/h (1 Bft) 93,62 %
10.07.2019 04:10 11,7 C 22,2 C 10,6 C 81 % 1016,3 hPa 0,0 l/m 0,0 km/h (0 Bft) O-SO 115 0 min 0,000 mm 0,0 UV-I 0 W/m 8,5 C 11,7 C 0,0 km/h (0 Bft) 95,74 %
10.07.2019 04:12 11,7 C 22,2 C 10,0 C 81 % 1016,3 hPa 0,0 l/m 0,0 km/h (0 Bft) O-SO 115 0 min 0,000 mm 0,0 UV-I 0 W/m 8,5 C 11,7 C 0,0 km/h (0 Bft) 96,00 %
10.07.2019 04:14 11,7 C 22,2 C 10,0 C 81 % 1016,3 hPa 0,0 l/m 0,0 km/h (0 Bft) O-SO 115 0 min 0,000 mm 0,0 UV-I 0 W/m 8,5 C 11,7 C 0,0 km/h (0 Bft) 89,58 %
10.07.2019 04:16 11,7 C 22,2 C 10,0 C 81 % 1016,3 hPa 0,0 l/m 0,0 km/h (0 Bft) O-SO 115 0 min 0,000 mm 0,0 UV-I 0 W/m 8,5 C 11,7 C 0,0 km/h (0 Bft) 93,62 %
10.07.2019 04:18 11,8 C 22,2 C 10,0 C 80 % 1016,4 hPa 0,0 l/m 0,0 km/h (0 Bft) O-SO 115 0 min 0,000 mm 0,0 UV-I 0 W/m 8,5 C 11,8 C 0,0 km/h (0 Bft) 94,00 %
10.07.2019 04:20 11,7 C 22,2 C 10,6 C 80 % 1016,3 hPa 0,0 l/m 0,0 km/h (0 Bft) O-SO 115 0 min 0,000 mm 0,0 UV-I 0 W/m 8,4 C 11,7 C 0,0 km/h (0 Bft) 97,87 %
10.07.2019 04:22 11,8 C 22,2 C 10,6 C 78 % 1016,3 hPa 0,0 l/m 0,0 km/h (0 Bft) O-SO 115 0 min 0,000 mm 0,0 UV-I 0 W/m 8,1 C 11,8 C 0,0 km/h (0 Bft) 95,74 %
10.07.2019 04:24 11,9 C 22,2 C 10,6 C 77 % 1016,3 hPa 0,0 l/m 1,3 km/h (1 Bft) O-SO 115 0 min 0,000 mm 0,0 UV-I 0 W/m 8,0 C 11,9 C 3,2 km/h (1 Bft) 94,29 %
10.07.2019 04:26 12,1 C 22,2 C 10,6 C 77 % 1016,4 hPa 0,0 l/m 0,4 km/h (0 Bft) O-SO 115 0 min 0,000 mm 0,0 UV-I 0 W/m 8,2 C 12,1 C 1,6 km/h (1 Bft) 96,00 %
10.07.2019 04:28 12,1 C 22,2 C 10,6 C 77 % 1016,4 hPa 0,0 l/m 0,0 km/h (0 Bft) O-SO 115 0 min 0,000 mm 0,0 UV-I 0 W/m 8,2 C 12,1 C 0,0 km/h (0 Bft) 91,49 %
10.07.2019 04:30 12,2 C 22,2 C 11,1 C 78 % 1016,3 hPa 0,0 l/m 0,8 km/h (0 Bft) O-SO 115 0 min 0,000 mm 0,0 UV-I 0 W/m 8,5 C 12,2 C 3,2 km/h (1 Bft) 95,74 %
10.07.2019 04:32 12,1 C 22,2 C 11,1 C 76 % 1016,3 hPa 0,0 l/m 2,7 km/h (1 Bft) O-SO 115 0 min 0,000 mm 0,0 UV-I 0 W/m 8,0 C 12,1 C 4,8 km/h (1 Bft) 97,87 %
10.07.2019 04:34 11,9 C 22,2 C 11,1 C 78 % 1016,3 hPa 0,0 l/m 1,9 km/h (1 Bft) O-SO 115 0 min 0,000 mm 0,0 UV-I 0 W/m 8,2 C 11,9 C 4,8 km/h (1 Bft) 94,00 %
10.07.2019 04:36 11,9 C 22,2 C 11,1 C 77 % 1016,3 hPa 0,0 l/m 0,0 km/h (0 Bft) O-SO 115 0 min 0,000 mm 0,0 UV-I 0 W/m 8,0 C 11,9 C 0,0 km/h (0 Bft) 98,00 %
10.07.2019 04:38 12,0 C 22,2 C 11,1 C 77 % 1016,3 hPa 0,0 l/m 1,8 km/h (1 Bft) O-SO 114 0 min 0,000 mm 0,0 UV-I 0 W/m 8,1 C 12,0 C 4,8 km/h (1 Bft) 97,87 %
10.07.2019 04:40 12,1 C 22,2 C 11,1 C 77 % 1016,2 hPa 0,0 l/m 3,3 km/h (1 Bft) O-SO 114 0 min 0,000 mm 0,0 UV-I 0 W/m 8,2 C 12,1 C 4,8 km/h (1 Bft) 95,74 %
10.07.2019 04:42 12,0 C 22,2 C 11,1 C 78 % 1016,3 hPa 0,0 l/m 1,7 km/h (1 Bft) O-SO 114 0 min 0,000 mm 0,0 UV-I 0 W/m 8,3 C 12,0 C 3,2 km/h (1 Bft) 93,62 %
10.07.2019 04:44 12,0 C 22,2 C 11,1 C 77 % 1016,3 hPa 0,0 l/m 0,3 km/h (0 Bft) O-SO 114 0 min 0,000 mm 0,0 UV-I 0 W/m 8,1 C 12,0 C 1,6 km/h (1 Bft) 97,87 %
10.07.2019 04:46 12,1 C 22,2 C 11,1 C 77 % 1016,2 hPa 0,0 l/m 1,4 km/h (1 Bft) O-SO 114 0 min 0,000 mm 0,0 UV-I 0 W/m 8,2 C 12,1 C 3,2 km/h (1 Bft) 95,74 %
10.07.2019 04:48 12,1 C 22,2 C 11,1 C 77 % 1016,2 hPa 0,0 l/m 3,1 km/h (1 Bft) O-SO 115 0 min 0,000 mm 0,0 UV-I 0 W/m 8,2 C 12,1 C 6,4 km/h (2 Bft) 100,00 %
10.07.2019 04:50 11,9 C 22,2 C 11,1 C 78 % 1016,2 hPa 0,0 l/m 4,6 km/h (1 Bft) O-SO 111 0 min 0,000 mm 0,0 UV-I 0 W/m 8,2 C 11,9 C 9,7 km/h (2 Bft) 98,68 %
10.07.2019 04:52 11,7 C 22,2 C 10,6 C 77 % 1016,2 hPa 0,0 l/m 4,4 km/h (1 Bft) O-SO 111 0 min 0,000 mm 0,0 UV-I 0 W/m 7,8 C 11,7 C 6,4 km/h (2 Bft) 97,87 %
10.07.2019 04:54 11,8 C 22,2 C 10,6 C 75 % 1016,2 hPa 0,0 l/m 2,1 km/h (1 Bft) O-SO 111 0 min 0,000 mm 0,0 UV-I 0 W/m 7,5 C 11,8 C 3,2 km/h (1 Bft) 97,92 %
10.07.2019 04:56 12,0 C 21,7 C 10,6 C 75 % 1016,2 hPa 0,0 l/m 0,5 km/h (0 Bft) O-SO 111 0 min 0,000 mm 0,0 UV-I 0 W/m 7,7 C 12,0 C 1,6 km/h (1 Bft) 97,87 %
10.07.2019 04:58 11,9 C 22,2 C 10,0 C 77 % 1016,2 hPa 0,0 l/m 1,2 km/h (1 Bft) O-SO 111 0 min 0,000 mm 0,0 UV-I 2 W/m 8,0 C 11,9 C 1,6 km/h (1 Bft) 100,00 %
10.07.2019 05:00 11,8 C 22,2 C 10,0 C 77 % 1016,3 hPa 0,0 l/m 1,4 km/h (1 Bft) O-SO 111 0 min 0,000 mm 0,0 UV-I 5 W/m 7,9 C 11,8 C 3,2 km/h (1 Bft) 100,00 %
10.07.2019 05:02 11,7 C 21,7 C 10,0 C 78 % 1016,3 hPa 0,0 l/m 0,1 km/h (0 Bft) O-SO 111 0 min 0,000 mm 0,0 UV-I 5 W/m 8,0 C 11,7 C 1,6 km/h (1 Bft) 100,00 %
10.07.2019 05:04 11,4 C 21,7 C 10,0 C 80 % 1016,3 hPa 0,0 l/m 2,4 km/h (1 Bft) O-SO 111 0 min 0,000 mm 0,0 UV-I 5 W/m 8,1 C 11,4 C 4,8 km/h (1 Bft) 100,00 %
10.07.2019 05:06 11,2 C 22,2 C 9,4 C 79 % 1016,3 hPa 0,0 l/m 3,0 km/h (1 Bft) SO 131 0 min 0,000 mm 0,0 UV-I 5 W/m 7,7 C 11,2 C 4,8 km/h (1 Bft) 100,00 %
10.07.2019 05:08 11,2 C 21,7 C 9,4 C 79 % 1016,3 hPa 0,0 l/m 2,2 km/h (1 Bft) O-SO 118 0 min 0,000 mm 0,0 UV-I 6 W/m 7,7 C 11,2 C 4,8 km/h (1 Bft) 97,87 %
10.07.2019 05:10 11,3 C 22,2 C 9,4 C 78 % 1016,3 hPa 0,0 l/m 0,7 km/h (0 Bft) O-SO 118 0 min 0,000 mm 0,0 UV-I 7 W/m 7,6 C 11,3 C 1,6 km/h (1 Bft) 95,74 %
10.07.2019 05:12 11,4 C 22,2 C 9,4 C 78 % 1016,4 hPa 0,0 l/m 0,4 km/h (0 Bft) S-SO 159 0 min 0,000 mm 0,0 UV-I 7 W/m 7,7 C 11,4 C 1,6 km/h (1 Bft) 93,62 %
10.07.2019 05:14 11,5 C 22,2 C 8,9 C 78 % 1016,3 hPa 0,0 l/m 0,6 km/h (0 Bft) S-SO 155 0 min 0,000 mm 0,0 UV-I 9 W/m 7,8 C 11,5 C 1,6 km/h (1 Bft) 97,87 %
10.07.2019 05:16 11,4 C 22,2 C 8,9 C 80 % 1016,3 hPa 0,0 l/m 0,0 km/h (0 Bft) S-SO 155 0 min 0,000 mm 0,0 UV-I 9 W/m 8,1 C 11,4 C 0,0 km/h (0 Bft) 97,87 %
10.07.2019 05:18 11,4 C 21,7 C 8,9 C 80 % 1016,3 hPa 0,0 l/m 0,0 km/h (0 Bft) S-SO 155 0 min 0,000 mm 0,0 UV-I 9 W/m 8,1 C 11,4 C 0,0 km/h (0 Bft) 97,87 %
10.07.2019 05:20 11,4 C 21,7 C 8,9 C 80 % 1016,3 hPa 0,0 l/m 0,0 km/h (0 Bft) S-SO 155 0 min 0,000 mm 0,0 UV-I 11 W/m 8,1 C 11,4 C 0,0 km/h (0 Bft) 95,74 %
10.07.2019 05:22 11,3 C 21,7 C 8,9 C 80 % 1016,3 hPa 0,0 l/m 0,0 km/h (0 Bft) S-SO 155 0 min 0,000 mm 0,0 UV-I 11 W/m 8,0 C 11,3 C 0,0 km/h (0 Bft) 95,74 %
10.07.2019 05:24 11,1 C 21,7 C 8,9 C 80 % 1016,4 hPa 0,0 l/m 0,9 km/h (0 Bft) S-SO 155 0 min 0,000 mm 0,0 UV-I 12 W/m 7,8 C 11,1 C 3,2 km/h (1 Bft) 97,87 %
10.07.2019 05:26 11,1 C 21,7 C 8,9 C 81 % 1016,4 hPa 0,0 l/m 1,8 km/h (1 Bft) S-SO 155 0 min 0,000 mm 0,0 UV-I 14 W/m 8,0 C 11,1 C 3,2 km/h (1 Bft) 97,87 %
10.07.2019 05:28 11,1 C 21,7 C 8,9 C 81 % 1016,4 hPa 0,0 l/m 1,2 km/h (1 Bft) S-SO 155 2 min 0,000 mm 0,0 UV-I 16 W/m 8,0 C 11,1 C 1,6 km/h (1 Bft) 95,74 %
10.07.2019 05:30 11,1 C 21,7 C 9,4 C 82 % 1016,4 hPa 0,0 l/m 0,3 km/h (0 Bft) S-SO 155 2 min 0,000 mm 0,0 UV-I 19 W/m 8,1 C 11,1 C 1,6 km/h (1 Bft) 97,87 %
10.07.2019 05:32 10,9 C 21,7 C 9,4 C 82 % 1016,4 hPa 0,0 l/m 0,0 km/h (0 Bft) S-SO 155 2 min 0,000 mm 0,0 UV-I 20 W/m 7,9 C 10,9 C 0,0 km/h (0 Bft) 97,87 %
10.07.2019 05:34 10,7 C 21,7 C 9,4 C 83 % 1016,4 hPa 0,0 l/m 0,0 km/h (0 Bft) S-SO 155 2 min 0,000 mm 0,0 UV-I 23 W/m 7,9 C 10,7 C 0,0 km/h (0 Bft) 100,00 %
10.07.2019 05:36 10,7 C 21,7 C 9,4 C 83 % 1016,3 hPa 0,0 l/m 0,0 km/h (0 Bft) S-SO 155 2 min 0,000 mm 0,0 UV-I 25 W/m 7,9 C 10,7 C 0,0 km/h (0 Bft) 100,00 %
10.07.2019 05:38 10,7 C 21,7 C 10,0 C 83 % 1016,4 hPa 0,0 l/m 0,0 km/h (0 Bft) SW 219 2 min 0,000 mm 0,0 UV-I 26 W/m 7,9 C 10,7 C 1,6 km/h (1 Bft) 100,00 %
10.07.2019 05:40 10,8 C 21,7 C 10,0 C 82 % 1016,4 hPa 0,0 l/m 0,0 km/h (0 Bft) W-SW 240 0 min 0,000 mm 0,0 UV-I 25 W/m 7,9 C 10,8 C 0,0 km/h (0 Bft) 100,00 %
10.07.2019 05:42 10,8 C 21,7 C 10,0 C 82 % 1016,4 hPa 0,0 l/m 0,0 km/h (0 Bft) W-SW 240 0 min 0,000 mm 0,0 UV-I 25 W/m 7,9 C 10,8 C 0,0 km/h (0 Bft) 98,00 %
10.07.2019 05:44 10,8 C 21,7 C 10,0 C 82 % 1016,4 hPa 0,0 l/m 0,0 km/h (0 Bft) W-SW 240 0 min 0,000 mm 0,0 UV-I 26 W/m 7,9 C 10,8 C 0,0 km/h (0 Bft) 100,00 %
10.07.2019 05:46 10,8 C 21,7 C 9,4 C 81 % 1016,4 hPa 0,0 l/m 0,0 km/h (0 Bft) W-SW 240 0 min 0,000 mm 0,0 UV-I 24 W/m 7,7 C 10,8 C 0,0 km/h (0 Bft) 100,00 %
10.07.2019 05:48 10,9 C 21,7 C 9,4 C 81 % 1016,4 hPa 0,0 l/m 0,2 km/h (0 Bft) W-SW 240 0 min 0,000 mm 0,0 UV-I 26 W/m 7,8 C 10,9 C 1,6 km/h (1 Bft) 97,87 %
10.07.2019 05:50 11,0 C 21,7 C 9,4 C 81 % 1016,4 hPa 0,0 l/m 2,0 km/h (1 Bft) W-SW 240 0 min 0,000 mm 0,0 UV-I 29 W/m 7,9 C 11,0 C 3,2 km/h (1 Bft) 100,00 %
10.07.2019 05:52 11,0 C 21,7 C 10,0 C 80 % 1016,4 hPa 0,0 l/m 2,5 km/h (1 Bft) W-SW 242 0 min 0,000 mm 0,0 UV-I 32 W/m 7,7 C 11,0 C 3,2 km/h (1 Bft) 100,00 %
10.07.2019 05:54 10,9 C 21,7 C 10,0 C 82 % 1016,5 hPa 0,0 l/m 2,5 km/h (1 Bft) W-SW 244 0 min 0,000 mm 0,0 UV-I 29 W/m 7,9 C 10,9 C 3,2 km/h (1 Bft) 97,87 %
10.07.2019 05:56 10,8 C 21,7 C 10,6 C 84 % 1016,6 hPa 0,0 l/m 1,3 km/h (1 Bft) W-SW 246 0 min 0,000 mm 0,0 UV-I 26 W/m 8,2 C 10,8 C 1,6 km/h (1 Bft) 100,00 %
10.07.2019 05:58 10,7 C 21,7 C 10,6 C 85 % 1016,7 hPa 0,0 l/m 0,0 km/h (0 Bft) W-SW 245 0 min 0,000 mm 0,0 UV-I 26 W/m 8,3 C 10,7 C 0,0 km/h (0 Bft) 100,00 %
10.07.2019 06:00 10,7 C 21,7 C 11,1 C 85 % 1016,6 hPa 0,0 l/m 2,5 km/h (1 Bft) W-SW 252 0 min 0,025 mm 0,0 UV-I 26 W/m 8,3 C 10,7 C 4,8 km/h (1 Bft) 98,21 %
10.07.2019 06:02 10,9 C 21,7 C 11,1 C 83 % 1016,6 hPa 0,0 l/m 0,6 km/h (0 Bft) W-SW 255 0 min 0,000 mm 0,0 UV-I 28 W/m 8,1 C 10,9 C 3,2 km/h (1 Bft) 97,56 %
10.07.2019 06:04 11,1 C 21,7 C 11,1 C 83 % 1016,6 hPa 0,0 l/m 1,6 km/h (1 Bft) W-SW 255 0 min 0,000 mm 0,0 UV-I 28 W/m 8,3 C 11,1 C 3,2 km/h (1 Bft) 97,87 %
10.07.2019 06:06 11,2 C 21,7 C 11,7 C 83 % 1016,7 hPa 0,0 l/m 1,6 km/h (1 Bft) W-SW 255 0 min 0,000 mm 0,0 UV-I 34 W/m 8,4 C 11,2 C 3,2 km/h (1 Bft) 97,87 %
10.07.2019 06:08 11,2 C 21,7 C 11,7 C 82 % 1016,7 hPa 0,0 l/m 1,2 km/h (1 Bft) W-SW 255 0 min 0,000 mm 0,0 UV-I 35 W/m 8,2 C 11,2 C 1,6 km/h (1 Bft) 97,92 %
10.07.2019 06:10 11,3 C 21,7 C 11,7 C 82 % 1016,7 hPa 0,0 l/m 0,5 km/h (0 Bft) W-SW 255 0 min 0,000 mm 0,0 UV-I 37 W/m 8,3 C 11,3 C 1,6 km/h (1 Bft) 97,87 %
10.07.2019 06:12 11,4 C 21,7 C 12,2 C 80 % 1016,8 hPa 0,0 l/m 2,5 km/h (1 Bft) W-SW 255 0 min 0,000 mm 0,0 UV-I 42 W/m 8,1 C 11,4 C 4,8 km/h (1 Bft) 97,87 %
10.07.2019 06:14 11,5 C 21,7 C 12,2 C 79 % 1016,7 hPa 0,0 l/m 3,1 km/h (1 Bft) N-NO 13 0 min 0,000 mm 0,0 UV-I 43 W/m 8,0 C 11,5 C 4,8 km/h (1 Bft) 97,87 %
10.07.2019 06:16 11,6 C 21,7 C 12,2 C 77 % 1016,7 hPa 0,0 l/m 3,5 km/h (1 Bft) N 5 0 min 0,000 mm 0,0 UV-I 43 W/m 7,7 C 11,6 C 4,8 km/h (1 Bft) 96,00 %
10.07.2019 06:18 11,7 C 21,7 C 12,2 C 77 % 1016,7 hPa 0,0 l/m 2,0 km/h (1 Bft) N 5 0 min 0,000 mm 0,0 UV-I 48 W/m 7,8 C 11,7 C 3,2 km/h (1 Bft) 97,87 %
10.07.2019 06:20 11,8 C 21,7 C 12,2 C 77 % 1016,6 hPa 0,0 l/m 2,1 km/h (1 Bft) N 5 0 min 0,000 mm 0,0 UV-I 53 W/m 7,9 C 11,8 C 3,2 km/h (1 Bft) 97,87 %
10.07.2019 06:22 11,8 C 21,7 C 12,8 C 78 % 1016,6 hPa 0,0 l/m 0,7 km/h (0 Bft) N 5 0 min 0,000 mm 0,0 UV-I 57 W/m 8,1 C 11,8 C 3,2 km/h (1 Bft) 97,87 %
10.07.2019 06:24 11,9 C 21,7 C 12,8 C 80 % 1016,6 hPa 0,0 l/m 0,0 km/h (0 Bft) N 5 0 min 0,000 mm 0,0 UV-I 69 W/m 8,6 C 11,9 C 0,0 km/h (0 Bft) 97,37 %
10.07.2019 06:26 11,9 C 21,7 C 12,8 C 79 % 1016,6 hPa 0,0 l/m 0,0 km/h (0 Bft) N 5 0 min 0,000 mm 0,0 UV-I 63 W/m 8,4 C 11,9 C 0,0 km/h (0 Bft) 95,74 %
10.07.2019 06:28 12,0 C 21,7 C 12,8 C 78 % 1016,7 hPa 0,0 l/m 0,0 km/h (0 Bft) N 5 0 min 0,000 mm 0,0 UV-I 69 W/m 8,3 C 12,0 C 0,0 km/h (0 Bft) 98,00 %
10.07.2019 06:30 12,0 C 21,7 C 12,8 C 79 % 1016,7 hPa 0,0 l/m 0,0 km/h (0 Bft) N 5 0 min 0,000 mm 0,0 UV-I 72 W/m 8,5 C 12,0 C 0,0 km/h (0 Bft) 100,00 %
10.07.2019 06:32 12,1 C 21,7 C 13,3 C 78 % 1016,7 hPa 0,0 l/m 1,0 km/h (0 Bft) N 5 0 min 0,000 mm 0,0 UV-I 70 W/m 8,4 C 12,1 C 3,2 km/h (1 Bft) 95,74 %
10.07.2019 06:34 12,1 C 21,7 C 13,3 C 77 % 1016,7 hPa 0,0 l/m 1,2 km/h (1 Bft) N 5 0 min 0,000 mm 0,0 UV-I 66 W/m 8,2 C 12,1 C 3,2 km/h (1 Bft) 93,62 %
10.07.2019 06:36 12,2 C 21,7 C 13,3 C 79 % 1016,7 hPa 0,0 l/m 0,2 km/h (0 Bft) N 5 0 min 0,000 mm 0,0 UV-I 65 W/m 8,7 C 12,2 C 1,6 km/h (1 Bft) 96,00 %
10.07.2019 06:38 12,3 C 21,7 C 13,3 C 79 % 1016,7 hPa 0,0 l/m 0,2 km/h (0 Bft) N 5 0 min 0,000 mm 0,0 UV-I 65 W/m 8,8 C 12,3 C 1,6 km/h (1 Bft) 97,87 %
10.07.2019 06:40 12,2 C 21,7 C 13,3 C 78 % 1016,8 hPa 0,0 l/m 0,0 km/h (0 Bft) N 5 0 min 0,000 mm 0,0 UV-I 65 W/m 8,5 C 12,2 C 0,0 km/h (0 Bft) 97,87 %
10.07.2019 06:42 12,2 C 21,7 C 13,3 C 79 % 1016,7 hPa 0,0 l/m 0,0 km/h (0 Bft) N-NO 29 0 min 0,000 mm 0,0 UV-I 68 W/m 8,7 C 12,2 C 0,0 km/h (0 Bft) 97,87 %
10.07.2019 06:44 12,2 C 21,7 C 13,9 C 79 % 1016,7 hPa 0,0 l/m 0,0 km/h (0 Bft) N-NO 29 0 min 0,000 mm 0,0 UV-I 70 W/m 8,7 C 12,2 C 0,0 km/h (0 Bft) 95,74 %
10.07.2019 06:46 12,3 C 21,7 C 13,9 C 79 % 1016,7 hPa 0,0 l/m 0,0 km/h (0 Bft) N-NO 28 0 min 0,000 mm 0,0 UV-I 77 W/m 8,8 C 12,3 C 0,0 km/h (0 Bft) 97,87 %
10.07.2019 06:48 12,3 C 21,7 C 13,9 C 80 % 1016,7 hPa 0,0 l/m 0,0 km/h (0 Bft) N-NO 28 0 min 0,000 mm 0,0 UV-I 81 W/m 8,9 C 12,3 C 0,0 km/h (0 Bft) 97,87 %
10.07.2019 06:50 12,4 C 21,7 C 13,9 C 79 % 1016,7 hPa 0,0 l/m 0,8 km/h (0 Bft) N-NO 26 0 min 0,000 mm 0,0 UV-I 85 W/m 8,9 C 12,4 C 1,6 km/h (1 Bft) 93,62 %
10.07.2019 06:52 12,5 C 21,7 C 14,4 C 79 % 1016,7 hPa 0,0 l/m 0,1 km/h (0 Bft) N-NO 26 0 min 0,000 mm 0,0 UV-I 89 W/m 9,0 C 12,5 C 1,6 km/h (1 Bft) 97,92 %
10.07.2019 06:54 12,6 C 21,7 C 14,4 C 80 % 1016,7 hPa 0,0 l/m 0,0 km/h (0 Bft) N-NO 26 0 min 0,000 mm 0,0 UV-I 90 W/m 9,2 C 12,6 C 0,0 km/h (0 Bft) 94,74 %
10.07.2019 06:56 12,7 C 21,7 C 14,4 C 80 % 1016,8 hPa 0,0 l/m 0,0 km/h (0 Bft) N-NO 26 0 min 0,000 mm 0,0 UV-I 92 W/m 9,3 C 12,7 C 0,0 km/h (0 Bft) 100,00 %
10.07.2019 06:58 12,6 C 21,7 C 14,4 C 79 % 1016,8 hPa 0,0 l/m 0,0 km/h (0 Bft) N-NO 26 0 min 0,000 mm 0,0 UV-I 93 W/m 9,1 C 12,6 C 0,0 km/h (0 Bft) 100,00 %
10.07.2019 07:00 12,7 C 21,7 C 14,4 C 80 % 1016,8 hPa 0,0 l/m 0,0 km/h (0 Bft) N-NO 26 0 min 0,026 mm 0,0 UV-I 96 W/m 9,3 C 12,7 C 0,0 km/h (0 Bft) 96,00 %
10.07.2019 07:02 12,7 C 21,7 C 15,0 C 79 % 1016,7 hPa 0,0 l/m 0,0 km/h (0 Bft) N-NO 26 0 min 0,000 mm 0,0 UV-I 103 W/m 9,2 C 12,7 C 0,0 km/h (0 Bft) 100,00 %
10.07.2019 07:04 12,7 C 21,7 C 15,0 C 79 % 1016,8 hPa 0,0 l/m 0,0 km/h (0 Bft) N-NO 26 0 min 0,000 mm 0,0 UV-I 105 W/m 9,2 C 12,7 C 0,0 km/h (0 Bft) 93,62 %
10.07.2019 07:06 12,7 C 21,7 C 15,0 C 80 % 1016,8 hPa 0,0 l/m 0,0 km/h (0 Bft) N-NO 26 0 min 0,000 mm 0,0 UV-I 106 W/m 9,3 C 12,7 C 0,0 km/h (0 Bft) 97,87 %
10.07.2019 07:08 12,8 C 21,7 C 15,0 C 79 % 1016,8 hPa 0,0 l/m 1,4 km/h (1 Bft) N-NO 26 0 min 0,000 mm 0,0 UV-I 107 W/m 9,2 C 12,8 C 3,2 km/h (1 Bft) 94,00 %
10.07.2019 07:10 12,8 C 21,7 C 15,0 C 80 % 1016,9 hPa 0,0 l/m 1,8 km/h (1 Bft) N-NO 26 0 min 0,000 mm 0,0 UV-I 104 W/m 9,4 C 12,8 C 3,2 km/h (1 Bft) 91,49 %
10.07.2019 07:12 12,8 C 21,7 C 15,0 C 81 % 1016,9 hPa 0,0 l/m 1,2 km/h (1 Bft) N-NO 26 0 min 0,000 mm 0,0 UV-I 104 W/m 9,6 C 12,8 C 1,6 km/h (1 Bft) 98,00 %
10.07.2019 07:14 12,8 C 21,7 C 15,0 C 80 % 1016,8 hPa 0,0 l/m 0,8 km/h (0 Bft) N-NO 26 0 min 0,000 mm 0,0 UV-I 114 W/m 9,4 C 12,8 C 1,6 km/h (1 Bft) 93,62 %
10.07.2019 07:16 12,8 C 21,7 C 15,0 C 79 % 1016,9 hPa 0,0 l/m 0,9 km/h (0 Bft) N-NO 26 0 min 0,000 mm 0,0 UV-I 127 W/m 9,2 C 12,8 C 1,6 km/h (1 Bft) 97,30 %
10.07.2019 07:18 12,9 C 21,7 C 15,6 C 79 % 1016,8 hPa 0,0 l/m 0,0 km/h (0 Bft) N-NO 26 0 min 0,000 mm 0,0 UV-I 138 W/m 9,3 C 12,9 C 0,0 km/h (0 Bft) 97,87 %
10.07.2019 07:20 13,0 C 21,7 C 15,6 C 80 % 1016,8 hPa 0,0 l/m 1,6 km/h (1 Bft) N-NO 26 0 min 0,000 mm 0,0 UV-I 143 W/m 9,6 C 13,0 C 3,2 km/h (1 Bft) 98,00 %
10.07.2019 07:22 13,0 C 21,7 C 15,6 C 79 % 1016,8 hPa 0,0 l/m 1,7 km/h (1 Bft) N-NO 26 0 min 0,000 mm 0,0 UV-I 143 W/m 9,4 C 13,0 C 3,2 km/h (1 Bft) 98,00 %
10.07.2019 07:24 13,1 C 21,7 C 15,6 C 78 % 1016,8 hPa 0,0 l/m 1,2 km/h (1 Bft) N-NO 26 0 min 0,000 mm 0,0 UV-I 140 W/m 9,4 C 13,1 C 1,6 km/h (1 Bft) 97,87 %
10.07.2019 07:26 13,1 C 21,7 C 16,1 C 77 % 1016,8 hPa 0,0 l/m 1,7 km/h (1 Bft) N-NO 26 0 min 0,000 mm 0,0 UV-I 139 W/m 9,2 C 13,1 C 3,2 km/h (1 Bft) 97,87 %
10.07.2019 07:28 13,1 C 21,7 C 16,1 C 76 % 1016,8 hPa 0,0 l/m 2,2 km/h (1 Bft) N-NO 26 0 min 0,000 mm 0,0 UV-I 142 W/m 9,0 C 13,1 C 3,2 km/h (1 Bft) 95,83 %
10.07.2019 07:30 13,2 C 21,7 C 16,1 C 77 % 1016,7 hPa 0,0 l/m 1,4 km/h (1 Bft) N-NO 26 0 min 0,000 mm 0,0 UV-I 142 W/m 9,3 C 13,2 C 3,2 km/h (1 Bft) 97,37 %
10.07.2019 07:32 13,2 C 21,7 C 16,1 C 76 % 1016,8 hPa 0,0 l/m 1,5 km/h (1 Bft) N-NW 342 0 min 0,000 mm 0,0 UV-I 141 W/m 9,1 C 13,2 C 3,2 km/h (1 Bft) 97,87 %
10.07.2019 07:34 13,3 C 21,7 C 16,1 C 77 % 1016,8 hPa 0,0 l/m 2,2 km/h (1 Bft) N-NW 342 0 min 0,000 mm 0,0 UV-I 142 W/m 9,4 C 13,3 C 3,2 km/h (1 Bft) 95,74 %
10.07.2019 07:36 13,2 C 21,7 C 16,1 C 76 % 1016,8 hPa 0,0 l/m 2,6 km/h (1 Bft) N-NW 342 0 min 0,000 mm 0,0 UV-I 149 W/m 9,1 C 13,2 C 4,8 km/h (1 Bft) 95,74 %
10.07.2019 07:38 13,2 C 21,7 C 16,1 C 75 % 1016,8 hPa 0,0 l/m 1,3 km/h (1 Bft) N-NW 344 0 min 0,000 mm 0,0 UV-I 156 W/m 8,9 C 13,2 C 4,8 km/h (1 Bft) 97,87 %
10.07.2019 07:40 13,2 C 21,7 C 16,1 C 73 % 1016,8 hPa 0,0 l/m 2,9 km/h (1 Bft) N-NW 339 0 min 0,000 mm 0,0 UV-I 163 W/m 8,5 C 13,2 C 4,8 km/h (1 Bft) 98,08 %
10.07.2019 07:42 13,2 C 21,7 C 16,1 C 73 % 1016,8 hPa 0,0 l/m 3,3 km/h (1 Bft) N-NW 341 0 min 0,000 mm 0,0 UV-I 169 W/m 8,5 C 13,2 C 4,8 km/h (1 Bft) 97,87 %
10.07.2019 07:44 13,2 C 21,7 C 16,1 C 72 % 1016,8 hPa 0,0 l/m 1,4 km/h (1 Bft) N-NW 340 0 min 0,000 mm 0,0 UV-I 171 W/m 8,3 C 13,2 C 3,2 km/h (1 Bft) 96,00 %
10.07.2019 07:46 13,2 C 21,7 C 16,1 C 73 % 1016,8 hPa 0,0 l/m 1,3 km/h (1 Bft) N-NW 341 0 min 0,000 mm 0,5 UV-I 183 W/m 8,5 C 13,2 C 3,2 km/h (1 Bft) 95,74 %
10.07.2019 07:48 13,3 C 21,7 C 16,7 C 72 % 1016,8 hPa 0,0 l/m 1,0 km/h (0 Bft) N-NW 340 0 min 0,000 mm 0,5 UV-I 204 W/m 8,4 C 13,3 C 3,2 km/h (1 Bft) 100,00 %
10.07.2019 07:50 13,5 C 21,7 C 16,7 C 73 % 1016,8 hPa 0,0 l/m 1,3 km/h (1 Bft) N-NW 341 2 min 0,000 mm 0,5 UV-I 221 W/m 8,8 C 13,5 C 3,2 km/h (1 Bft) 96,00 %
10.07.2019 07:52 13,6 C 21,7 C 17,2 C 70 % 1016,8 hPa 0,0 l/m 1,6 km/h (1 Bft) N-NW 341 2 min 0,000 mm 0,5 UV-I 239 W/m 8,2 C 13,6 C 3,2 km/h (1 Bft) 97,87 %
10.07.2019 07:54 13,7 C 21,7 C 17,2 C 71 % 1016,8 hPa 0,0 l/m 1,1 km/h (1 Bft) N-NW 341 0 min 0,000 mm 0,5 UV-I 216 W/m 8,5 C 13,7 C 3,2 km/h (1 Bft) 97,87 %
10.07.2019 07:56 13,7 C 21,7 C 17,2 C 70 % 1016,8 hPa 0,0 l/m 0,0 km/h (0 Bft) N-NW 340 0 min 0,000 mm 0,5 UV-I 198 W/m 8,3 C 13,7 C 0,0 km/h (0 Bft) 92,00 %
10.07.2019 07:58 13,7 C 21,7 C 17,2 C 71 % 1016,8 hPa 0,0 l/m 2,0 km/h (1 Bft) N-NW 340 0 min 0,000 mm 0,6 UV-I 216 W/m 8,5 C 13,7 C 3,2 km/h (1 Bft) 94,00 %
10.07.2019 08:00 13,7 C 21,7 C 17,2 C 70 % 1016,8 hPa 0,0 l/m 2,4 km/h (1 Bft) N-NW 340 0 min 0,076 mm 0,6 UV-I 213 W/m 8,3 C 13,7 C 4,8 km/h (1 Bft) 97,87 %
10.07.2019 08:02 13,7 C 21,7 C 17,2 C 70 % 1016,8 hPa 0,0 l/m 1,3 km/h (1 Bft) N-NW 340 2 min 0,000 mm 0,6 UV-I 233 W/m 8,3 C 13,7 C 3,2 km/h (1 Bft) 91,49 %
10.07.2019 08:04 13,7 C 21,7 C 17,2 C 71 % 1016,9 hPa 0,0 l/m 0,9 km/h (0 Bft) N-NW 340 2 min 0,000 mm 0,6 UV-I 274 W/m 8,5 C 13,7 C 1,6 km/h (1 Bft) 91,49 %
10.07.2019 08:06 13,8 C 21,7 C 17,8 C 70 % 1016,9 hPa 0,0 l/m 1,3 km/h (1 Bft) N-NW 340 2 min 0,000 mm 0,6 UV-I 241 W/m 8,4 C 13,8 C 3,2 km/h (1 Bft) 93,62 %
10.07.2019 08:08 13,8 C 21,7 C 17,8 C 70 % 1016,9 hPa 0,0 l/m 1,2 km/h (1 Bft) N-NW 340 0 min 0,000 mm 0,6 UV-I 203 W/m 8,4 C 13,8 C 3,2 km/h (1 Bft) 93,75 %
10.07.2019 08:10 13,7 C 21,7 C 17,2 C 68 % 1016,9 hPa 0,0 l/m 0,6 km/h (0 Bft) N-NW 340 0 min 0,000 mm 0,7 UV-I 199 W/m 7,9 C 13,7 C 1,6 km/h (1 Bft) 95,74 %
10.07.2019 08:12 13,8 C 21,7 C 17,2 C 70 % 1016,9 hPa 0,0 l/m 1,3 km/h (1 Bft) N-NW 340 0 min 0,000 mm 0,7 UV-I 205 W/m 8,4 C 13,8 C 3,2 km/h (1 Bft) 95,74 %
10.07.2019 08:14 13,8 C 21,7 C 17,2 C 68 % 1016,9 hPa 0,0 l/m 1,9 km/h (1 Bft) N-NW 340 0 min 0,000 mm 0,8 UV-I 227 W/m 8,0 C 13,8 C 3,2 km/h (1 Bft) 95,74 %
10.07.2019 08:16 13,9 C 21,7 C 17,8 C 67 % 1016,9 hPa 0,0 l/m 1,2 km/h (1 Bft) N-NW 340 0 min 0,000 mm 0,8 UV-I 246 W/m 7,9 C 13,9 C 3,2 km/h (1 Bft) 95,74 %
10.07.2019 08:18 14,0 C 21,7 C 17,8 C 66 % 1016,9 hPa 0,0 l/m 0,9 km/h (0 Bft) N-NW 340 2 min 0,000 mm 0,8 UV-I 261 W/m 7,7 C 14,0 C 3,2 km/h (1 Bft) 97,87 %
10.07.2019 08:20 14,1 C 21,7 C 18,3 C 67 % 1016,9 hPa 0,0 l/m 1,6 km/h (1 Bft) N-NW 340 2 min 0,000 mm 0,8 UV-I 328 W/m 8,1 C 14,1 C 3,2 km/h (1 Bft) 95,74 %
10.07.2019 08:22 14,2 C 21,7 C 18,3 C 67 % 1016,9 hPa 0,0 l/m 1,7 km/h (1 Bft) N-NW 340 2 min 0,000 mm 0,8 UV-I 332 W/m 8,2 C 14,2 C 3,2 km/h (1 Bft) 97,14 %
10.07.2019 08:24 14,1 C 21,7 C 18,9 C 67 % 1016,9 hPa 0,0 l/m 2,2 km/h (1 Bft) N-NW 340 0 min 0,000 mm 0,7 UV-I 250 W/m 8,1 C 14,1 C 4,8 km/h (1 Bft) 96,00 %
10.07.2019 08:26 14,3 C 21,7 C 18,9 C 67 % 1017,0 hPa 0,0 l/m 2,6 km/h (1 Bft) N-NW 340 0 min 0,000 mm 0,7 UV-I 247 W/m 8,3 C 14,3 C 4,8 km/h (1 Bft) 97,87 %
10.07.2019 08:28 14,4 C 21,7 C 18,9 C 67 % 1017,0 hPa 0,0 l/m 3,4 km/h (1 Bft) W 277 0 min 0,000 mm 0,7 UV-I 242 W/m 8,4 C 14,4 C 6,4 km/h (2 Bft) 97,87 %
10.07.2019 08:30 14,4 C 21,7 C 18,9 C 64 % 1017,0 hPa 0,0 l/m 3,3 km/h (1 Bft) W 276 0 min 0,000 mm 0,7 UV-I 239 W/m 7,7 C 14,4 C 6,4 km/h (2 Bft) 95,74 %
10.07.2019 08:32 14,3 C 21,7 C 18,9 C 65 % 1017,0 hPa 0,0 l/m 3,2 km/h (1 Bft) W 279 0 min 0,000 mm 0,7 UV-I 231 W/m 7,8 C 14,3 C 4,8 km/h (1 Bft) 95,74 %
10.07.2019 08:34 14,4 C 21,7 C 18,9 C 64 % 1017,0 hPa 0,0 l/m 2,1 km/h (1 Bft) W 279 0 min 0,000 mm 0,7 UV-I 230 W/m 7,7 C 14,4 C 3,2 km/h (1 Bft) 95,74 %
10.07.2019 08:36 14,3 C 21,7 C 18,3 C 66 % 1017,0 hPa 0,0 l/m 2,9 km/h (1 Bft) W 280 0 min 0,000 mm 0,7 UV-I 234 W/m 8,0 C 14,3 C 4,8 km/h (1 Bft) 100,00 %
10.07.2019 08:38 14,4 C 21,7 C 18,3 C 65 % 1017,1 hPa 0,0 l/m 2,0 km/h (1 Bft) W 280 0 min 0,000 mm 0,7 UV-I 241 W/m 7,9 C 14,4 C 4,8 km/h (1 Bft) 95,83 %
10.07.2019 08:40 14,5 C 21,7 C 18,9 C 65 % 1017,0 hPa 0,0 l/m 1,7 km/h (1 Bft) W 280 0 min 0,000 mm 0,8 UV-I 252 W/m 8,0 C 14,5 C 3,2 km/h (1 Bft) 100,00 %
10.07.2019 08:42 14,6 C 21,7 C 18,9 C 66 % 1017,0 hPa 0,0 l/m 1,8 km/h (1 Bft) W 280 0 min 0,000 mm 0,8 UV-I 264 W/m 8,3 C 14,6 C 4,8 km/h (1 Bft) 96,00 %
10.07.2019 08:44 14,7 C 21,7 C 19,4 C 64 % 1017,0 hPa 0,0 l/m 4,6 km/h (1 Bft) W-NW 288 0 min 0,000 mm 0,9 UV-I 268 W/m 8,0 C 14,7 C 8,0 km/h (2 Bft) 100,00 %
10.07.2019 08:46 14,7 C 21,7 C 19,4 C 66 % 1017,0 hPa 0,0 l/m 3,7 km/h (1 Bft) N-NW 340 0 min 0,000 mm 0,9 UV-I 266 W/m 8,4 C 14,7 C 6,4 km/h (2 Bft) 95,74 %
10.07.2019 08:48 14,8 C 21,7 C 18,9 C 63 % 1016,9 hPa 0,0 l/m 3,5 km/h (1 Bft) N-NO 30 0 min 0,000 mm 0,9 UV-I 258 W/m 7,8 C 14,8 C 4,8 km/h (1 Bft) 100,00 %
10.07.2019 08:50 15,0 C 21,7 C 20,0 C 64 % 1017,0 hPa 0,0 l/m 4,1 km/h (1 Bft) W-NW 296 0 min 0,000 mm 1,2 UV-I 264 W/m 8,2 C 15,0 C 6,4 km/h (2 Bft) 100,00 %
10.07.2019 08:52 15,1 C 21,7 C 20,0 C 60 % 1017,0 hPa 0,0 l/m 2,0 km/h (1 Bft) W-NW 295 0 min 0,000 mm 1,1 UV-I 272 W/m 7,4 C 15,1 C 4,8 km/h (1 Bft) 100,00 %
10.07.2019 08:54 15,0 C 21,7 C 20,6 C 61 % 1017,0 hPa 0,0 l/m 2,7 km/h (1 Bft) W 263 0 min 0,000 mm 1,2 UV-I 285 W/m 7,5 C 15,0 C 6,4 km/h (2 Bft) 96,00 %
10.07.2019 08:56 15,2 C 21,7 C 21,7 C 60 % 1017,0 hPa 0,0 l/m 4,3 km/h (1 Bft) W-SW 254 2 min 0,000 mm 1,3 UV-I 305 W/m 7,5 C 15,2 C 6,4 km/h (2 Bft) 97,87 %
10.07.2019 08:58 15,3 C 21,7 C 22,2 C 60 % 1017,0 hPa 0,0 l/m 2,1 km/h (1 Bft) W-SW 254 2 min 0,000 mm 1,3 UV-I 311 W/m 7,6 C 15,3 C 4,8 km/h (1 Bft) 100,00 %
10.07.2019 09:00 15,3 C 21,7 C 21,7 C 59 % 1017,0 hPa 0,0 l/m 5,4 km/h (1 Bft) N-NW 342 2 min 0,152 mm 1,4 UV-I 309 W/m 7,3 C 15,3 C 9,7 km/h (2 Bft) 100,00 %
10.07.2019 09:02 15,4 C 21,7 C 23,3 C 59 % 1017,0 hPa 0,0 l/m 2,5 km/h (1 Bft) N-NW 344 2 min 0,000 mm 1,5 UV-I 428 W/m 7,4 C 15,4 C 6,4 km/h (2 Bft) 100,00 %
10.07.2019 09:04 15,7 C 21,7 C 25,0 C 59 % 1017,0 hPa 0,0 l/m 4,3 km/h (1 Bft) NW 324 2 min 0,000 mm 1,7 UV-I 749 W/m 7,7 C 15,7 C 6,4 km/h (2 Bft) 100,00 %
10.07.2019 09:06 15,8 C 22,2 C 26,1 C 59 % 1017,0 hPa 0,0 l/m 4,5 km/h (1 Bft) NO 42 2 min 0,000 mm 1,6 UV-I 725 W/m 7,8 C 15,8 C 6,4 km/h (2 Bft) 100,00 %
10.07.2019 09:08 16,0 C 21,7 C 26,7 C 58 % 1017,0 hPa 0,0 l/m 7,2 km/h (2 Bft) N-NO 28 2 min 0,000 mm 1,7 UV-I 582 W/m 7,7 C 15,6 C 11,3 km/h (2 Bft) 100,00 %
10.07.2019 09:10 16,1 C 21,7 C 27,2 C 59 % 1017,0 hPa 0,0 l/m 6,3 km/h (2 Bft) N 5 2 min 0,000 mm 1,6 UV-I 587 W/m 8,1 C 16,1 C 11,3 km/h (2 Bft) 100,00 %
10.07.2019 09:12 16,2 C 21,7 C 25,6 C 60 % 1017,1 hPa 0,0 l/m 6,5 km/h (2 Bft) N 355 2 min 0,000 mm 1,4 UV-I 560 W/m 8,4 C 16,2 C 12,9 km/h (3 Bft) 100,00 %
10.07.2019 09:14 16,1 C 21,7 C 25,6 C 57 % 1017,0 hPa 0,0 l/m 8,4 km/h (2 Bft) N-NO 14 2 min 0,000 mm 1,5 UV-I 343 W/m 7,6 C 15,1 C 12,9 km/h (3 Bft) 100,00 %
10.07.2019 09:16 16,1 C 21,7 C 25,0 C 59 % 1017,1 hPa 0,0 l/m 5,4 km/h (1 Bft) N 5 2 min 0,000 mm 1,5 UV-I 344 W/m 8,1 C 16,1 C 8,0 km/h (2 Bft) 100,00 %
10.07.2019 09:18 16,1 C 21,7 C 24,4 C 58 % 1017,1 hPa 0,0 l/m 7,5 km/h (2 Bft) N-NW 342 2 min 0,000 mm 1,5 UV-I 413 W/m 7,8 C 15,5 C 12,9 km/h (3 Bft) 100,00 %
10.07.2019 09:20 15,9 C 21,7 C 23,3 C 57 % 1017,1 hPa 0,0 l/m 2,8 km/h (1 Bft) W 281 2 min 0,000 mm 1,4 UV-I 348 W/m 7,4 C 15,9 C 6,4 km/h (2 Bft) 94,00 %
10.07.2019 09:22 15,7 C 21,7 C 23,3 C 57 % 1017,1 hPa 0,0 l/m 2,2 km/h (1 Bft) W-NW 285 0 min 0,000 mm 1,5 UV-I 313 W/m 7,2 C 15,7 C 4,8 km/h (1 Bft) 97,87 %
10.07.2019 09:24 15,6 C 21,7 C 23,3 C 58 % 1017,2 hPa 0,0 l/m 0,7 km/h (0 Bft) W-NW 285 2 min 0,000 mm 1,7 UV-I 352 W/m 7,4 C 15,6 C 1,6 km/h (1 Bft) 97,87 %
10.07.2019 09:26 15,5 C 21,7 C 23,3 C 59 % 1017,1 hPa 0,0 l/m 1,8 km/h (1 Bft) NO 36 2 min 0,000 mm 1,6 UV-I 525 W/m 7,5 C 15,5 C 4,8 km/h (1 Bft) 95,74 %
10.07.2019 09:28 15,7 C 21,7 C 23,3 C 60 % 1017,1 hPa 0,0 l/m 6,1 km/h (2 Bft) N-NW 346 0 min 0,000 mm 1,6 UV-I 331 W/m 8,0 C 15,7 C 9,7 km/h (2 Bft) 95,74 %
10.07.2019 09:30 16,1 C 21,7 C 25,6 C 60 % 1017,1 hPa 0,0 l/m 5,0 km/h (1 Bft) N-NW 348 2 min 0,000 mm 2,2 UV-I 587 W/m 8,3 C 16,1 C 6,4 km/h (2 Bft) 97,56 %
10.07.2019 09:32 16,2 C 21,7 C 23,9 C 56 % 1017,0 hPa 0,0 l/m 5,0 km/h (1 Bft) W-SW 247 2 min 0,000 mm 1,8 UV-I 701 W/m 7,4 C 16,2 C 9,7 km/h (2 Bft) 95,74 %
10.07.2019 09:34 15,9 C 21,7 C 23,9 C 57 % 1017,1 hPa 0,0 l/m 5,1 km/h (1 Bft) W-NW 291 2 min 0,000 mm 1,9 UV-I 457 W/m 7,4 C 15,9 C 11,3 km/h (2 Bft) 98,11 %
10.07.2019 09:36 15,9 C 21,7 C 23,3 C 58 % 1017,1 hPa 0,0 l/m 3,1 km/h (1 Bft) NW 309 0 min 0,000 mm 1,7 UV-I 318 W/m 7,6 C 15,9 C 4,8 km/h (1 Bft) 97,87 %
10.07.2019 09:38 15,8 C 22,2 C 23,9 C 58 % 1017,1 hPa 0,0 l/m 4,8 km/h (1 Bft) W 280 0 min 0,000 mm 2,1 UV-I 343 W/m 7,6 C 15,8 C 8,0 km/h (2 Bft) 97,87 %
10.07.2019 09:40 16,0 C 22,2 C 26,7 C 58 % 1017,0 hPa 0,0 l/m 4,6 km/h (1 Bft) SW 234 2 min 0,000 mm 2,3 UV-I 667 W/m 7,7 C 16,0 C 11,3 km/h (2 Bft) 97,87 %
10.07.2019 09:42 16,2 C 22,2 C 26,7 C 57 % 1017,1 hPa 0,0 l/m 5,5 km/h (1 Bft) NO 49 2 min 0,000 mm 2,4 UV-I 703 W/m 7,7 C 16,2 C 9,7 km/h (2 Bft) 97,73 %
10.07.2019 09:44 16,4 C 22,2 C 26,7 C 58 % 1017,1 hPa 0,0 l/m 6,5 km/h (2 Bft) NW 307 2 min 0,000 mm 2,4 UV-I 710 W/m 8,1 C 16,4 C 9,7 km/h (2 Bft) 97,87 %
10.07.2019 09:46 16,6 C 22,2 C 27,8 C 58 % 1017,1 hPa 0,0 l/m 4,4 km/h (1 Bft) W 274 2 min 0,000 mm 2,5 UV-I 718 W/m 8,3 C 16,6 C 9,7 km/h (2 Bft) 100,00 %
10.07.2019 09:48 16,5 C 22,2 C 27,8 C 55 % 1017,1 hPa 0,0 l/m 3,5 km/h (1 Bft) W-NW 302 2 min 0,000 mm 2,5 UV-I 703 W/m 7,4 C 16,5 C 9,7 km/h (2 Bft) 100,00 %
10.07.2019 09:50 16,5 C 22,2 C 27,8 C 56 % 1017,0 hPa 0,0 l/m 3,4 km/h (1 Bft) W-NW 297 2 min 0,000 mm 2,3 UV-I 706 W/m 7,7 C 16,5 C 6,4 km/h (2 Bft) 100,00 %
10.07.2019 09:52 16,6 C 22,2 C 28,3 C 56 % 1017,0 hPa 0,0 l/m 8,0 km/h (2 Bft) W-SW 242 2 min 0,000 mm 2,6 UV-I 729 W/m 7,8 C 15,8 C 12,9 km/h (3 Bft) 100,00 %
10.07.2019 09:54 16,7 C 22,2 C 28,3 C 56 % 1017,0 hPa 0,0 l/m 10,6 km/h (2 Bft) W-SW 252 2 min 0,000 mm 2,7 UV-I 753 W/m 7,9 C 14,8 C 16,1 km/h (3 Bft) 100,00 %
10.07.2019 09:56 16,7 C 22,2 C 28,3 C 54 % 1017,0 hPa 0,0 l/m 5,0 km/h (1 Bft) W 261 2 min 0,000 mm 2,7 UV-I 761 W/m 7,3 C 16,7 C 9,7 km/h (2 Bft) 98,00 %
10.07.2019 09:58 16,7 C 22,2 C 28,9 C 55 % 1017,0 hPa 0,0 l/m 5,3 km/h (1 Bft) W-NW 294 2 min 0,000 mm 2,8 UV-I 762 W/m 7,6 C 16,7 C 12,9 km/h (3 Bft) 95,74 %
10.07.2019 10:00 16,8 C 22,2 C 28,9 C 55 % 1017,0 hPa 0,0 l/m 5,8 km/h (2 Bft) NW 320 2 min 0,330 mm 2,8 UV-I 753 W/m 7,7 C 16,8 C 9,7 km/h (2 Bft) 96,00 %
10.07.2019 10:02 16,9 C 22,2 C 29,4 C 55 % 1017,0 hPa 0,0 l/m 2,5 km/h (1 Bft) N-NO 22 2 min 0,000 mm 2,9 UV-I 761 W/m 7,8 C 16,9 C 6,4 km/h (2 Bft) 97,87 %
10.07.2019 10:04 16,9 C 22,2 C 28,9 C 56 % 1017,0 hPa 0,0 l/m 6,7 km/h (2 Bft) W 280 2 min 0,000 mm 3,0 UV-I 769 W/m 8,1 C 16,8 C 14,5 km/h (3 Bft) 95,74 %
10.07.2019 10:06 17,0 C 22,2 C 28,9 C 56 % 1017,0 hPa 0,0 l/m 5,9 km/h (2 Bft) NW 314 2 min 0,000 mm 3,0 UV-I 769 W/m 8,2 C 17,0 C 14,5 km/h (3 Bft) 97,87 %
10.07.2019 10:08 16,9 C 22,2 C 28,3 C 54 % 1016,9 hPa 0,0 l/m 5,3 km/h (1 Bft) W-NW 284 2 min 0,000 mm 2,9 UV-I 766 W/m 7,5 C 16,9 C 11,3 km/h (2 Bft) 97,37 %
10.07.2019 10:10 16,9 C 22,2 C 28,9 C 56 % 1016,9 hPa 0,0 l/m 4,9 km/h (1 Bft) W-SW 242 2 min 0,000 mm 2,1 UV-I 756 W/m 8,1 C 16,9 C 9,7 km/h (2 Bft) 98,00 %
10.07.2019 10:12 17,1 C 22,2 C 28,9 C 55 % 1016,9 hPa 0,0 l/m 10,0 km/h (2 Bft) NW 305 2 min 0,000 mm 3,1 UV-I 778 W/m 8,0 C 15,4 C 14,5 km/h (3 Bft) 96,00 %
10.07.2019 10:14 17,2 C 22,2 C 29,4 C 55 % 1016,9 hPa 0,0 l/m 7,4 km/h (2 Bft) SW 214 2 min 0,000 mm 3,1 UV-I 789 W/m 8,1 C 16,7 C 12,9 km/h (3 Bft) 97,87 %
10.07.2019 10:16 17,2 C 22,2 C 29,4 C 52 % 1016,8 hPa 0,0 l/m 7,5 km/h (2 Bft) NW 320 2 min 0,000 mm 3,1 UV-I 793 W/m 7,3 C 16,7 C 14,5 km/h (3 Bft) 95,74 %
10.07.2019 10:18 17,2 C 22,2 C 29,4 C 53 % 1016,9 hPa 0,0 l/m 5,2 km/h (1 Bft) NW 325 2 min 0,000 mm 3,1 UV-I 791 W/m 7,5 C 17,2 C 9,7 km/h (2 Bft) 95,74 %
10.07.2019 10:20 17,4 C 22,2 C 30,0 C 54 % 1016,9 hPa 0,0 l/m 5,1 km/h (1 Bft) W 263 2 min 0,000 mm 3,3 UV-I 812 W/m 8,0 C 17,4 C 11,3 km/h (2 Bft) 97,37 %
10.07.2019 10:22 17,4 C 22,2 C 28,9 C 52 % 1016,9 hPa 0,0 l/m 7,6 km/h (2 Bft) W-NW 283 2 min 0,000 mm 2,8 UV-I 823 W/m 7,4 C 16,8 C 14,5 km/h (3 Bft) 98,00 %
10.07.2019 10:24 17,3 C 22,2 C 25,0 C 53 % 1016,9 hPa 0,0 l/m 10,3 km/h (2 Bft) W-SW 243 0 min 0,000 mm 2,1 UV-I 397 W/m 7,6 C 15,5 C 17,7 km/h (3 Bft) 95,74 %
10.07.2019 10:26 17,1 C 22,2 C 23,9 C 53 % 1016,9 hPa 0,0 l/m 11,8 km/h (2 Bft) W 276 0 min 0,000 mm 2,5 UV-I 290 W/m 7,4 C 14,8 C 19,3 km/h (3 Bft) 95,74 %
10.07.2019 10:28 16,9 C 22,2 C 26,7 C 54 % 1016,9 hPa 0,0 l/m 7,3 km/h (2 Bft) W 277 2 min 0,000 mm 3,3 UV-I 665 W/m 7,5 C 16,4 C 14,5 km/h (3 Bft) 100,00 %
10.07.2019 10:30 17,2 C 22,2 C 28,9 C 55 % 1016,9 hPa 0,0 l/m 6,4 km/h (2 Bft) W-SW 247 2 min 0,000 mm 3,5 UV-I 876 W/m 8,1 C 17,2 C 11,3 km/h (2 Bft) 100,00 %
10.07.2019 10:32 17,6 C 22,2 C 30,0 C 53 % 1016,8 hPa 0,0 l/m 5,2 km/h (1 Bft) N-NW 329 2 min 0,000 mm 3,5 UV-I 880 W/m 7,9 C 17,6 C 12,9 km/h (3 Bft) 97,87 %
10.07.2019 10:34 17,7 C 22,2 C 29,4 C 53 % 1016,9 hPa 0,0 l/m 4,1 km/h (1 Bft) NW 313 2 min 0,000 mm 2,7 UV-I 889 W/m 8,0 C 17,7 C 8,0 km/h (2 Bft) 100,00 %
10.07.2019 10:36 17,8 C 22,2 C 29,4 C 54 % 1016,9 hPa 0,0 l/m 6,6 km/h (2 Bft) SW 215 2 min 0,000 mm 3,4 UV-I 889 W/m 8,4 C 17,7 C 11,3 km/h (2 Bft) 100,00 %
10.07.2019 10:38 17,8 C 22,2 C 26,1 C 52 % 1016,9 hPa 0,0 l/m 9,2 km/h (2 Bft) W 279 2 min 0,000 mm 2,6 UV-I 630 W/m 7,8 C 16,5 C 14,5 km/h (3 Bft) 100,00 %
10.07.2019 10:40 17,6 C 22,2 C 25,0 C 53 % 1016,9 hPa 0,0 l/m 9,7 km/h (2 Bft) W-SW 250 0 min 0,000 mm 2,6 UV-I 301 W/m 7,9 C 16,1 C 17,7 km/h (3 Bft) 97,14 %
10.07.2019 10:42 17,5 C 22,2 C 27,2 C 52 % 1016,9 hPa 0,0 l/m 7,4 km/h (2 Bft) NW 317 2 min 0,000 mm 3,7 UV-I 475 W/m 7,5 C 17,0 C 16,1 km/h (3 Bft) 100,00 %
10.07.2019 10:44 17,7 C 22,2 C 27,8 C 51 % 1016,9 hPa 0,0 l/m 10,0 km/h (2 Bft) W-NW 284 2 min 0,000 mm 3,2 UV-I 939 W/m 7,4 C 16,1 C 19,3 km/h (3 Bft) 100,00 %
10.07.2019 10:46 17,5 C 22,2 C 28,9 C 49 % 1017,0 hPa 0,0 l/m 3,8 km/h (1 Bft) W 271 2 min 0,000 mm 3,8 UV-I 930 W/m 6,7 C 17,5 C 6,4 km/h (2 Bft) 98,00 %
10.07.2019 10:48 17,7 C 22,2 C 31,1 C 53 % 1016,9 hPa 0,0 l/m 6,6 km/h (2 Bft) N-NW 339 2 min 0,000 mm 3,9 UV-I 957 W/m 8,0 C 17,6 C 14,5 km/h (3 Bft) 97,87 %
10.07.2019 10:50 17,9 C 22,2 C 28,9 C 52 % 1016,9 hPa 0,0 l/m 4,0 km/h (1 Bft) N-NW 344 2 min 0,000 mm 2,6 UV-I 685 W/m 7,9 C 17,9 C 8,0 km/h (2 Bft) 95,74 %
10.07.2019 10:52 17,8 C 22,2 C 26,1 C 51 % 1016,9 hPa 0,0 l/m 5,0 km/h (1 Bft) W 273 0 min 0,000 mm 2,2 UV-I 287 W/m 7,5 C 17,8 C 12,9 km/h (3 Bft) 95,74 %
10.07.2019 10:54 17,6 C 22,2 C 24,4 C 48 % 1016,9 hPa 0,0 l/m 4,5 km/h (1 Bft) W-NW 284 0 min 0,000 mm 2,0 UV-I 335 W/m 6,5 C 17,6 C 9,7 km/h (2 Bft) 95,74 %
10.07.2019 10:56 17,3 C 22,2 C 22,8 C 49 % 1016,9 hPa 0,0 l/m 5,5 km/h (1 Bft) N-NW 334 0 min 0,000 mm 1,7 UV-I 339 W/m 6,5 C 17,3 C 11,3 km/h (2 Bft) 95,74 %
10.07.2019 10:58 17,2 C 22,2 C 22,2 C 49 % 1016,9 hPa 0,0 l/m 3,4 km/h (1 Bft) NW 323 0 min 0,000 mm 1,5 UV-I 257 W/m 6,4 C 17,2 C 6,4 km/h (2 Bft) 95,74 %
10.07.2019 11:00 17,1 C 22,2 C 21,1 C 51 % 1016,9 hPa 0,0 l/m 4,6 km/h (1 Bft) W 259 0 min 0,381 mm 1,5 UV-I 257 W/m 6,9 C 17,1 C 6,4 km/h (2 Bft) 96,00 %
10.07.2019 11:02 17,0 C 22,2 C 20,6 C 52 % 1016,9 hPa 0,0 l/m 10,6 km/h (2 Bft) W-SW 237 0 min 0,000 mm 1,5 UV-I 245 W/m 7,1 C 15,1 C 16,1 km/h (3 Bft) 95,74 %
10.07.2019 11:04 16,9 C 22,2 C 20,0 C 53 % 1016,9 hPa 0,0 l/m 9,4 km/h (2 Bft) W 277 0 min 0,000 mm 1,5 UV-I 217 W/m 7,3 C 15,5 C 17,7 km/h (3 Bft) 91,49 %
10.07.2019 11:06 16,8 C 22,2 C 19,4 C 53 % 1016,9 hPa 0,0 l/m 2,6 km/h (1 Bft) W 276 0 min 0,000 mm 1,6 UV-I 200 W/m 7,2 C 16,8 C 4,8 km/h (1 Bft) 94,44 %
10.07.2019 11:08 16,8 C 22,2 C 18,9 C 55 % 1016,9 hPa 0,0 l/m 4,7 km/h (1 Bft) SW 232 0 min 0,000 mm 1,8 UV-I 184 W/m 7,7 C 16,8 C 9,7 km/h (2 Bft) 94,00 %
10.07.2019 11:10 16,8 C 22,2 C 20,0 C 55 % 1016,9 hPa 0,0 l/m 4,1 km/h (1 Bft) N-NW 342 0 min 0,000 mm 2,4 UV-I 197 W/m 7,7 C 16,8 C 6,4 km/h (2 Bft) 96,23 %
10.07.2019 11:12 17,2 C 22,2 C 24,4 C 57 % 1016,9 hPa 0,0 l/m 5,7 km/h (1 Bft) W 265 2 min 0,000 mm 4,1 UV-I 736 W/m 8,6 C 17,2 C 12,9 km/h (3 Bft) 97,87 %
10.07.2019 11:14 17,4 C 22,2 C 27,2 C 54 % 1016,9 hPa 0,0 l/m 10,2 km/h (2 Bft) W 275 2 min 0,000 mm 4,4 UV-I 933 W/m 8,0 C 15,7 C 16,1 km/h (3 Bft) 95,74 %
10.07.2019 11:16 17,7 C 22,2 C 28,9 C 50 % 1016,9 hPa 0,0 l/m 8,4 km/h (2 Bft) W 271 2 min 0,000 mm 4,5 UV-I 958 W/m 7,1 C 16,8 C 14,5 km/h (3 Bft) 96,00 %
10.07.2019 11:18 17,9 C 22,2 C 29,4 C 49 % 1016,9 hPa 0,0 l/m 9,8 km/h (2 Bft) W-SW 239 2 min 0,000 mm 4,7 UV-I 1012 W/m 7,0 C 16,4 C 14,5 km/h (3 Bft) 95,65 %
10.07.2019 11:20 18,3 C 22,2 C 31,1 C 46 % 1016,8 hPa 0,0 l/m 10,7 km/h (2 Bft) W 259 2 min 0,000 mm 4,9 UV-I 1103 W/m 6,5 C 16,5 C 19,3 km/h (3 Bft) 98,39 %
10.07.2019 11:22 18,6 C 22,2 C 30,6 C 46 % 1016,9 hPa 0,0 l/m 7,5 km/h (2 Bft) W-SW 242 2 min 0,000 mm 4,3 UV-I 1024 W/m 6,8 C 18,1 C 16,1 km/h (3 Bft) 97,87 %
10.07.2019 11:24 18,8 C 22,2 C 32,8 C 51 % 1016,8 hPa 0,0 l/m 8,8 km/h (2 Bft) NW 309 2 min 0,000 mm 4,6 UV-I 845 W/m 8,4 C 17,8 C 14,5 km/h (3 Bft) 98,00 %
10.07.2019 11:26 19,0 C 22,2 C 32,8 C 45 % 1016,8 hPa 0,0 l/m 10,7 km/h (2 Bft) N-NW 338 2 min 0,000 mm 4,7 UV-I 829 W/m 6,8 C 17,3 C 16,1 km/h (3 Bft) 95,74 %
10.07.2019 11:28 18,8 C 22,2 C 29,4 C 44 % 1016,8 hPa 0,0 l/m 9,2 km/h (2 Bft) SW 233 2 min 0,000 mm 2,8 UV-I 1036 W/m 6,3 C 17,6 C 20,9 km/h (4 Bft) 95,74 %
10.07.2019 11:30 18,7 C 22,2 C 26,7 C 46 % 1016,8 hPa 0,0 l/m 16,5 km/h (3 Bft) W-SW 242 0 min 0,000 mm 2,4 UV-I 413 W/m 6,8 C 15,3 C 24,1 km/h (4 Bft) 97,87 %
10.07.2019 11:32 18,3 C 22,2 C 24,4 C 47 % 1016,9 hPa 0,0 l/m 14,0 km/h (3 Bft) W 276 0 min 0,000 mm 2,2 UV-I 371 W/m 6,8 C 15,5 C 17,7 km/h (3 Bft) 95,12 %
10.07.2019 11:34 18,0 C 22,2 C 23,3 C 46 % 1016,9 hPa 0,0 l/m 12,3 km/h (3 Bft) W-SW 257 0 min 0,000 mm 2,3 UV-I 341 W/m 6,2 C 15,6 C 19,3 km/h (3 Bft) 94,00 %
10.07.2019 11:36 17,8 C 22,2 C 22,8 C 48 % 1016,9 hPa 0,0 l/m 9,2 km/h (2 Bft) W-NW 296 0 min 0,000 mm 2,4 UV-I 361 W/m 6,6 C 16,5 C 16,1 km/h (3 Bft) 93,62 %
10.07.2019 11:38 17,8 C 22,2 C 22,8 C 48 % 1016,9 hPa 0,0 l/m 4,0 km/h (1 Bft) W 267 0 min 0,000 mm 2,5 UV-I 380 W/m 6,6 C 17,8 C 6,4 km/h (2 Bft) 97,87 %
10.07.2019 11:40 17,7 C 22,2 C 22,8 C 49 % 1016,9 hPa 0,0 l/m 4,4 km/h (1 Bft) W 267 0 min 0,000 mm 2,6 UV-I 397 W/m 6,9 C 17,7 C 9,7 km/h (2 Bft) 97,87 %
10.07.2019 11:42 17,7 C 22,2 C 22,8 C 48 % 1016,9 hPa 0,0 l/m 8,1 km/h (2 Bft) N 355 0 min 0,000 mm 2,7 UV-I 418 W/m 6,6 C 16,9 C 17,7 km/h (3 Bft) 93,62 %
10.07.2019 11:44 17,7 C 22,2 C 24,4 C 48 % 1016,9 hPa 0,0 l/m 4,1 km/h (1 Bft) NW 322 2 min 0,000 mm 2,9 UV-I 466 W/m 6,6 C 17,7 C 9,7 km/h (2 Bft) 97,87 %
10.07.2019 11:46 17,8 C 22,2 C 23,9 C 47 % 1016,8 hPa 0,0 l/m 9,0 km/h (2 Bft) SW 221 0 min 0,000 mm 2,4 UV-I 396 W/m 6,3 C 16,6 C 17,7 km/h (3 Bft) 91,49 %
10.07.2019 11:48 17,9 C 22,2 C 22,8 C 47 % 1016,9 hPa 0,0 l/m 9,9 km/h (2 Bft) W-SW 256 0 min 0,000 mm 2,3 UV-I 328 W/m 6,4 C 16,4 C 14,5 km/h (3 Bft) 96,00 %
10.07.2019 11:50 17,9 C 22,2 C 22,2 C 49 % 1016,9 hPa 0,0 l/m 7,7 km/h (2 Bft) N-NW 331 0 min 0,000 mm 2,3 UV-I 305 W/m 7,0 C 17,3 C 19,3 km/h (3 Bft) 93,75 %
10.07.2019 11:52 17,7 C 22,2 C 21,7 C 48 % 1016,9 hPa 0,0 l/m 6,4 km/h (2 Bft) NW 314 0 min 0,000 mm 2,5 UV-I 303 W/m 6,6 C 17,7 C 12,9 km/h (3 Bft) 95,74 %
10.07.2019 11:54 17,7 C 22,2 C 21,7 C 49 % 1016,9 hPa 0,0 l/m 6,6 km/h (2 Bft) W-NW 284 0 min 0,000 mm 2,8 UV-I 320 W/m 6,9 C 17,6 C 11,3 km/h (2 Bft) 97,87 %
10.07.2019 11:56 17,7 C 22,2 C 25,0 C 50 % 1016,9 hPa 0,0 l/m 6,6 km/h (2 Bft) N-NW 346 0 min 0,000 mm 3,9 UV-I 384 W/m 7,1 C 17,6 C 11,3 km/h (2 Bft) 97,87 %
10.07.2019 11:58 17,9 C 22,2 C 27,2 C 51 % 1016,9 hPa 0,0 l/m 7,3 km/h (2 Bft) W 269 2 min 0,000 mm 5,2 UV-I 973 W/m 7,6 C 17,5 C 12,9 km/h (3 Bft) 95,74 %
10.07.2019 12:00 18,1 C 22,2 C 27,2 C 46 % 1016,9 hPa 0,0 l/m 4,3 km/h (1 Bft) S-SW 192 2 min 0,356 mm 3,4 UV-I 673 W/m 6,3 C 18,1 C 8,0 km/h (2 Bft) 97,37 %
10.07.2019 12:02 18,2 C 22,2 C 27,2 C 47 % 1016,8 hPa 0,0 l/m 3,4 km/h (1 Bft) NW 305 2 min 0,000 mm 3,7 UV-I 537 W/m 6,7 C 18,2 C 8,0 km/h (2 Bft) 97,87 %
10.07.2019 12:04 18,5 C 22,2 C 28,3 C 47 % 1016,9 hPa 0,0 l/m 3,6 km/h (1 Bft) NW 323 2 min 0,000 mm 3,9 UV-I 854 W/m 7,0 C 18,5 C 8,0 km/h (2 Bft) 95,74 %
10.07.2019 12:06 18,6 C 22,2 C 28,3 C 46 % 1016,8 hPa 0,0 l/m 9,0 km/h (2 Bft) N-NO 31 2 min 0,000 mm 4,1 UV-I 599 W/m 6,8 C 17,5 C 20,9 km/h (4 Bft) 97,87 %
10.07.2019 12:08 18,7 C 22,2 C 30,0 C 46 % 1016,8 hPa 0,0 l/m 8,2 km/h (2 Bft) N-NW 331 2 min 0,000 mm 5,1 UV-I 938 W/m 6,8 C 17,9 C 20,9 km/h (4 Bft) 95,74 %
10.07.2019 12:10 19,1 C 22,2 C 31,1 C 47 % 1016,8 hPa 0,0 l/m 6,0 km/h (2 Bft) N-NW 333 2 min 0,000 mm 4,5 UV-I 869 W/m 7,5 C 19,1 C 12,9 km/h (3 Bft) 97,87 %
10.07.2019 12:12 19,2 C 22,2 C 30,0 C 46 % 1016,9 hPa 0,0 l/m 5,2 km/h (1 Bft) N 5 2 min 0,000 mm 3,7 UV-I 871 W/m 7,3 C 19,2 C 11,3 km/h (2 Bft) 95,74 %
10.07.2019 12:14 19,2 C 22,2 C 30,6 C 47 % 1016,9 hPa 0,0 l/m 6,8 km/h (2 Bft) N-NW 331 2 min 0,000 mm 4,7 UV-I 1211 W/m 7,6 C 19,0 C 14,5 km/h (3 Bft) 96,00 %
10.07.2019 12:16 19,2 C 22,2 C 28,3 C 45 % 1016,8 hPa 0,0 l/m 7,1 km/h (2 Bft) NW 317 2 min 0,000 mm 3,3 UV-I 614 W/m 7,0 C 18,9 C 14,5 km/h (3 Bft) 91,49 %
10.07.2019 12:18 18,9 C 22,2 C 26,7 C 45 % 1016,9 hPa 0,0 l/m 5,6 km/h (1 Bft) W 269 0 min 0,000 mm 3,2 UV-I 392 W/m 6,7 C 18,9 C 14,5 km/h (3 Bft) 97,87 %
10.07.2019 12:20 18,7 C 22,2 C 25,0 C 45 % 1016,9 hPa 0,0 l/m 5,9 km/h (2 Bft) W-SW 255 0 min 0,000 mm 3,0 UV-I 388 W/m 6,5 C 18,7 C 12,9 km/h (3 Bft) 97,87 %
10.07.2019 12:22 18,5 C 22,2 C 24,4 C 45 % 1016,9 hPa 0,0 l/m 5,9 km/h (2 Bft) NW 309 0 min 0,000 mm 3,2 UV-I 411 W/m 6,3 C 18,5 C 12,9 km/h (3 Bft) 97,87 %
10.07.2019 12:24 18,4 C 22,2 C 28,3 C 46 % 1016,9 hPa 0,0 l/m 5,4 km/h (1 Bft) W-SW 256 0 min 0,000 mm 5,1 UV-I 459 W/m 6,6 C 18,4 C 11,3 km/h (2 Bft) 95,83 %
10.07.2019 12:26 18,7 C 22,2 C 31,1 C 46 % 1016,9 hPa 0,0 l/m 8,9 km/h (2 Bft) SW 234 2 min 0,000 mm 5,6 UV-I 1206 W/m 6,8 C 17,6 C 11,3 km/h (2 Bft) 97,87 %
10.07.2019 12:28 18,9 C 22,2 C 30,6 C 44 % 1016,9 hPa 0,0 l/m 12,7 km/h (3 Bft) W-SW 250 2 min 0,000 mm 5,2 UV-I 1139 W/m 6,4 C 16,6 C 19,3 km/h (3 Bft) 97,87 %
10.07.2019 12:30 19,3 C 22,2 C 32,8 C 47 % 1016,9 hPa 0,0 l/m 8,0 km/h (2 Bft) W-SW 240 2 min 0,000 mm 5,6 UV-I 1179 W/m 7,7 C 18,6 C 16,1 km/h (3 Bft) 95,74 %
10.07.2019 12:32 19,8 C 22,2 C 31,7 C 43 % 1016,9 hPa 0,0 l/m 6,8 km/h (2 Bft) N-NW 331 2 min 0,000 mm 4,5 UV-I 881 W/m 6,9 C 19,6 C 17,7 km/h (3 Bft) 97,87 %
10.07.2019 12:34 19,7 C 22,2 C 31,1 C 41 % 1016,8 hPa 0,0 l/m 4,2 km/h (1 Bft) W-NW 301 2 min 0,000 mm 4,1 UV-I 598 W/m 6,1 C 19,7 C 14,5 km/h (3 Bft) 93,62 %
10.07.2019 12:36 19,5 C 22,2 C 32,2 C 43 % 1016,9 hPa 0,0 l/m 10,7 km/h (2 Bft) SW 223 2 min 0,000 mm 5,6 UV-I 1112 W/m 6,6 C 17,9 C 19,3 km/h (3 Bft) 95,74 %
10.07.2019 12:38 19,4 C 22,2 C 31,1 C 41 % 1016,8 hPa 0,0 l/m 13,0 km/h (3 Bft) SW 219 2 min 0,000 mm 4,4 UV-I 1171 W/m 5,8 C 17,1 C 22,5 km/h (4 Bft) 95,74 %
10.07.2019 12:40 19,3 C 22,2 C 28,3 C 42 % 1016,8 hPa 0,0 l/m 10,3 km/h (2 Bft) W 270 2 min 0,000 mm 3,3 UV-I 891 W/m 6,1 C 17,8 C 14,5 km/h (3 Bft) 95,74 %
10.07.2019 12:42 19,1 C 22,2 C 26,1 C 43 % 1016,8 hPa 0,0 l/m 5,0 km/h (1 Bft) NO 35 0 min 0,000 mm 2,8 UV-I 319 W/m 6,2 C 19,1 C 14,5 km/h (3 Bft) 100,00 %
10.07.2019 12:44 18,9 C 22,2 C 25,0 C 47 % 1016,8 hPa 0,0 l/m 2,2 km/h (1 Bft) W-NW 301 0 min 0,000 mm 2,9 UV-I 315 W/m 7,3 C 18,9 C 6,4 km/h (2 Bft) 100,00 %
10.07.2019 12:46 18,8 C 22,2 C 24,4 C 45 % 1016,8 hPa 0,0 l/m 2,4 km/h (1 Bft) O 95 0 min 0,000 mm 3,1 UV-I 337 W/m 6,6 C 18,8 C 4,8 km/h (1 Bft) 100,00 %
10.07.2019 12:48 18,7 C 22,2 C 25,0 C 46 % 1016,8 hPa 0,0 l/m 5,7 km/h (1 Bft) W-SW 246 0 min 0,000 mm 3,6 UV-I 371 W/m 6,8 C 18,7 C 12,9 km/h (3 Bft) 95,74 %
10.07.2019 12:50 18,9 C 22,2 C 28,9 C 48 % 1016,8 hPa 0,0 l/m 3,6 km/h (1 Bft) NW 313 0 min 0,000 mm 5,5 UV-I 373 W/m 7,6 C 18,9 C 11,3 km/h (2 Bft) 100,00 %
10.07.2019 12:52 19,2 C 22,2 C 27,8 C 43 % 1016,8 hPa 0,0 l/m 6,1 km/h (2 Bft) N-NW 333 0 min 0,000 mm 3,7 UV-I 350 W/m 6,3 C 19,2 C 16,1 km/h (3 Bft) 100,00 %
10.07.2019 12:54 18,8 C 22,2 C 25,6 C 42 % 1016,8 hPa 0,0 l/m 6,3 km/h (2 Bft) W-SW 252 0 min 0,000 mm 2,9 UV-I 309 W/m 5,6 C 18,8 C 9,7 km/h (2 Bft) 100,00 %
10.07.2019 12:56 18,7 C 22,2 C 24,4 C 45 % 1016,7 hPa 0,0 l/m 3,5 km/h (1 Bft) W-SW 238 0 min 0,000 mm 2,8 UV-I 310 W/m 6,5 C 18,7 C 11,3 km/h (2 Bft) 100,00 %
10.07.2019 12:58 18,7 C 22,2 C 23,3 C 45 % 1016,8 hPa 0,0 l/m 7,1 km/h (2 Bft) NW 306 0 min 0,000 mm 3,0 UV-I 345 W/m 6,5 C 18,4 C 19,3 km/h (3 Bft) 100,00 %
10.07.2019 13:00 18,5 C 22,2 C 23,3 C 44 % 1016,8 hPa 0,0 l/m 6,4 km/h (2 Bft) W 277 0 min 0,000 mm 3,2 UV-I 375 W/m 6,0 C 18,5 C 14,5 km/h (3 Bft) 100,00 %
10.07.2019 13:02 18,4 C 22,2 C 25,6 C 46 % 1016,7 hPa 0,0 l/m 6,7 km/h (2 Bft) W-NW 285 2 min 0,432 mm 4,6 UV-I 576 W/m 6,6 C 18,3 C 14,5 km/h (3 Bft) 98,08 %
10.07.2019 13:04 18,7 C 22,2 C 28,3 C 46 % 1016,7 hPa 0,0 l/m 12,5 km/h (3 Bft) W-SW 238 2 min 0,000 mm 5,6 UV-I 1072 W/m 6,8 C 16,4 C 19,3 km/h (3 Bft) 97,92 %
10.07.2019 13:06 19,1 C 22,2 C 30,0 C 45 % 1016,7 hPa 0,0 l/m 14,6 km/h (3 Bft) W-SW 257 2 min 0,000 mm 5,6 UV-I 1045 W/m 6,9 C 16,3 C 22,5 km/h (4 Bft) 100,00 %
10.07.2019 13:08 19,5 C 22,2 C 31,7 C 44 % 1016,7 hPa 0,0 l/m 14,2 km/h (3 Bft) W-SW 257 2 min 0,000 mm 5,7 UV-I 1037 W/m 6,9 C 16,8 C 19,3 km/h (3 Bft) 100,00 %
10.07.2019 13:10 19,7 C 22,2 C 32,2 C 42 % 1016,7 hPa 0,0 l/m 15,6 km/h (3 Bft) W-SW 252 2 min 0,000 mm 5,6 UV-I 1016 W/m 6,4 C 16,7 C 20,9 km/h (4 Bft) 100,00 %
10.07.2019 13:12 19,9 C 22,2 C 32,2 C 42 % 1016,7 hPa 0,0 l/m 11,3 km/h (2 Bft) NW 307 2 min 0,000 mm 5,7 UV-I 1017 W/m 6,6 C 18,1 C 17,7 km/h (3 Bft) 100,00 %
10.07.2019 13:14 19,9 C 22,2 C 32,8 C 40 % 1016,7 hPa 0,0 l/m 4,2 km/h (1 Bft) W-SW 240 2 min 0,000 mm 5,6 UV-I 1019 W/m 5,9 C 19,9 C 11,3 km/h (2 Bft) 100,00 %
10.07.2019 13:16 20,0 C 22,2 C 33,9 C 40 % 1016,6 hPa 0,0 l/m 12,0 km/h (2 Bft) W-SW 246 2 min 0,000 mm 5,7 UV-I 1030 W/m 6,0 C 18,0 C 16,1 km/h (3 Bft) 100,00 %
10.07.2019 13:18 19,8 C 22,8 C 33,3 C 40 % 1016,6 hPa 0,0 l/m 8,2 km/h (2 Bft) NW 321 2 min 0,000 mm 5,7 UV-I 1051 W/m 5,8 C 19,1 C 14,5 km/h (3 Bft) 97,87 %
10.07.2019 13:20 19,9 C 22,2 C 31,7 C 41 % 1016,6 hPa 0,0 l/m 5,2 km/h (1 Bft) W-NW 301 2 min 0,000 mm 4,5 UV-I 1053 W/m 6,3 C 19,9 C 8,0 km/h (2 Bft) 97,37 %
10.07.2019 13:22 19,7 C 22,2 C 27,2 C 40 % 1016,6 hPa 0,0 l/m 6,3 km/h (2 Bft) W-NW 300 0 min 0,000 mm 3,3 UV-I 433 W/m 5,7 C 19,7 C 11,3 km/h (2 Bft) 100,00 %
10.07.2019 13:24 19,3 C 22,8 C 27,2 C 41 % 1016,6 hPa 0,0 l/m 9,7 km/h (2 Bft) SW 228 0 min 0,000 mm 4,3 UV-I 411 W/m 5,7 C 18,0 C 17,7 km/h (3 Bft) 100,00 %
10.07.2019 13:26 19,3 C 22,8 C 29,4 C 41 % 1016,6 hPa 0,0 l/m 10,1 km/h (2 Bft) SW 231 2 min 0,000 mm 5,7 UV-I 1058 W/m 5,7 C 17,8 C 16,1 km/h (3 Bft) 100,00 %
10.07.2019 13:28 19,6 C 22,8 C 32,2 C 42 % 1016,6 hPa 0,0 l/m 6,4 km/h (2 Bft) W 261 2 min 0,000 mm 5,7 UV-I 1051 W/m 6,3 C 19,6 C 14,5 km/h (3 Bft) 100,00 %
10.07.2019 13:30 19,6 C 22,8 C 32,2 C 40 % 1016,6 hPa 0,0 l/m 11,1 km/h (2 Bft) W 266 2 min 0,000 mm 5,7 UV-I 1032 W/m 5,6 C 17,8 C 17,7 km/h (3 Bft) 97,87 %
10.07.2019 13:32 19,8 C 22,8 C 32,8 C 43 % 1016,6 hPa 0,0 l/m 11,7 km/h (2 Bft) W-SW 249 2 min 0,000 mm 5,7 UV-I 1016 W/m 6,9 C 17,9 C 17,7 km/h (3 Bft) 100,00 %
10.07.2019 13:34 19,8 C 22,8 C 32,8 C 39 % 1016,6 hPa 0,0 l/m 7,4 km/h (2 Bft) W-SW 252 2 min 0,000 mm 5,6 UV-I 1000 W/m 5,4 C 19,4 C 14,5 km/h (3 Bft) 97,37 %
10.07.2019 13:36 19,9 C 22,8 C 33,3 C 43 % 1016,6 hPa 0,0 l/m 5,1 km/h (1 Bft) NO 46 2 min 0,000 mm 5,6 UV-I 1012 W/m 6,9 C 19,9 C 12,9 km/h (3 Bft) 97,87 %
10.07.2019 13:38 20,2 C 22,8 C 32,8 C 42 % 1016,7 hPa 0,0 l/m 7,0 km/h (2 Bft) W 268 2 min 0,000 mm 4,8 UV-I 1035 W/m 6,9 C 20,0 C 16,1 km/h (3 Bft) 95,83 %
10.07.2019 13:40 20,1 C 22,8 C 32,8 C 40 % 1016,6 hPa 0,0 l/m 9,7 km/h (2 Bft) W 281 2 min 0,000 mm 5,5 UV-I 1032 W/m 6,1 C 18,8 C 14,5 km/h (3 Bft) 95,74 %
10.07.2019 13:42 19,8 C 22,8 C 33,3 C 39 % 1016,6 hPa 0,0 l/m 9,5 km/h (2 Bft) W 259 2 min 0,000 mm 5,6 UV-I 1051 W/m 5,4 C 18,6 C 14,5 km/h (3 Bft) 97,87 %
10.07.2019 13:44 19,8 C 22,8 C 32,2 C 40 % 1016,5 hPa 0,0 l/m 5,8 km/h (2 Bft) W-NW 293 2 min 0,000 mm 4,1 UV-I 1086 W/m 5,8 C 19,8 C 11,3 km/h (2 Bft) 96,00 %
10.07.2019 13:46 19,6 C 22,8 C 29,4 C 42 % 1016,6 hPa 0,0 l/m 7,0 km/h (2 Bft) O 89 0 min 0,000 mm 3,0 UV-I 435 W/m 6,3 C 19,3 C 14,5 km/h (3 Bft) 94,00 %
10.07.2019 13:48 19,6 C 22,8 C 26,7 C 43 % 1016,6 hPa 0,0 l/m 9,0 km/h (2 Bft) W-NW 300 0 min 0,000 mm 2,9 UV-I 314 W/m 6,7 C 18,6 C 14,5 km/h (3 Bft) 95,74 %
10.07.2019 13:50 19,2 C 22,8 C 25,0 C 43 % 1016,6 hPa 0,0 l/m 4,8 km/h (1 Bft) NW 304 0 min 0,000 mm 2,9 UV-I 305 W/m 6,3 C 19,2 C 11,3 km/h (2 Bft) 94,74 %
10.07.2019 13:52 19,0 C 22,8 C 23,9 C 44 % 1016,6 hPa 0,0 l/m 8,0 km/h (2 Bft) W-SW 244 0 min 0,000 mm 3,0 UV-I 322 W/m 6,5 C 18,3 C 17,7 km/h (3 Bft) 95,74 %
10.07.2019 13:54 19,2 C 22,8 C 26,7 C 44 % 1016,6 hPa 0,0 l/m 11,5 km/h (2 Bft) W-SW 248 0 min 0,000 mm 4,4 UV-I 355 W/m 6,7 C 17,3 C 25,7 km/h (4 Bft) 95,74 %
10.07.2019 13:56 19,4 C 22,8 C 28,3 C 43 % 1016,6 hPa 0,0 l/m 17,8 km/h (3 Bft) W 271 2 min 0,000 mm 5,3 UV-I 888 W/m 6,5 C 15,9 C 27,4 km/h (4 Bft) 95,74 %
10.07.2019 13:58 19,7 C 22,8 C 30,0 C 43 % 1016,6 hPa 0,0 l/m 14,0 km/h (3 Bft) W 270 2 min 0,000 mm 4,9 UV-I 1004 W/m 6,8 C 17,1 C 24,1 km/h (4 Bft) 93,62 %
10.07.2019 14:00 19,8 C 22,8 C 31,7 C 43 % 1016,5 hPa 0,0 l/m 8,1 km/h (2 Bft) N-NW 329 2 min 0,559 mm 5,3 UV-I 980 W/m 6,9 C 19,1 C 12,9 km/h (3 Bft) 94,00 %
10.07.2019 14:02 20,2 C 22,8 C 32,8 C 45 % 1016,5 hPa 0,0 l/m 7,0 km/h (2 Bft) NW 321 2 min 0,000 mm 5,4 UV-I 970 W/m 7,9 C 20,0 C 16,1 km/h (3 Bft) 95,74 %
10.07.2019 14:04 20,3 C 22,8 C 32,2 C 45 % 1016,5 hPa 0,0 l/m 10,1 km/h (2 Bft) W 269 2 min 0,000 mm 5,2 UV-I 961 W/m 8,0 C 18,9 C 14,5 km/h (3 Bft) 94,00 %
10.07.2019 14:06 20,1 C 22,8 C 28,3 C 39 % 1016,5 hPa 0,0 l/m 8,0 km/h (2 Bft) W-SW 250 2 min 0,000 mm 3,6 UV-I 814 W/m 5,7 C 19,5 C 11,3 km/h (2 Bft) 100,00 %
10.07.2019 14:08 19,6 C 22,8 C 27,8 C 40 % 1016,5 hPa 0,0 l/m 3,4 km/h (1 Bft) NW 309 0 min 0,000 mm 4,1 UV-I 190 W/m 5,6 C 19,6 C 8,0 km/h (2 Bft) 97,87 %
10.07.2019 14:10 19,7 C 22,8 C 30,0 C 40 % 1016,5 hPa 0,0 l/m 6,0 km/h (2 Bft) W-SW 255 2 min 0,000 mm 5,0 UV-I 590 W/m 5,7 C 19,7 C 12,9 km/h (3 Bft) 97,87 %
10.07.2019 14:12 19,6 C 22,8 C 28,3 C 38 % 1016,5 hPa 0,0 l/m 7,3 km/h (2 Bft) W-SW 246 2 min 0,000 mm 4,5 UV-I 718 W/m 4,9 C 19,2 C 17,7 km/h (3 Bft) 100,00 %
10.07.2019 14:14 19,6 C 22,8 C 29,4 C 41 % 1016,4 hPa 0,0 l/m 10,7 km/h (2 Bft) W-SW 246 2 min 0,000 mm 5,0 UV-I 710 W/m 6,0 C 18,0 C 16,1 km/h (3 Bft) 97,87 %
10.07.2019 14:16 20,1 C 22,8 C 31,7 C 40 % 1016,4 hPa 0,0 l/m 8,2 km/h (2 Bft) W 272 2 min 0,000 mm 5,2 UV-I 956 W/m 6,1 C 19,4 C 12,9 km/h (3 Bft) 100,00 %
10.07.2019 14:18 20,4 C 22,8 C 32,8 C 39 % 1016,4 hPa 0,0 l/m 8,0 km/h (2 Bft) N 355 2 min 0,000 mm 5,2 UV-I 953 W/m 6,0 C 19,8 C 12,9 km/h (3 Bft) 97,87 %
10.07.2019 14:20 20,5 C 22,8 C 32,8 C 38 % 1016,4 hPa 0,0 l/m 6,9 km/h (2 Bft) N 5 2 min 0,000 mm 5,2 UV-I 945 W/m 5,7 C 20,3 C 12,9 km/h (3 Bft) 100,00 %
10.07.2019 14:22 20,3 C 22,8 C 33,3 C 38 % 1016,4 hPa 0,0 l/m 5,2 km/h (1 Bft) W-NW 294 2 min 0,000 mm 5,2 UV-I 931 W/m 5,5 C 20,3 C 9,7 km/h (2 Bft) 100,00 %
10.07.2019 14:24 20,3 C 22,8 C 32,8 C 40 % 1016,4 hPa 0,0 l/m 11,9 km/h (2 Bft) W 271 2 min 0,000 mm 5,1 UV-I 918 W/m 6,3 C 18,4 C 16,1 km/h (3 Bft) 100,00 %
10.07.2019 14:26 20,3 C 22,8 C 32,8 C 43 % 1016,4 hPa 0,0 l/m 9,8 km/h (2 Bft) N 355 2 min 0,000 mm 5,0 UV-I 910 W/m 7,3 C 19,0 C 16,1 km/h (3 Bft) 100,00 %
10.07.2019 14:28 20,6 C 22,8 C 32,8 C 41 % 1016,3 hPa 0,0 l/m 6,6 km/h (2 Bft) W-SW 247 2 min 0,000 mm 5,1 UV-I 912 W/m 6,9 C 20,5 C 14,5 km/h (3 Bft) 100,00 %
10.07.2019 14:30 20,8 C 22,8 C 33,3 C 42 % 1016,3 hPa 0,0 l/m 12,2 km/h (2 Bft) W 273 2 min 0,000 mm 5,0 UV-I 911 W/m 7,4 C 18,9 C 19,3 km/h (3 Bft) 100,00 %
10.07.2019 14:32 20,8 C 22,8 C 33,3 C 39 % 1016,4 hPa 0,0 l/m 13,6 km/h (3 Bft) W 278 2 min 0,000 mm 5,1 UV-I 921 W/m 6,3 C 18,5 C 20,9 km/h (4 Bft) 100,00 %
10.07.2019 14:34 20,8 C 22,8 C 32,2 C 38 % 1016,4 hPa 0,0 l/m 15,9 km/h (3 Bft) W 275 2 min 0,000 mm 5,1 UV-I 940 W/m 6,0 C 18,0 C 25,7 km/h (4 Bft) 97,87 %
10.07.2019 14:36 20,8 C 22,8 C 32,8 C 39 % 1016,4 hPa 0,0 l/m 10,2 km/h (2 Bft) W 271 2 min 0,000 mm 5,1 UV-I 953 W/m 6,3 C 19,5 C 20,9 km/h (4 Bft) 100,00 %
10.07.2019 14:38 20,8 C 22,8 C 33,3 C 40 % 1016,3 hPa 0,0 l/m 13,9 km/h (3 Bft) W 269 2 min 0,000 mm 5,0 UV-I 965 W/m 6,7 C 18,5 C 22,5 km/h (4 Bft) 94,29 %
10.07.2019 14:40 20,8 C 22,8 C 33,3 C 37 % 1016,4 hPa 0,0 l/m 9,8 km/h (2 Bft) W-SW 257 2 min 0,000 mm 5,0 UV-I 954 W/m 5,6 C 19,6 C 14,5 km/h (3 Bft) 100,00 %
10.07.2019 14:42 20,7 C 22,8 C 33,3 C 38 % 1016,3 hPa 0,0 l/m 11,1 km/h (2 Bft) SW 229 2 min 0,000 mm 4,9 UV-I 931 W/m 5,9 C 19,1 C 22,5 km/h (4 Bft) 100,00 %
10.07.2019 14:44 20,6 C 22,8 C 33,3 C 36 % 1016,3 hPa 0,0 l/m 9,6 km/h (2 Bft) NW 319 2 min 0,000 mm 4,9 UV-I 911 W/m 5,0 C 19,4 C 16,1 km/h (3 Bft) 100,00 %
10.07.2019 14:46 20,4 C 22,8 C 33,3 C 38 % 1016,2 hPa 0,0 l/m 6,2 km/h (2 Bft) S 173 2 min 0,000 mm 4,8 UV-I 898 W/m 5,6 C 20,4 C 12,9 km/h (3 Bft) 100,00 %
10.07.2019 14:48 20,4 C 22,8 C 33,9 C 37 % 1016,2 hPa 0,0 l/m 5,2 km/h (1 Bft) W-NW 289 2 min 0,000 mm 4,8 UV-I 905 W/m 5,2 C 20,4 C 8,0 km/h (2 Bft) 97,87 %
10.07.2019 14:50 20,4 C 22,8 C 32,8 C 38 % 1016,1 hPa 0,0 l/m 11,5 km/h (2 Bft) W-SW 238 2 min 0,000 mm 4,8 UV-I 908 W/m 5,6 C 18,6 C 24,1 km/h (4 Bft) 100,00 %
10.07.2019 14:52 20,6 C 22,8 C 31,7 C 37 % 1016,1 hPa 0,0 l/m 18,7 km/h (3 Bft) SW 229 2 min 0,000 mm 4,8 UV-I 909 W/m 5,4 C 17,2 C 27,4 km/h (4 Bft) 100,00 %
10.07.2019 14:54 20,7 C 22,8 C 31,1 C 37 % 1016,2 hPa 0,0 l/m 17,8 km/h (3 Bft) W-SW 250 2 min 0,000 mm 4,7 UV-I 895 W/m 5,5 C 17,5 C 29,0 km/h (5 Bft) 100,00 %
10.07.2019 14:56 20,8 C 22,8 C 31,1 C 39 % 1016,2 hPa 0,0 l/m 15,5 km/h (3 Bft) W 269 2 min 0,000 mm 4,7 UV-I 887 W/m 6,3 C 18,1 C 24,1 km/h (4 Bft) 97,87 %
10.07.2019 14:58 20,8 C 22,8 C 31,7 C 38 % 1016,2 hPa 0,0 l/m 12,3 km/h (3 Bft) W-NW 294 2 min 0,000 mm 4,7 UV-I 885 W/m 6,0 C 18,9 C 19,3 km/h (3 Bft) 97,92 %
10.07.2019 15:00 20,8 C 22,8 C 32,2 C 37 % 1016,2 hPa 0,0 l/m 8,4 km/h (2 Bft) W 277 2 min 0,584 mm 4,7 UV-I 890 W/m 5,6 C 20,0 C 14,5 km/h (3 Bft) 97,87 %
10.07.2019 15:02 20,7 C 22,8 C 30,0 C 37 % 1016,2 hPa 0,0 l/m 10,9 km/h (2 Bft) W 273 2 min 0,000 mm 4,0 UV-I 909 W/m 5,5 C 19,1 C 19,3 km/h (3 Bft) 95,74 %
10.07.2019 15:04 20,4 C 22,8 C 27,8 C 38 % 1016,1 hPa 0,0 l/m 11,2 km/h (2 Bft) W 267 0 min 0,000 mm 3,5 UV-I 269 W/m 5,6 C 18,7 C 14,5 km/h (3 Bft) 95,74 %
10.07.2019 15:06 20,6 C 22,8 C 30,0 C 40 % 1016,1 hPa 0,0 l/m 11,4 km/h (2 Bft) W 277 2 min 0,000 mm 4,5 UV-I 469 W/m 6,5 C 18,9 C 17,7 km/h (3 Bft) 100,00 %
10.07.2019 15:08 20,7 C 22,8 C 31,1 C 38 % 1016,0 hPa 0,0 l/m 9,0 km/h (2 Bft) NW 313 2 min 0,000 mm 4,5 UV-I 891 W/m 5,9 C 19,7 C 17,7 km/h (3 Bft) 97,87 %
10.07.2019 15:10 20,8 C 22,8 C 32,2 C 40 % 1016,0 hPa 0,0 l/m 7,7 km/h (2 Bft) W-NW 292 2 min 0,000 mm 4,5 UV-I 865 W/m 6,7 C 20,3 C 12,9 km/h (3 Bft) 100,00 %
10.07.2019 15:12 20,8 C 22,8 C 32,2 C 38 % 1016,0 hPa 0,0 l/m 7,6 km/h (2 Bft) N 9 2 min 0,000 mm 4,4 UV-I 856 W/m 6,0 C 20,3 C 12,9 km/h (3 Bft) 95,74 %
10.07.2019 15:14 20,9 C 22,8 C 32,2 C 41 % 1016,0 hPa 0,0 l/m 6,1 km/h (2 Bft) W-SW 249 2 min 0,000 mm 3,8 UV-I 829 W/m 7,2 C 20,9 C 12,9 km/h (3 Bft) 96,00 %
10.07.2019 15:16 20,9 C 22,8 C 30,0 C 39 % 1016,0 hPa 0,0 l/m 6,8 km/h (2 Bft) W-SW 258 0 min 0,000 mm 2,9 UV-I 421 W/m 6,4 C 20,8 C 12,9 km/h (3 Bft) 98,00 %
10.07.2019 15:18 21,0 C 22,8 C 31,7 C 37 % 1016,0 hPa 0,0 l/m 9,8 km/h (2 Bft) SW 229 2 min 0,000 mm 4,3 UV-I 682 W/m 5,8 C 19,8 C 20,9 km/h (4 Bft) 97,87 %
10.07.2019 15:20 21,1 C 22,8 C 31,7 C 38 % 1016,0 hPa 0,0 l/m 14,5 km/h (3 Bft) S-SW 206 2 min 0,000 mm 4,3 UV-I 849 W/m 6,2 C 18,7 C 24,1 km/h (4 Bft) 97,56 %
10.07.2019 15:22 20,9 C 22,8 C 28,9 C 37 % 1015,9 hPa 0,0 l/m 11,1 km/h (2 Bft) W 277 2 min 0,000 mm 3,2 UV-I 714 W/m 5,7 C 19,3 C 20,9 km/h (4 Bft) 97,87 %
10.07.2019 15:24 20,6 C 22,8 C 26,1 C 38 % 1015,9 hPa 0,0 l/m 8,7 km/h (2 Bft) W 273 0 min 0,000 mm 2,4 UV-I 148 W/m 5,8 C 19,7 C 14,5 km/h (3 Bft) 93,62 %
10.07.2019 15:26 20,5 C 22,8 C 27,8 C 42 % 1015,9 hPa 0,0 l/m 6,8 km/h (2 Bft) NW 312 0 min 0,000 mm 3,4 UV-I 192 W/m 7,1 C 20,3 C 14,5 km/h (3 Bft) 94,00 %
10.07.2019 15:28 20,7 C 22,8 C 30,6 C 40 % 1016,0 hPa 0,0 l/m 9,4 km/h (2 Bft) SW 234 2 min 0,000 mm 4,1 UV-I 864 W/m 6,6 C 19,6 C 16,1 km/h (3 Bft) 93,62 %
10.07.2019 15:30 20,7 C 22,8 C 27,8 C 38 % 1015,9 hPa 0,0 l/m 10,9 km/h (2 Bft) W 271 2 min 0,000 mm 3,0 UV-I 608 W/m 5,9 C 19,1 C 19,3 km/h (3 Bft) 92,00 %
10.07.2019 15:32 20,2 C 22,8 C 25,6 C 40 % 1015,9 hPa 0,0 l/m 7,1 km/h (2 Bft) W-NW 294 0 min 0,000 mm 2,4 UV-I 240 W/m 6,2 C 19,9 C 14,5 km/h (3 Bft) 91,49 %
10.07.2019 15:34 20,1 C 22,8 C 26,1 C 40 % 1015,9 hPa 0,0 l/m 9,5 km/h (2 Bft) W-NW 300 0 min 0,000 mm 3,1 UV-I 276 W/m 6,1 C 18,9 C 17,7 km/h (3 Bft) 91,49 %
10.07.2019 15:36 20,2 C 22,8 C 28,3 C 44 % 1015,9 hPa 0,0 l/m 7,7 km/h (2 Bft) NW 304 2 min 0,000 mm 3,5 UV-I 491 W/m 7,6 C 19,7 C 12,9 km/h (3 Bft) 93,75 %
10.07.2019 15:38 20,8 C 22,8 C 31,1 C 43 % 1015,9 hPa 0,0 l/m 6,4 km/h (2 Bft) SW 220 2 min 0,000 mm 4,0 UV-I 856 W/m 7,8 C 20,8 C 11,3 km/h (2 Bft) 95,74 %
10.07.2019 15:40 21,2 C 23,3 C 31,1 C 38 % 1015,9 hPa 0,0 l/m 13,0 km/h (3 Bft) W-SW 252 2 min 0,000 mm 3,9 UV-I 816 W/m 6,3 C 19,2 C 20,9 km/h (4 Bft) 95,74 %
10.07.2019 15:42 21,2 C 22,8 C 31,1 C 36 % 1015,9 hPa 0,0 l/m 12,7 km/h (3 Bft) S-SW 209 2 min 0,000 mm 3,8 UV-I 790 W/m 5,5 C 19,2 C 22,5 km/h (4 Bft) 95,74 %
10.07.2019 15:44 21,3 C 23,3 C 32,2 C 38 % 1015,9 hPa 0,0 l/m 8,5 km/h (2 Bft) W 265 2 min 0,000 mm 3,8 UV-I 780 W/m 6,4 C 20,5 C 14,5 km/h (3 Bft) 87,23 %
10.07.2019 15:46 21,5 C 23,3 C 33,3 C 39 % 1015,8 hPa 0,0 l/m 5,9 km/h (2 Bft) W 274 2 min 0,000 mm 3,7 UV-I 775 W/m 7,0 C 21,5 C 12,9 km/h (3 Bft) 97,87 %
10.07.2019 15:48 21,6 C 23,3 C 33,3 C 37 % 1015,9 hPa 0,0 l/m 4,9 km/h (1 Bft) W-NW 297 2 min 0,000 mm 3,7 UV-I 779 W/m 6,3 C 21,6 C 11,3 km/h (2 Bft) 95,74 %
10.07.2019 15:50 21,4 C 23,3 C 33,3 C 38 % 1015,8 hPa 0,0 l/m 8,2 km/h (2 Bft) W 277 2 min 0,000 mm 3,7 UV-I 784 W/m 6,5 C 20,8 C 16,1 km/h (3 Bft) 95,74 %
10.07.2019 15:52 21,4 C 23,3 C 32,8 C 38 % 1015,8 hPa 0,0 l/m 11,1 km/h (2 Bft) W-SW 250 2 min 0,000 mm 3,6 UV-I 784 W/m 6,5 C 19,9 C 17,7 km/h (3 Bft) 94,29 %
10.07.2019 15:54 21,4 C 23,3 C 29,4 C 37 % 1015,8 hPa 0,0 l/m 11,2 km/h (2 Bft) W 271 2 min 0,000 mm 2,6 UV-I 539 W/m 6,1 C 19,9 C 27,4 km/h (4 Bft) 95,74 %
10.07.2019 15:56 21,2 C 23,3 C 27,2 C 39 % 1015,8 hPa 0,0 l/m 6,5 km/h (2 Bft) W 260 0 min 0,000 mm 2,5 UV-I 215 W/m 6,7 C 21,2 C 12,9 km/h (3 Bft) 93,62 %
10.07.2019 15:58 21,2 C 23,3 C 30,0 C 40 % 1015,8 hPa 0,0 l/m 6,2 km/h (2 Bft) S-SW 192 0 min 0,000 mm 3,3 UV-I 372 W/m 7,1 C 21,2 C 12,9 km/h (3 Bft) 94,00 %
10.07.2019 16:00 21,3 C 23,3 C 31,7 C 39 % 1015,8 hPa 0,0 l/m 5,0 km/h (1 Bft) W-SW 256 2 min 0,000 mm 3,5 UV-I 822 W/m 6,8 C 21,3 C 16,1 km/h (3 Bft) 97,87 %
10.07.2019 16:02 21,7 C 23,3 C 32,2 C 39 % 1015,8 hPa 0,0 l/m 7,2 km/h (2 Bft) W-SW 252 2 min 0,457 mm 3,5 UV-I 791 W/m 7,1 C 21,4 C 16,1 km/h (3 Bft) 95,74 %
10.07.2019 16:04 21,7 C 23,3 C 32,2 C 37 % 1015,8 hPa 0,0 l/m 12,5 km/h (3 Bft) W-SW 239 2 min 0,000 mm 3,4 UV-I 771 W/m 6,4 C 19,9 C 19,3 km/h (3 Bft) 96,00 %
10.07.2019 16:06 21,7 C 23,3 C 32,2 C 37 % 1015,7 hPa 0,0 l/m 9,5 km/h (2 Bft) NW 318 2 min 0,000 mm 3,4 UV-I 768 W/m 6,4 C 20,7 C 16,1 km/h (3 Bft) 97,87 %
10.07.2019 16:08 21,8 C 23,3 C 33,3 C 41 % 1015,7 hPa 0,0 l/m 5,2 km/h (1 Bft) W-NW 285 2 min 0,000 mm 3,3 UV-I 778 W/m 8,0 C 21,8 C 9,7 km/h (2 Bft) 95,74 %
10.07.2019 16:10 22,1 C 23,3 C 33,3 C 38 % 1015,7 hPa 0,0 l/m 4,6 km/h (1 Bft) NO 42 2 min 0,000 mm 2,6 UV-I 784 W/m 7,1 C 22,1 C 9,7 km/h (2 Bft) 95,74 %
10.07.2019 16:12 21,9 C 23,3 C 30,0 C 37 % 1015,8 hPa 0,0 l/m 3,8 km/h (1 Bft) NW 315 0 min 0,000 mm 2,1 UV-I 307 W/m 6,5 C 21,9 C 8,0 km/h (2 Bft) 97,44 %
10.07.2019 16:14 21,6 C 23,3 C 31,7 C 38 % 1015,7 hPa 0,0 l/m 5,1 km/h (1 Bft) W 279 2 min 0,000 mm 3,1 UV-I 537 W/m 6,7 C 21,6 C 6,4 km/h (2 Bft) 98,08 %
10.07.2019 16:16 21,3 C 23,3 C 32,2 C 38 % 1015,7 hPa 0,0 l/m 7,7 km/h (2 Bft) W-NW 296 2 min 0,000 mm 3,0 UV-I 778 W/m 6,4 C 20,8 C 17,7 km/h (3 Bft) 98,00 %
10.07.2019 16:18 21,3 C 23,3 C 32,8 C 40 % 1015,7 hPa 0,0 l/m 6,5 km/h (2 Bft) S-SW 213 2 min 0,000 mm 2,9 UV-I 767 W/m 7,1 C 21,3 C 17,7 km/h (3 Bft) 97,87 %
10.07.2019 16:20 21,3 C 23,3 C 28,9 C 37 % 1015,7 hPa 0,0 l/m 7,8 km/h (2 Bft) W 267 2 min 0,000 mm 2,2 UV-I 663 W/m 6,0 C 20,8 C 14,5 km/h (3 Bft) 97,87 %
10.07.2019 16:22 20,9 C 23,3 C 25,6 C 38 % 1015,7 hPa 0,0 l/m 5,5 km/h (1 Bft) W-SW 258 0 min 0,000 mm 1,9 UV-I 162 W/m 6,0 C 20,9 C 12,9 km/h (3 Bft) 97,87 %
10.07.2019 16:24 20,6 C 23,3 C 24,4 C 40 % 1015,6 hPa 0,0 l/m 3,9 km/h (1 Bft) NW 315 0 min 0,000 mm 1,8 UV-I 170 W/m 6,5 C 20,6 C 6,4 km/h (2 Bft) 95,74 %
10.07.2019 16:26 20,4 C 23,3 C 26,1 C 40 % 1015,6 hPa 0,0 l/m 4,2 km/h (1 Bft) W-SW 247 0 min 0,000 mm 2,7 UV-I 176 W/m 6,3 C 20,4 C 8,0 km/h (2 Bft) 98,00 %
10.07.2019 16:28 20,7 C 23,3 C 26,7 C 40 % 1015,6 hPa 0,0 l/m 3,8 km/h (1 Bft) N-NW 335 0 min 0,000 mm 2,2 UV-I 175 W/m 6,6 C 20,7 C 9,7 km/h (2 Bft) 94,29 %
10.07.2019 16:30 20,7 C 23,3 C 25,0 C 40 % 1015,6 hPa 0,0 l/m 6,0 km/h (2 Bft) W-NW 288 0 min 0,000 mm 1,9 UV-I 165 W/m 6,6 C 20,7 C 11,3 km/h (2 Bft) 95,74 %
10.07.2019 16:32 20,6 C 23,3 C 25,0 C 40 % 1015,6 hPa 0,0 l/m 7,9 km/h (2 Bft) W-NW 293 0 min 0,000 mm 2,3 UV-I 162 W/m 6,5 C 20,0 C 16,1 km/h (3 Bft) 97,87 %
10.07.2019 16:34 20,7 C 23,3 C 27,2 C 39 % 1015,6 hPa 0,0 l/m 11,7 km/h (2 Bft) SW 223 0 min 0,000 mm 2,5 UV-I 328 W/m 6,2 C 18,9 C 19,3 km/h (3 Bft) 95,74 %
10.07.2019 16:36 20,8 C 23,3 C 28,9 C 39 % 1015,5 hPa 0,0 l/m 14,4 km/h (3 Bft) W-SW 257 2 min 0,000 mm 2,7 UV-I 677 W/m 6,3 C 18,4 C 19,3 km/h (3 Bft) 97,87 %
10.07.2019 16:38 21,1 C 23,3 C 30,0 C 39 % 1015,6 hPa 0,0 l/m 15,6 km/h (3 Bft) W-SW 240 2 min 0,000 mm 2,6 UV-I 663 W/m 6,6 C 18,5 C 24,1 km/h (4 Bft) 95,74 %
10.07.2019 16:40 21,3 C 23,3 C 31,1 C 38 % 1015,5 hPa 0,0 l/m 6,3 km/h (2 Bft) W 260 2 min 0,000 mm 2,6 UV-I 653 W/m 6,4 C 21,3 C 12,9 km/h (3 Bft) 95,74 %
10.07.2019 16:42 21,6 C 23,3 C 32,2 C 40 % 1015,5 hPa 0,0 l/m 6,7 km/h (2 Bft) W-SW 252 2 min 0,000 mm 2,5 UV-I 643 W/m 7,4 C 21,5 C 12,9 km/h (3 Bft) 95,74 %
10.07.2019 16:44 21,8 C 23,3 C 32,2 C 38 % 1015,5 hPa 0,0 l/m 9,6 km/h (2 Bft) W 281 2 min 0,000 mm 2,5 UV-I 638 W/m 6,8 C 20,7 C 17,7 km/h (3 Bft) 100,00 %
10.07.2019 16:46 21,8 C 23,3 C 32,2 C 38 % 1015,5 hPa 0,0 l/m 13,7 km/h (3 Bft) W 281 2 min 0,000 mm 2,4 UV-I 633 W/m 6,8 C 19,7 C 22,5 km/h (4 Bft) 95,74 %
10.07.2019 16:48 21,7 C 23,3 C 31,7 C 37 % 1015,5 hPa 0,0 l/m 9,2 km/h (2 Bft) W 266 2 min 0,000 mm 2,4 UV-I 638 W/m 6,4 C 20,8 C 14,5 km/h (3 Bft) 95,74 %
10.07.2019 16:50 21,7 C 23,3 C 32,2 C 38 % 1015,5 hPa 0,0 l/m 12,0 km/h (2 Bft) W 272 2 min 0,000 mm 2,4 UV-I 646 W/m 6,8 C 20,0 C 20,9 km/h (4 Bft) 93,62 %
10.07.2019 16:52 21,8 C 23,3 C 32,2 C 36 % 1015,5 hPa 0,0 l/m 14,8 km/h (3 Bft) W-SW 239 2 min 0,000 mm 2,3 UV-I 649 W/m 6,1 C 19,5 C 22,5 km/h (4 Bft) 94,00 %
10.07.2019 16:54 21,7 C 23,3 C 31,1 C 36 % 1015,5 hPa 0,0 l/m 15,1 km/h (3 Bft) W 263 2 min 0,000 mm 2,3 UV-I 643 W/m 6,0 C 19,3 C 22,5 km/h (4 Bft) 95,74 %
10.07.2019 16:56 21,6 C 23,3 C 31,1 C 37 % 1015,5 hPa 0,0 l/m 15,5 km/h (3 Bft) W 259 2 min 0,000 mm 2,3 UV-I 637 W/m 6,3 C 19,1 C 22,5 km/h (4 Bft) 96,00 %
10.07.2019 16:58 21,6 C 23,3 C 31,1 C 36 % 1015,5 hPa 0,0 l/m 12,8 km/h (3 Bft) SW 225 2 min 0,000 mm 2,2 UV-I 626 W/m 5,9 C 19,7 C 20,9 km/h (4 Bft) 94,29 %
10.07.2019 17:00 21,6 C 23,3 C 31,1 C 38 % 1015,5 hPa 0,0 l/m 13,1 km/h (3 Bft) W-SW 256 2 min 0,432 mm 2,2 UV-I 611 W/m 6,7 C 19,6 C 17,7 km/h (3 Bft) 96,00 %
10.07.2019 17:02 21,8 C 23,3 C 31,7 C 38 % 1015,5 hPa 0,0 l/m 14,5 km/h (3 Bft) W-NW 302 2 min 0,000 mm 2,2 UV-I 602 W/m 6,8 C 19,5 C 22,5 km/h (4 Bft) 98,00 %
10.07.2019 17:04 21,8 C 23,3 C 31,1 C 37 % 1015,5 hPa 0,0 l/m 14,7 km/h (3 Bft) NW 313 2 min 0,000 mm 2,1 UV-I 587 W/m 6,5 C 19,5 C 25,7 km/h (4 Bft) 97,87 %
10.07.2019 17:06 21,7 C 23,3 C 31,1 C 37 % 1015,4 hPa 0,0 l/m 10,0 km/h (2 Bft) W-SW 254 2 min 0,000 mm 2,1 UV-I 576 W/m 6,4 C 20,5 C 17,7 km/h (3 Bft) 97,87 %
10.07.2019 17:08 21,7 C 23,3 C 31,7 C 37 % 1015,5 hPa 0,0 l/m 7,6 km/h (2 Bft) W 271 2 min 0,000 mm 2,0 UV-I 569 W/m 6,4 C 21,3 C 12,9 km/h (3 Bft) 97,87 %
10.07.2019 17:10 21,7 C 23,3 C 31,7 C 38 % 1015,4 hPa 0,0 l/m 6,9 km/h (2 Bft) NW 318 2 min 0,000 mm 2,0 UV-I 562 W/m 6,8 C 21,5 C 12,9 km/h (3 Bft) 100,00 %
10.07.2019 17:12 21,7 C 23,3 C 31,7 C 39 % 1015,4 hPa 0,0 l/m 6,5 km/h (2 Bft) W-SW 258 2 min 0,000 mm 1,9 UV-I 555 W/m 7,1 C 21,7 C 16,1 km/h (3 Bft) 100,00 %
10.07.2019 17:14 21,7 C 23,3 C 32,2 C 36 % 1015,4 hPa 0,0 l/m 11,5 km/h (2 Bft) W 275 2 min 0,000 mm 1,9 UV-I 550 W/m 6,0 C 20,1 C 17,7 km/h (3 Bft) 95,74 %
10.07.2019 17:16 21,7 C 23,3 C 32,2 C 38 % 1015,4 hPa 0,0 l/m 7,5 km/h (2 Bft) W 281 2 min 0,000 mm 1,9 UV-I 544 W/m 6,8 C 21,3 C 12,9 km/h (3 Bft) 100,00 %
10.07.2019 17:18 21,9 C 23,3 C 32,8 C 38 % 1015,4 hPa 0,0 l/m 7,0 km/h (2 Bft) W-NW 295 2 min 0,000 mm 1,8 UV-I 538 W/m 6,9 C 21,7 C 16,1 km/h (3 Bft) 97,87 %
10.07.2019 17:20 21,8 C 23,3 C 32,2 C 37 % 1015,4 hPa 0,0 l/m 6,5 km/h (2 Bft) W-NW 293 2 min 0,000 mm 1,8 UV-I 537 W/m 6,5 C 21,8 C 16,1 km/h (3 Bft) 97,22 %
10.07.2019 17:22 21,7 C 23,3 C 32,2 C 38 % 1015,3 hPa 0,0 l/m 6,7 km/h (2 Bft) W-NW 290 2 min 0,000 mm 1,8 UV-I 531 W/m 6,8 C 21,6 C 11,3 km/h (2 Bft) 95,74 %
10.07.2019 17:24 21,8 C 23,3 C 32,2 C 38 % 1015,3 hPa 0,0 l/m 6,0 km/h (2 Bft) W-NW 282 2 min 0,000 mm 1,7 UV-I 517 W/m 6,8 C 21,8 C 11,3 km/h (2 Bft) 97,87 %
10.07.2019 17:26 21,9 C 23,3 C 32,2 C 39 % 1015,3 hPa 0,0 l/m 8,0 km/h (2 Bft) W-SW 250 2 min 0,000 mm 1,7 UV-I 510 W/m 7,3 C 21,3 C 14,5 km/h (3 Bft) 94,00 %
10.07.2019 17:28 21,8 C 23,3 C 31,7 C 36 % 1015,3 hPa 0,0 l/m 15,1 km/h (3 Bft) W 271 2 min 0,000 mm 1,6 UV-I 508 W/m 6,1 C 19,4 C 24,1 km/h (4 Bft) 97,87 %
10.07.2019 17:30 21,7 C 23,3 C 31,1 C 36 % 1015,4 hPa 0,0 l/m 13,4 km/h (3 Bft) W-SW 251 2 min 0,000 mm 1,6 UV-I 506 W/m 6,0 C 19,7 C 19,3 km/h (3 Bft) 97,87 %
10.07.2019 17:32 21,7 C 23,3 C 31,1 C 38 % 1015,3 hPa 0,0 l/m 9,4 km/h (2 Bft) W 277 2 min 0,000 mm 1,6 UV-I 502 W/m 6,8 C 20,7 C 19,3 km/h (3 Bft) 95,74 %
10.07.2019 17:34 21,7 C 23,3 C 30,6 C 36 % 1015,4 hPa 0,0 l/m 11,6 km/h (2 Bft) W-SW 251 2 min 0,000 mm 1,5 UV-I 497 W/m 6,0 C 20,1 C 19,3 km/h (3 Bft) 97,87 %
10.07.2019 17:36 21,6 C 23,3 C 30,6 C 37 % 1015,4 hPa 0,0 l/m 9,4 km/h (2 Bft) W-NW 290 2 min 0,000 mm 1,5 UV-I 494 W/m 6,3 C 20,6 C 14,5 km/h (3 Bft) 97,87 %
10.07.2019 17:38 21,6 C 23,3 C 31,1 C 37 % 1015,3 hPa 0,0 l/m 7,3 km/h (2 Bft) W-SW 257 2 min 0,000 mm 1,5 UV-I 488 W/m 6,3 C 21,3 C 12,9 km/h (3 Bft) 98,00 %
10.07.2019 17:40 21,6 C 23,3 C 31,1 C 37 % 1015,3 hPa 0,0 l/m 6,8 km/h (2 Bft) NW 309 2 min 0,000 mm 1,5 UV-I 479 W/m 6,3 C 21,5 C 11,3 km/h (2 Bft) 98,00 %
10.07.2019 17:42 21,5 C 23,3 C 31,1 C 36 % 1015,3 hPa 0,0 l/m 7,4 km/h (2 Bft) W-SW 239 2 min 0,000 mm 1,4 UV-I 471 W/m 5,8 C 21,1 C 12,9 km/h (3 Bft) 97,14 %
10.07.2019 17:44 21,3 C 23,3 C 31,7 C 38 % 1015,2 hPa 0,0 l/m 7,0 km/h (2 Bft) W-SW 251 2 min 0,000 mm 1,4 UV-I 459 W/m 6,4 C 21,1 C 11,3 km/h (2 Bft) 98,08 %
10.07.2019 17:46 21,6 C 23,3 C 31,7 C 39 % 1015,2 hPa 0,0 l/m 13,2 km/h (3 Bft) W 259 2 min 0,000 mm 1,3 UV-I 447 W/m 7,0 C 19,6 C 22,5 km/h (4 Bft) 97,87 %
10.07.2019 17:48 21,6 C 23,3 C 30,0 C 37 % 1015,2 hPa 0,0 l/m 16,2 km/h (3 Bft) W 259 2 min 0,000 mm 1,3 UV-I 440 W/m 6,3 C 18,9 C 22,5 km/h (4 Bft) 95,74 %
10.07.2019 17:50 21,6 C 23,3 C 30,0 C 39 % 1015,2 hPa 0,0 l/m 11,2 km/h (2 Bft) SW 234 2 min 0,000 mm 1,3 UV-I 436 W/m 7,0 C 20,1 C 17,7 km/h (3 Bft) 100,00 %
10.07.2019 17:52 21,7 C 23,3 C 30,6 C 37 % 1015,2 hPa 0,0 l/m 4,3 km/h (1 Bft) W-SW 242 2 min 0,000 mm 1,3 UV-I 433 W/m 6,4 C 21,7 C 9,7 km/h (2 Bft) 100,00 %
10.07.2019 17:54 21,8 C 23,3 C 30,6 C 37 % 1015,2 hPa 0,0 l/m 12,3 km/h (3 Bft) W-SW 240 2 min 0,000 mm 1,2 UV-I 435 W/m 6,5 C 20,0 C 17,7 km/h (3 Bft) 98,00 %
10.07.2019 17:56 21,7 C 23,3 C 30,0 C 37 % 1015,2 hPa 0,0 l/m 12,2 km/h (2 Bft) W-SW 240 2 min 0,000 mm 1,2 UV-I 432 W/m 6,4 C 19,9 C 19,3 km/h (3 Bft) 97,37 %
10.07.2019 17:58 21,7 C 23,3 C 30,0 C 37 % 1015,2 hPa 0,0 l/m 12,7 km/h (3 Bft) W-SW 241 2 min 0,000 mm 1,2 UV-I 425 W/m 6,4 C 19,8 C 22,5 km/h (4 Bft) 100,00 %
10.07.2019 18:00 21,7 C 23,3 C 30,0 C 36 % 1015,1 hPa 0,0 l/m 10,2 km/h (2 Bft) W-SW 253 2 min 0,381 mm 1,2 UV-I 415 W/m 6,0 C 20,5 C 16,1 km/h (3 Bft) 98,00 %
10.07.2019 18:02 21,7 C 23,3 C 30,0 C 38 % 1015,1 hPa 0,0 l/m 9,7 km/h (2 Bft) NW 311 2 min 0,000 mm 1,1 UV-I 406 W/m 6,8 C 20,6 C 19,3 km/h (3 Bft) 100,00 %
10.07.2019 18:04 21,7 C 23,3 C 30,6 C 39 % 1015,1 hPa 0,0 l/m 9,4 km/h (2 Bft) W-SW 246 2 min 0,000 mm 1,1 UV-I 398 W/m 7,1 C 20,7 C 16,1 km/h (3 Bft) 100,00 %
10.07.2019 18:06 21,8 C 23,3 C 30,6 C 39 % 1015,2 hPa 0,0 l/m 6,9 km/h (2 Bft) SW 231 2 min 0,000 mm 1,1 UV-I 392 W/m 7,2 C 21,6 C 16,1 km/h (3 Bft) 100,00 %
10.07.2019 18:08 21,8 C 23,3 C 30,0 C 37 % 1015,2 hPa 0,0 l/m 12,0 km/h (2 Bft) W 272 2 min 0,000 mm 1,0 UV-I 388 W/m 6,5 C 20,1 C 19,3 km/h (3 Bft) 97,87 %
10.07.2019 18:10 21,7 C 23,3 C 30,0 C 39 % 1015,1 hPa 0,0 l/m 9,3 km/h (2 Bft) W 279 2 min 0,000 mm 1,0 UV-I 380 W/m 7,1 C 20,7 C 12,9 km/h (3 Bft) 100,00 %
10.07.2019 18:12 21,6 C 23,3 C 29,4 C 39 % 1015,1 hPa 0,0 l/m 11,4 km/h (2 Bft) SW 221 2 min 0,000 mm 1,0 UV-I 372 W/m 7,0 C 20,0 C 19,3 km/h (3 Bft) 100,00 %
10.07.2019 18:14 21,6 C 23,3 C 29,4 C 37 % 1015,2 hPa 0,0 l/m 9,8 km/h (2 Bft) W 275 2 min 0,000 mm 1,0 UV-I 364 W/m 6,3 C 20,5 C 16,1 km/h (3 Bft) 100,00 %
10.07.2019 18:16 21,6 C 23,3 C 29,4 C 38 % 1015,2 hPa 0,0 l/m 8,4 km/h (2 Bft) N-NW 333 2 min 0,000 mm 0,9 UV-I 358 W/m 6,7 C 20,9 C 14,5 km/h (3 Bft) 95,74 %
10.07.2019 18:18 21,6 C 23,3 C 29,4 C 37 % 1015,2 hPa 0,0 l/m 8,2 km/h (2 Bft) W-SW 241 2 min 0,000 mm 0,9 UV-I 354 W/m 6,3 C 21,0 C 16,1 km/h (3 Bft) 97,87 %
10.07.2019 18:20 21,6 C 23,3 C 28,9 C 38 % 1015,2 hPa 0,0 l/m 12,9 km/h (3 Bft) W 273 2 min 0,000 mm 0,9 UV-I 346 W/m 6,7 C 19,7 C 19,3 km/h (3 Bft) 95,74 %
10.07.2019 18:22 21,6 C 23,3 C 28,9 C 37 % 1015,1 hPa 0,0 l/m 11,1 km/h (2 Bft) W 265 2 min 0,000 mm 0,9 UV-I 340 W/m 6,3 C 20,1 C 19,3 km/h (3 Bft) 96,00 %
10.07.2019 18:24 21,6 C 23,3 C 28,9 C 37 % 1015,1 hPa 0,0 l/m 11,1 km/h (2 Bft) W-SW 252 2 min 0,000 mm 0,5 UV-I 335 W/m 6,3 C 20,1 C 16,1 km/h (3 Bft) 97,87 %
10.07.2019 18:26 21,6 C 23,3 C 29,4 C 38 % 1015,1 hPa 0,0 l/m 11,1 km/h (2 Bft) W-SW 246 2 min 0,000 mm 0,8 UV-I 329 W/m 6,7 C 20,1 C 17,7 km/h (3 Bft) 97,87 %
10.07.2019 18:28 21,6 C 23,3 C 28,3 C 38 % 1015,1 hPa 0,0 l/m 9,6 km/h (2 Bft) W-SW 246 2 min 0,000 mm 0,8 UV-I 320 W/m 6,7 C 20,5 C 19,3 km/h (3 Bft) 93,62 %
10.07.2019 18:30 21,5 C 23,3 C 28,3 C 38 % 1015,1 hPa 0,0 l/m 13,9 km/h (3 Bft) W 261 2 min 0,000 mm 0,8 UV-I 316 W/m 6,6 C 19,3 C 20,9 km/h (4 Bft) 97,87 %
10.07.2019 18:32 21,6 C 23,3 C 28,3 C 38 % 1015,1 hPa 0,0 l/m 10,6 km/h (2 Bft) W-SW 242 2 min 0,000 mm 0,7 UV-I 310 W/m 6,7 C 20,2 C 19,3 km/h (3 Bft) 98,00 %
10.07.2019 18:34 21,6 C 23,3 C 28,3 C 38 % 1015,1 hPa 0,0 l/m 10,5 km/h (2 Bft) W 275 2 min 0,000 mm 0,7 UV-I 304 W/m 6,7 C 20,3 C 16,1 km/h (3 Bft) 97,37 %
10.07.2019 18:36 21,6 C 23,3 C 28,3 C 38 % 1015,1 hPa 0,0 l/m 10,6 km/h (2 Bft) W 266 2 min 0,000 mm 0,7 UV-I 299 W/m 6,7 C 20,2 C 16,1 km/h (3 Bft) 96,00 %
10.07.2019 18:38 21,6 C 23,3 C 28,3 C 38 % 1015,1 hPa 0,0 l/m 6,5 km/h (2 Bft) W 277 2 min 0,000 mm 0,7 UV-I 293 W/m 6,7 C 21,6 C 11,3 km/h (2 Bft) 94,00 %
10.07.2019 18:40 21,6 C 23,3 C 28,9 C 39 % 1015,1 hPa 0,0 l/m 4,8 km/h (1 Bft) W-SW 240 2 min 0,000 mm 0,7 UV-I 286 W/m 7,0 C 21,6 C 9,7 km/h (2 Bft) 95,83 %
10.07.2019 18:42 21,7 C 23,3 C 28,9 C 39 % 1015,1 hPa 0,0 l/m 7,1 km/h (2 Bft) W-NW 302 2 min 0,000 mm 0,6 UV-I 280 W/m 7,1 C 21,5 C 17,7 km/h (3 Bft) 98,00 %
10.07.2019 18:44 21,6 C 23,3 C 28,9 C 38 % 1015,0 hPa 0,0 l/m 6,1 km/h (2 Bft) W 267 2 min 0,000 mm 0,6 UV-I 277 W/m 6,7 C 21,6 C 12,9 km/h (3 Bft) 100,00 %
10.07.2019 18:46 21,4 C 23,3 C 28,9 C 39 % 1015,0 hPa 0,0 l/m 6,3 km/h (2 Bft) NW 307 2 min 0,000 mm 0,6 UV-I 271 W/m 6,9 C 21,4 C 14,5 km/h (3 Bft) 100,00 %
10.07.2019 18:48 21,4 C 23,3 C 28,3 C 40 % 1015,0 hPa 0,0 l/m 3,7 km/h (1 Bft) W-NW 302 2 min 0,000 mm 0,6 UV-I 265 W/m 7,2 C 21,4 C 8,0 km/h (2 Bft) 100,00 %
10.07.2019 18:50 21,4 C 23,3 C 28,3 C 40 % 1015,0 hPa 0,0 l/m 5,7 km/h (1 Bft) W 267 2 min 0,000 mm 0,6 UV-I 262 W/m 7,2 C 21,4 C 9,7 km/h (2 Bft) 100,00 %
10.07.2019 18:52 21,5 C 23,3 C 28,9 C 40 % 1015,1 hPa 0,0 l/m 6,5 km/h (2 Bft) W 259 2 min 0,000 mm 0,5 UV-I 259 W/m 7,3 C 21,5 C 14,5 km/h (3 Bft) 98,00 %
10.07.2019 18:54 21,4 C 23,3 C 28,3 C 39 % 1015,0 hPa 0,0 l/m 11,5 km/h (2 Bft) W-NW 287 2 min 0,000 mm 0,5 UV-I 255 W/m 6,9 C 19,8 C 16,1 km/h (3 Bft) 95,74 %
10.07.2019 18:56 21,5 C 23,3 C 28,3 C 40 % 1015,0 hPa 0,0 l/m 6,2 km/h (2 Bft) W-SW 238 2 min 0,000 mm 0,5 UV-I 250 W/m 7,3 C 21,5 C 11,3 km/h (2 Bft) 100,00 %
10.07.2019 18:58 21,4 C 23,3 C 27,8 C 38 % 1015,1 hPa 0,0 l/m 10,6 km/h (2 Bft) W 277 2 min 0,000 mm 0,5 UV-I 245 W/m 6,5 C 20,0 C 17,7 km/h (3 Bft) 100,00 %
10.07.2019 19:00 21,3 C 23,3 C 28,3 C 38 % 1015,1 hPa 0,0 l/m 7,0 km/h (2 Bft) W 259 2 min 0,000 mm 0,5 UV-I 243 W/m 6,4 C 21,1 C 14,5 km/h (3 Bft) 100,00 %
10.07.2019 19:02 21,3 C 23,3 C 27,8 C 39 % 1015,1 hPa 0,0 l/m 8,2 km/h (2 Bft) W 273 2 min 0,279 mm 0,5 UV-I 240 W/m 6,8 C 20,6 C 12,9 km/h (3 Bft) 100,00 %
10.07.2019 19:04 21,3 C 23,3 C 28,3 C 40 % 1015,1 hPa 0,0 l/m 7,4 km/h (2 Bft) W 274 2 min 0,000 mm 0,2 UV-I 236 W/m 7,1 C 20,9 C 14,5 km/h (3 Bft) 97,87 %
10.07.2019 19:06 21,4 C 23,3 C 28,3 C 39 % 1015,1 hPa 0,0 l/m 6,3 km/h (2 Bft) W-SW 248 2 min 0,000 mm 0,0 UV-I 233 W/m 6,9 C 21,4 C 14,5 km/h (3 Bft) 97,37 %
10.07.2019 19:09 21,4 C 23,3 C 28,3 C 40 % 1015,1 hPa 0,0 l/m 7,6 km/h (2 Bft) W-SW 250 3 min 0,000 mm 0,0 UV-I 225 W/m 7,2 C 21,0 C 17,7 km/h (3 Bft) 100,00 %
10.07.2019 19:10 21,4 C 23,3 C 28,3 C 39 % 1015,1 hPa 0,0 l/m 7,1 km/h (2 Bft) W 267 1 min 0,000 mm 0,0 UV-I 219 W/m 6,9 C 21,1 C 12,9 km/h (3 Bft) 100,00 %
10.07.2019 19:12 21,3 C 23,3 C 27,8 C 39 % 1015,0 hPa 0,0 l/m 8,4 km/h (2 Bft) W 271 2 min 0,000 mm 0,0 UV-I 215 W/m 6,8 C 20,6 C 16,1 km/h (3 Bft) 95,74 %
10.07.2019 19:14 21,3 C 23,3 C 27,2 C 39 % 1015,0 hPa 0,0 l/m 6,5 km/h (2 Bft) W 259 2 min 0,000 mm 0,0 UV-I 209 W/m 6,8 C 21,3 C 12,9 km/h (3 Bft) 96,00 %
10.07.2019 19:16 21,3 C 23,3 C 27,2 C 40 % 1015,0 hPa 0,0 l/m 9,2 km/h (2 Bft) W 270 2 min 0,000 mm 0,0 UV-I 203 W/m 7,1 C 20,3 C 12,9 km/h (3 Bft) 95,83 %
10.07.2019 19:18 21,3 C 23,3 C 27,2 C 40 % 1015,1 hPa 0,0 l/m 10,3 km/h (2 Bft) W-NW 294 2 min 0,000 mm 0,0 UV-I 198 W/m 7,1 C 20,0 C 12,9 km/h (3 Bft) 97,37 %
10.07.2019 19:20 21,3 C 23,3 C 26,7 C 39 % 1015,1 hPa 0,0 l/m 12,1 km/h (2 Bft) W-SW 247 2 min 0,000 mm 0,0 UV-I 197 W/m 6,8 C 19,5 C 22,5 km/h (4 Bft) 98,11 %
10.07.2019 19:22 21,2 C 23,3 C 27,2 C 40 % 1015,0 hPa 0,0 l/m 9,9 km/h (2 Bft) W-SW 255 2 min 0,000 mm 0,0 UV-I 189 W/m 7,1 C 20,0 C 19,3 km/h (3 Bft) 97,87 %
10.07.2019 19:24 21,2 C 23,3 C 26,7 C 40 % 1015,0 hPa 0,0 l/m 6,2 km/h (2 Bft) W-NW 298 2 min 0,000 mm 0,0 UV-I 182 W/m 7,1 C 21,2 C 12,9 km/h (3 Bft) 97,87 %
10.07.2019 19:26 21,1 C 23,3 C 26,1 C 39 % 1015,0 hPa 0,0 l/m 10,1 km/h (2 Bft) W 269 2 min 0,000 mm 0,0 UV-I 172 W/m 6,6 C 19,8 C 14,5 km/h (3 Bft) 98,00 %
10.07.2019 19:28 21,1 C 23,3 C 26,7 C 40 % 1015,0 hPa 0,0 l/m 5,6 km/h (1 Bft) W 269 2 min 0,000 mm 0,0 UV-I 174 W/m 7,0 C 21,1 C 11,3 km/h (2 Bft) 97,37 %
10.07.2019 19:30 21,2 C 23,3 C 26,7 C 39 % 1015,0 hPa 0,0 l/m 12,0 km/h (2 Bft) W-SW 238 2 min 0,000 mm 0,0 UV-I 171 W/m 6,7 C 19,4 C 20,9 km/h (4 Bft) 97,87 %
10.07.2019 19:32 21,1 C 23,3 C 26,7 C 39 % 1015,0 hPa 0,0 l/m 10,0 km/h (2 Bft) W 259 2 min 0,000 mm 0,0 UV-I 164 W/m 6,6 C 19,9 C 19,3 km/h (3 Bft) 95,74 %
10.07.2019 19:34 21,2 C 23,3 C 26,7 C 40 % 1014,9 hPa 0,0 l/m 5,6 km/h (1 Bft) N 5 2 min 0,000 mm 0,0 UV-I 161 W/m 7,1 C 21,2 C 11,3 km/h (2 Bft) 96,23 %
10.07.2019 19:36 21,1 C 23,3 C 26,7 C 39 % 1014,9 hPa 0,0 l/m 6,3 km/h (2 Bft) W-NW 288 2 min 0,000 mm 0,0 UV-I 153 W/m 6,6 C 21,1 C 12,9 km/h (3 Bft) 95,74 %
10.07.2019 19:39 21,1 C 23,3 C 26,7 C 40 % 1014,9 hPa 0,0 l/m 4,9 km/h (1 Bft) W 268 3 min 0,000 mm 0,0 UV-I 149 W/m 7,0 C 21,1 C 11,3 km/h (2 Bft) 97,30 %
10.07.2019 19:40 21,0 C 23,3 C 26,7 C 40 % 1014,9 hPa 0,0 l/m 7,8 km/h (2 Bft) W-SW 242 1 min 0,000 mm 0,0 UV-I 147 W/m 6,9 C 20,5 C 11,3 km/h (2 Bft) 100,00 %
10.07.2019 19:42 20,9 C 23,3 C 25,6 C 39 % 1014,9 hPa 0,0 l/m 7,9 km/h (2 Bft) W-NW 297 2 min 0,000 mm 0,0 UV-I 144 W/m 6,4 C 20,3 C 14,5 km/h (3 Bft) 100,00 %
10.07.2019 19:44 20,9 C 23,3 C 26,1 C 40 % 1014,9 hPa 0,0 l/m 9,9 km/h (2 Bft) W 260 2 min 0,000 mm 0,0 UV-I 140 W/m 6,8 C 19,7 C 14,5 km/h (3 Bft) 100,00 %
10.07.2019 19:46 20,9 C 23,3 C 25,6 C 40 % 1015,0 hPa 0,0 l/m 9,0 km/h (2 Bft) W-NW 296 2 min 0,000 mm 0,0 UV-I 136 W/m 6,8 C 20,0 C 16,1 km/h (3 Bft) 100,00 %
10.07.2019 19:48 20,8 C 23,3 C 25,6 C 41 % 1015,0 hPa 0,0 l/m 6,8 km/h (2 Bft) W-SW 244 2 min 0,000 mm 0,0 UV-I 131 W/m 7,1 C 20,7 C 11,3 km/h (2 Bft) 95,74 %
10.07.2019 19:50 20,8 C 23,3 C 25,6 C 41 % 1015,0 hPa 0,0 l/m 4,4 km/h (1 Bft) SW 235 2 min 0,000 mm 0,0 UV-I 126 W/m 7,1 C 20,8 C 8,0 km/h (2 Bft) 97,87 %
10.07.2019 19:52 20,8 C 23,3 C 26,1 C 42 % 1014,9 hPa 0,0 l/m 5,9 km/h (2 Bft) W-SW 252 2 min 0,000 mm 0,0 UV-I 121 W/m 7,4 C 20,8 C 9,7 km/h (2 Bft) 97,87 %
10.07.2019 19:54 20,8 C 23,3 C 25,6 C 40 % 1014,9 hPa 0,0 l/m 4,5 km/h (1 Bft) W 279 2 min 0,000 mm 0,0 UV-I 116 W/m 6,7 C 20,8 C 9,7 km/h (2 Bft) 94,87 %
10.07.2019 19:56 20,7 C 23,3 C 25,6 C 41 % 1014,9 hPa 0,0 l/m 5,2 km/h (1 Bft) W-SW 244 2 min 0,000 mm 0,0 UV-I 112 W/m 7,0 C 20,7 C 9,7 km/h (2 Bft) 98,00 %
10.07.2019 19:58 20,7 C 23,3 C 25,6 C 42 % 1015,0 hPa 0,0 l/m 5,0 km/h (1 Bft) W 265 2 min 0,000 mm 0,0 UV-I 107 W/m 7,3 C 20,7 C 6,4 km/h (2 Bft) 97,87 %
10.07.2019 20:00 20,6 C 23,3 C 25,0 C 43 % 1015,0 hPa 0,0 l/m 3,4 km/h (1 Bft) SW 229 2 min 0,000 mm 0,0 UV-I 103 W/m 7,6 C 20,6 C 4,8 km/h (1 Bft) 97,87 %
10.07.2019 20:02 20,6 C 23,3 C 25,0 C 41 % 1014,9 hPa 0,0 l/m 4,4 km/h (1 Bft) W-NW 284 2 min 0,178 mm 0,0 UV-I 99 W/m 6,9 C 20,6 C 8,0 km/h (2 Bft) 94,00 %
10.07.2019 20:04 20,6 C 23,3 C 24,4 C 42 % 1015,0 hPa 0,0 l/m 3,9 km/h (1 Bft) W 261 2 min 0,000 mm 0,0 UV-I 95 W/m 7,2 C 20,6 C 6,4 km/h (2 Bft) 95,74 %
10.07.2019 20:06 20,6 C 23,3 C 23,9 C 42 % 1015,0 hPa 0,0 l/m 5,4 km/h (1 Bft) W-NW 284 2 min 0,000 mm 0,0 UV-I 91 W/m 7,2 C 20,6 C 11,3 km/h (2 Bft) 95,74 %
10.07.2019 20:08 20,5 C 23,3 C 23,9 C 42 % 1015,0 hPa 0,0 l/m 3,4 km/h (1 Bft) NW 313 2 min 0,000 mm 0,0 UV-I 87 W/m 7,1 C 20,5 C 6,4 km/h (2 Bft) 93,62 %
10.07.2019 20:10 20,4 C 23,3 C 23,3 C 42 % 1015,0 hPa 0,0 l/m 5,6 km/h (1 Bft) W 260 2 min 0,000 mm 0,0 UV-I 84 W/m 7,1 C 20,4 C 11,3 km/h (2 Bft) 95,74 %
10.07.2019 20:12 20,3 C 23,3 C 22,8 C 42 % 1015,0 hPa 0,0 l/m 4,6 km/h (1 Bft) W-SW 253 2 min 0,000 mm 0,0 UV-I 81 W/m 7,0 C 20,3 C 6,4 km/h (2 Bft) 91,49 %
10.07.2019 20:14 20,3 C 23,3 C 22,8 C 44 % 1015,0 hPa 0,0 l/m 4,7 km/h (1 Bft) W-SW 257 2 min 0,000 mm 0,0 UV-I 76 W/m 7,6 C 20,3 C 8,0 km/h (2 Bft) 97,87 %
10.07.2019 20:16 20,3 C 23,3 C 22,8 C 44 % 1015,0 hPa 0,0 l/m 3,8 km/h (1 Bft) W 263 2 min 0,000 mm 0,0 UV-I 70 W/m 7,6 C 20,3 C 6,4 km/h (2 Bft) 97,87 %
10.07.2019 20:18 20,3 C 23,3 C 21,7 C 43 % 1015,0 hPa 0,0 l/m 5,0 km/h (1 Bft) W 263 2 min 0,000 mm 0,0 UV-I 66 W/m 7,3 C 20,3 C 11,3 km/h (2 Bft) 95,74 %
10.07.2019 20:20 20,2 C 23,3 C 21,1 C 45 % 1015,0 hPa 0,0 l/m 3,5 km/h (1 Bft) W 277 2 min 0,000 mm 0,0 UV-I 64 W/m 7,9 C 20,2 C 8,0 km/h (2 Bft) 97,87 %
10.07.2019 20:22 20,1 C 23,3 C 20,0 C 45 % 1015,0 hPa 0,0 l/m 4,4 km/h (1 Bft) W 277 2 min 0,000 mm 0,0 UV-I 63 W/m 7,8 C 20,1 C 9,7 km/h (2 Bft) 97,87 %
10.07.2019 20:24 19,9 C 23,3 C 19,4 C 45 % 1015,0 hPa 0,0 l/m 4,2 km/h (1 Bft) W 261 2 min 0,000 mm 0,0 UV-I 60 W/m 7,6 C 19,9 C 6,4 km/h (2 Bft) 97,44 %
10.07.2019 20:26 19,8 C 23,3 C 18,9 C 45 % 1015,0 hPa 0,0 l/m 4,0 km/h (1 Bft) W 261 2 min 0,000 mm 0,0 UV-I 57 W/m 7,5 C 19,8 C 6,4 km/h (2 Bft) 97,87 %
10.07.2019 20:28 19,7 C 23,3 C 18,3 C 45 % 1015,0 hPa 0,0 l/m 4,6 km/h (1 Bft) W 270 2 min 0,000 mm 0,0 UV-I 51 W/m 7,4 C 19,7 C 9,7 km/h (2 Bft) 96,00 %
10.07.2019 20:30 19,7 C 23,3 C 18,3 C 46 % 1015,0 hPa 0,0 l/m 5,7 km/h (1 Bft) W 273 2 min 0,000 mm 0,0 UV-I 49 W/m 7,8 C 19,7 C 11,3 km/h (2 Bft) 98,00 %
10.07.2019 20:32 19,6 C 23,3 C 17,8 C 46 % 1015,0 hPa 0,0 l/m 6,8 km/h (2 Bft) W-NW 286 2 min 0,000 mm 0,0 UV-I 46 W/m 7,7 C 19,4 C 11,3 km/h (2 Bft) 97,87 %
10.07.2019 20:34 19,6 C 23,3 C 17,8 C 45 % 1015,0 hPa 0,0 l/m 6,1 km/h (2 Bft) W 280 2 min 0,000 mm 0,0 UV-I 40 W/m 7,3 C 19,6 C 11,3 km/h (2 Bft) 97,87 %
10.07.2019 20:36 19,5 C 22,8 C 17,8 C 46 % 1015,0 hPa 0,0 l/m 5,4 km/h (1 Bft) W 269 2 min 0,000 mm 0,0 UV-I 35 W/m 7,6 C 19,5 C 9,7 km/h (2 Bft) 93,62 %
10.07.2019 20:38 19,4 C 23,3 C 17,8 C 46 % 1015,0 hPa 0,0 l/m 6,7 km/h (2 Bft) W 277 2 min 0,000 mm 0,0 UV-I 28 W/m 7,5 C 19,3 C 11,3 km/h (2 Bft) 95,74 %
10.07.2019 20:40 19,3 C 22,8 C 17,2 C 46 % 1015,0 hPa 0,0 l/m 4,1 km/h (1 Bft) W-NW 286 2 min 0,000 mm 0,0 UV-I 26 W/m 7,4 C 19,3 C 6,4 km/h (2 Bft) 97,87 %
10.07.2019 20:42 19,2 C 23,3 C 17,2 C 46 % 1015,0 hPa 0,0 l/m 5,1 km/h (1 Bft) W 277 2 min 0,000 mm 0,0 UV-I 25 W/m 7,3 C 19,2 C 6,4 km/h (2 Bft) 97,87 %
10.07.2019 20:44 19,2 C 23,3 C 17,2 C 46 % 1015,0 hPa 0,0 l/m 4,7 km/h (1 Bft) W 277 2 min 0,000 mm 0,0 UV-I 25 W/m 7,3 C 19,2 C 6,4 km/h (2 Bft) 93,62 %
10.07.2019 20:46 19,2 C 23,3 C 16,7 C 47 % 1015,1 hPa 0,0 l/m 4,0 km/h (1 Bft) W 267 2 min 0,000 mm 0,0 UV-I 26 W/m 7,6 C 19,2 C 6,4 km/h (2 Bft) 92,11 %
10.07.2019 20:48 19,1 C 23,3 C 16,7 C 47 % 1015,0 hPa 0,0 l/m 4,7 km/h (1 Bft) W 272 2 min 0,000 mm 0,0 UV-I 24 W/m 7,5 C 19,1 C 6,4 km/h (2 Bft) 95,74 %
10.07.2019 20:50 19,1 C 22,8 C 16,7 C 47 % 1015,0 hPa 0,0 l/m 4,7 km/h (1 Bft) W 261 2 min 0,000 mm 0,0 UV-I 22 W/m 7,5 C 19,1 C 9,7 km/h (2 Bft) 98,00 %
10.07.2019 20:52 19,0 C 22,8 C 16,7 C 47 % 1015,1 hPa 0,0 l/m 5,6 km/h (1 Bft) W 273 0 min 0,000 mm 0,0 UV-I 19 W/m 7,4 C 19,0 C 9,7 km/h (2 Bft) 95,74 %
10.07.2019 20:54 18,9 C 22,8 C 16,1 C 47 % 1015,1 hPa 0,0 l/m 5,0 km/h (1 Bft) W 273 0 min 0,000 mm 0,0 UV-I 16 W/m 7,3 C 18,9 C 6,4 km/h (2 Bft) 98,00 %
10.07.2019 20:56 18,9 C 22,8 C 16,1 C 47 % 1015,0 hPa 0,0 l/m 4,6 km/h (1 Bft) W 273 0 min 0,000 mm 0,0 UV-I 13 W/m 7,3 C 18,9 C 4,8 km/h (1 Bft) 97,87 %
10.07.2019 20:59 18,7 C 22,8 C 16,1 C 49 % 1015,0 hPa 0,0 l/m 4,2 km/h (1 Bft) W 279 0 min 0,000 mm 0,0 UV-I 11 W/m 7,8 C 18,7 C 6,4 km/h (2 Bft) 98,59 %
10.07.2019 21:00 18,7 C 22,8 C 15,6 C 49 % 1015,0 hPa 0,0 l/m 3,1 km/h (1 Bft) W 279 0 min 0,000 mm 0,0 UV-I 11 W/m 7,8 C 18,7 C 3,2 km/h (1 Bft) 95,65 %
10.07.2019 21:02 18,6 C 22,8 C 15,6 C 49 % 1015,0 hPa 0,0 l/m 3,7 km/h (1 Bft) W 275 0 min 0,076 mm 0,0 UV-I 9 W/m 7,7 C 18,6 C 4,8 km/h (1 Bft) 97,87 %
10.07.2019 21:04 18,5 C 22,8 C 15,0 C 49 % 1015,0 hPa 0,0 l/m 3,5 km/h (1 Bft) W 275 0 min 0,000 mm 0,0 UV-I 9 W/m 7,6 C 18,5 C 4,8 km/h (1 Bft) 94,00 %
10.07.2019 21:06 18,4 C 22,8 C 15,0 C 49 % 1015,0 hPa 0,0 l/m 3,1 km/h (1 Bft) W 274 0 min 0,000 mm 0,0 UV-I 7 W/m 7,5 C 18,4 C 4,8 km/h (1 Bft) 97,44 %
10.07.2019 21:08 18,2 C 22,8 C 15,0 C 50 % 1015,1 hPa 0,0 l/m 3,0 km/h (1 Bft) W-SW 255 0 min 0,000 mm 0,0 UV-I 7 W/m 7,6 C 18,2 C 4,8 km/h (1 Bft) 95,74 %
10.07.2019 21:10 18,1 C 22,8 C 15,6 C 51 % 1015,1 hPa 0,0 l/m 2,6 km/h (1 Bft) W-SW 255 0 min 0,000 mm 0,0 UV-I 6 W/m 7,8 C 18,1 C 4,8 km/h (1 Bft) 93,62 %
10.07.2019 21:12 17,9 C 22,8 C 15,6 C 52 % 1015,1 hPa 0,0 l/m 2,4 km/h (1 Bft) W-SW 255 0 min 0,000 mm 0,0 UV-I 5 W/m 7,9 C 17,9 C 3,2 km/h (1 Bft) 93,62 %
10.07.2019 21:14 17,7 C 22,8 C 15,6 C 53 % 1015,1 hPa 0,0 l/m 3,2 km/h (1 Bft) W-SW 255 0 min 0,000 mm 0,0 UV-I 5 W/m 8,0 C 17,7 C 4,8 km/h (1 Bft) 93,62 %
10.07.2019 21:16 17,6 C 22,8 C 15,0 C 53 % 1015,1 hPa 0,0 l/m 3,4 km/h (1 Bft) W-SW 254 0 min 0,000 mm 0,0 UV-I 5 W/m 7,9 C 17,6 C 4,8 km/h (1 Bft) 96,00 %
10.07.2019 21:18 17,6 C 22,8 C 15,0 C 54 % 1015,1 hPa 0,0 l/m 2,7 km/h (1 Bft) W-SW 254 0 min 0,000 mm 0,0 UV-I 4 W/m 8,2 C 17,6 C 4,8 km/h (1 Bft) 95,12 %
10.07.2019 21:20 17,4 C 22,8 C 15,0 C 54 % 1015,1 hPa 0,0 l/m 2,8 km/h (1 Bft) W-SW 254 0 min 0,000 mm 0,0 UV-I 0 W/m 8,0 C 17,4 C 4,8 km/h (1 Bft) 96,00 %
10.07.2019 21:22 17,3 C 22,8 C 15,0 C 55 % 1015,1 hPa 0,0 l/m 2,7 km/h (1 Bft) W-SW 242 0 min 0,000 mm 0,0 UV-I 0 W/m 8,2 C 17,3 C 4,8 km/h (1 Bft) 95,74 %
10.07.2019 21:24 17,2 C 22,8 C 15,0 C 55 % 1015,1 hPa 0,0 l/m 2,7 km/h (1 Bft) W-SW 244 0 min 0,000 mm 0,0 UV-I 0 W/m 8,1 C 17,2 C 4,8 km/h (1 Bft) 95,74 %
10.07.2019 21:26 17,1 C 22,8 C 15,0 C 56 % 1015,2 hPa 0,0 l/m 3,1 km/h (1 Bft) W-SW 244 0 min 0,000 mm 0,0 UV-I 0 W/m 8,3 C 17,1 C 4,8 km/h (1 Bft) 93,62 %
10.07.2019 21:28 17,0 C 22,8 C 14,4 C 57 % 1015,2 hPa 0,0 l/m 4,0 km/h (1 Bft) W-SW 245 0 min 0,000 mm 0,0 UV-I 0 W/m 8,4 C 17,0 C 4,8 km/h (1 Bft) 96,00 %
10.07.2019 21:30 16,9 C 22,8 C 15,0 C 57 % 1015,2 hPa 0,0 l/m 4,3 km/h (1 Bft) W-SW 243 0 min 0,000 mm 0,0 UV-I 0 W/m 8,3 C 16,9 C 6,4 km/h (2 Bft) 94,00 %
10.07.2019 21:32 16,8 C 22,8 C 14,4 C 57 % 1015,3 hPa 0,0 l/m 4,1 km/h (1 Bft) W-SW 239 0 min 0,000 mm 0,0 UV-I 0 W/m 8,2 C 16,8 C 8,0 km/h (2 Bft) 94,74 %
10.07.2019 21:34 16,7 C 22,8 C 14,4 C 58 % 1015,3 hPa 0,0 l/m 5,6 km/h (1 Bft) SW 228 0 min 0,000 mm 0,0 UV-I 0 W/m 8,4 C 16,7 C 8,0 km/h (2 Bft) 94,00 %
10.07.2019 21:36 16,7 C 22,8 C 14,4 C 58 % 1015,3 hPa 0,0 l/m 5,7 km/h (1 Bft) SW 235 0 min 0,000 mm 0,0 UV-I 0 W/m 8,4 C 16,7 C 6,4 km/h (2 Bft) 95,74 %
10.07.2019 21:38 16,6 C 22,8 C 14,4 C 58 % 1015,3 hPa 0,0 l/m 5,8 km/h (2 Bft) SW 235 0 min 0,000 mm 0,0 UV-I 0 W/m 8,3 C 16,6 C 8,0 km/h (2 Bft) 95,74 %
10.07.2019 21:40 16,5 C 22,8 C 14,4 C 58 % 1015,3 hPa 0,0 l/m 5,4 km/h (1 Bft) SW 235 0 min 0,000 mm 0,0 UV-I 0 W/m 8,2 C 16,5 C 8,0 km/h (2 Bft) 97,87 %
10.07.2019 21:42 16,5 C 22,8 C 14,4 C 58 % 1015,4 hPa 0,0 l/m 5,9 km/h (2 Bft) W-SW 239 0 min 0,000 mm 0,0 UV-I 0 W/m 8,2 C 16,5 C 8,0 km/h (2 Bft) 97,62 %
10.07.2019 21:44 16,4 C 22,8 C 14,4 C 59 % 1015,3 hPa 0,0 l/m 5,3 km/h (1 Bft) W-SW 238 0 min 0,000 mm 0,0 UV-I 0 W/m 8,4 C 16,4 C 6,4 km/h (2 Bft) 100,00 %
10.07.2019 21:46 16,4 C 22,8 C 13,9 C 58 % 1015,3 hPa 0,0 l/m 5,7 km/h (1 Bft) W-SW 240 0 min 0,000 mm 0,0 UV-I 0 W/m 8,1 C 16,4 C 8,0 km/h (2 Bft) 100,00 %
10.07.2019 21:49 16,2 C 22,8 C 13,9 C 60 % 1015,3 hPa 0,0 l/m 5,1 km/h (1 Bft) SW 232 0 min 0,000 mm 0,0 UV-I 0 W/m 8,4 C 16,2 C 6,4 km/h (2 Bft) 100,00 %
10.07.2019 21:50 16,2 C 22,8 C 13,9 C 59 % 1015,3 hPa 0,0 l/m 5,1 km/h (1 Bft) SW 232 0 min 0,000 mm 0,0 UV-I 0 W/m 8,2 C 16,2 C 6,4 km/h (2 Bft) 100,00 %
10.07.2019 21:52 16,2 C 22,8 C 13,9 C 59 % 1015,3 hPa 0,0 l/m 5,2 km/h (1 Bft) W-SW 237 0 min 0,000 mm 0,0 UV-I 0 W/m 8,2 C 16,2 C 6,4 km/h (2 Bft) 100,00 %
10.07.2019 21:54 16,2 C 22,8 C 13,9 C 60 % 1015,3 hPa 0,0 l/m 6,0 km/h (2 Bft) SW 232 0 min 0,000 mm 0,0 UV-I 0 W/m 8,4 C 16,2 C 8,0 km/h (2 Bft) 100,00 %
10.07.2019 21:56 16,2 C 22,8 C 13,9 C 60 % 1015,3 hPa 0,0 l/m 5,0 km/h (1 Bft) SW 229 0 min 0,000 mm 0,0 UV-I 0 W/m 8,4 C 16,2 C 6,4 km/h (2 Bft) 100,00 %
10.07.2019 21:58 16,1 C 22,8 C 13,3 C 60 % 1015,3 hPa 0,0 l/m 5,1 km/h (1 Bft) SW 230 0 min 0,000 mm 0,0 UV-I 0 W/m 8,3 C 16,1 C 8,0 km/h (2 Bft) 100,00 %
10.07.2019 22:00 16,1 C 22,8 C 13,3 C 59 % 1015,3 hPa 0,0 l/m 5,9 km/h (2 Bft) W-SW 238 0 min 0,026 mm 0,0 UV-I 0 W/m 8,1 C 16,1 C 8,0 km/h (2 Bft) 100,00 %
10.07.2019 22:02 16,0 C 22,8 C 13,9 C 62 % 1015,3 hPa 0,0 l/m 5,2 km/h (1 Bft) SW 229 0 min 0,000 mm 0,0 UV-I 0 W/m 8,7 C 16,0 C 8,0 km/h (2 Bft) 97,87 %
10.07.2019 22:04 15,8 C 22,8 C 13,9 C 63 % 1015,3 hPa 0,0 l/m 5,1 km/h (1 Bft) SW 229 0 min 0,000 mm 0,0 UV-I 0 W/m 8,8 C 15,8 C 6,4 km/h (2 Bft) 97,87 %
10.07.2019 22:06 15,5 C 22,8 C 13,9 C 64 % 1015,3 hPa 0,0 l/m 5,3 km/h (1 Bft) S-SW 208 0 min 0,000 mm 0,0 UV-I 0 W/m 8,7 C 15,5 C 8,0 km/h (2 Bft) 100,00 %
10.07.2019 22:08 15,2 C 22,8 C 13,3 C 66 % 1015,3 hPa 0,0 l/m 5,4 km/h (1 Bft) SW 229 0 min 0,000 mm 0,0 UV-I 0 W/m 8,9 C 15,2 C 8,0 km/h (2 Bft) 98,15 %
10.07.2019 22:10 14,9 C 22,8 C 13,3 C 66 % 1015,3 hPa 0,0 l/m 6,5 km/h (2 Bft) W-SW 242 0 min 0,000 mm 0,0 UV-I 0 W/m 8,6 C 14,9 C 9,7 km/h (2 Bft) 96,00 %
10.07.2019 22:12 14,8 C 22,8 C 13,3 C 67 % 1015,3 hPa 0,0 l/m 6,3 km/h (2 Bft) SW 223 0 min 0,000 mm 0,0 UV-I 0 W/m 8,7 C 14,8 C 8,0 km/h (2 Bft) 97,87 %
10.07.2019 22:14 14,8 C 22,8 C 12,8 C 66 % 1015,3 hPa 0,0 l/m 6,1 km/h (2 Bft) SW 236 0 min 0,000 mm 0,0 UV-I 0 W/m 8,5 C 14,8 C 9,7 km/h (2 Bft) 100,00 %
10.07.2019 22:16 14,9 C 22,8 C 13,3 C 66 % 1015,2 hPa 0,0 l/m 5,3 km/h (1 Bft) SW 231 0 min 0,000 mm 0,0 UV-I 0 W/m 8,6 C 14,9 C 8,0 km/h (2 Bft) 95,74 %
10.07.2019 22:18 15,0 C 22,8 C 13,3 C 66 % 1015,3 hPa 0,0 l/m 5,1 km/h (1 Bft) SW 230 0 min 0,000 mm 0,0 UV-I 0 W/m 8,7 C 15,0 C 8,0 km/h (2 Bft) 95,74 %
10.07.2019 22:20 15,1 C 22,8 C 13,3 C 65 % 1015,2 hPa 0,0 l/m 5,7 km/h (1 Bft) SW 229 0 min 0,000 mm 0,0 UV-I 0 W/m 8,6 C 15,1 C 6,4 km/h (2 Bft) 97,87 %
10.07.2019 22:22 15,2 C 22,8 C 13,3 C 64 % 1015,2 hPa 0,0 l/m 6,5 km/h (2 Bft) SW 233 0 min 0,000 mm 0,0 UV-I 0 W/m 8,4 C 15,2 C 9,7 km/h (2 Bft) 97,87 %
10.07.2019 22:24 15,3 C 22,8 C 13,3 C 64 % 1015,2 hPa 0,0 l/m 7,1 km/h (2 Bft) SW 216 0 min 0,000 mm 0,0 UV-I 0 W/m 8,5 C 14,9 C 9,7 km/h (2 Bft) 100,00 %
10.07.2019 22:26 15,2 C 22,8 C 13,3 C 65 % 1015,2 hPa 0,0 l/m 6,4 km/h (2 Bft) SW 214 0 min 0,000 mm 0,0 UV-I 0 W/m 8,7 C 15,2 C 8,0 km/h (2 Bft) 100,00 %
10.07.2019 22:28 15,2 C 22,8 C 13,3 C 64 % 1015,2 hPa 0,0 l/m 5,9 km/h (2 Bft) S-SW 206 0 min 0,000 mm 0,0 UV-I 0 W/m 8,4 C 15,2 C 8,0 km/h (2 Bft) 97,87 %
10.07.2019 22:30 15,3 C 22,8 C 13,3 C 63 % 1015,3 hPa 0,0 l/m 7,2 km/h (2 Bft) SW 214 0 min 0,000 mm 0,0 UV-I 0 W/m 8,3 C 14,9 C 11,3 km/h (2 Bft) 100,00 %
10.07.2019 22:32 15,4 C 22,8 C 13,9 C 62 % 1015,2 hPa 0,0 l/m 6,6 km/h (2 Bft) S-SW 213 0 min 0,000 mm 0,0 UV-I 0 W/m 8,2 C 15,3 C 8,0 km/h (2 Bft) 100,00 %
10.07.2019 22:34 15,6 C 22,8 C 13,9 C 61 % 1015,2 hPa 0,0 l/m 7,4 km/h (2 Bft) SW 227 0 min 0,000 mm 0,0 UV-I 0 W/m 8,1 C 15,1 C 9,7 km/h (2 Bft) 100,00 %
10.07.2019 22:36 15,7 C 22,8 C 13,9 C 60 % 1015,2 hPa 0,0 l/m 7,4 km/h (2 Bft) SW 230 0 min 0,000 mm 0,0 UV-I 0 W/m 8,0 C 15,2 C 9,7 km/h (2 Bft) 100,00 %
10.07.2019 22:38 15,7 C 22,8 C 13,9 C 60 % 1015,2 hPa 0,0 l/m 7,5 km/h (2 Bft) S-SW 207 0 min 0,000 mm 0,0 UV-I 0 W/m 8,0 C 15,1 C 11,3 km/h (2 Bft) 100,00 %
10.07.2019 22:40 15,8 C 22,8 C 13,9 C 60 % 1015,2 hPa 0,0 l/m 7,8 km/h (2 Bft) SW 219 0 min 0,000 mm 0,0 UV-I 0 W/m 8,1 C 15,0 C 11,3 km/h (2 Bft) 100,00 %
10.07.2019 22:42 15,7 C 22,8 C 13,9 C 60 % 1015,2 hPa 0,0 l/m 7,9 km/h (2 Bft) SW 214 0 min 0,000 mm 0,0 UV-I 0 W/m 8,0 C 14,9 C 11,3 km/h (2 Bft) 97,87 %
10.07.2019 22:44 15,6 C 22,8 C 13,9 C 61 % 1015,2 hPa 0,0 l/m 7,4 km/h (2 Bft) SW 228 0 min 0,000 mm 0,0 UV-I 0 W/m 8,1 C 15,1 C 11,3 km/h (2 Bft) 95,74 %
10.07.2019 22:46 15,5 C 22,8 C 13,9 C 62 % 1015,2 hPa 0,0 l/m 6,2 km/h (2 Bft) S-SW 198 0 min 0,000 mm 0,0 UV-I 0 W/m 8,3 C 15,5 C 9,7 km/h (2 Bft) 95,74 %
10.07.2019 22:48 15,4 C 22,8 C 13,9 C 61 % 1015,2 hPa 0,0 l/m 7,7 km/h (2 Bft) SW 230 0 min 0,000 mm 0,0 UV-I 0 W/m 7,9 C 14,7 C 12,9 km/h (3 Bft) 95,74 %
10.07.2019 22:50 15,4 C 22,8 C 13,9 C 61 % 1015,2 hPa 0,0 l/m 7,2 km/h (2 Bft) S-SW 212 0 min 0,000 mm 0,0 UV-I 0 W/m 7,9 C 15,0 C 11,3 km/h (2 Bft) 95,74 %
10.07.2019 22:52 15,4 C 22,8 C 13,9 C 62 % 1015,2 hPa 0,0 l/m 7,3 km/h (2 Bft) S-SW 204 0 min 0,000 mm 0,0 UV-I 0 W/m 8,2 C 14,9 C 11,3 km/h (2 Bft) 97,87 %
10.07.2019 22:54 15,2 C 22,8 C 13,9 C 62 % 1015,2 hPa 0,0 l/m 6,6 km/h (2 Bft) S-SW 212 0 min 0,000 mm 0,0 UV-I 0 W/m 8,0 C 15,1 C 9,7 km/h (2 Bft) 97,22 %
10.07.2019 22:56 15,2 C 22,8 C 13,9 C 62 % 1015,3 hPa 0,0 l/m 7,3 km/h (2 Bft) S-SW 211 0 min 0,000 mm 0,0 UV-I 0 W/m 8,0 C 14,7 C 9,7 km/h (2 Bft) 98,00 %
10.07.2019 22:58 15,1 C 22,8 C 13,9 C 62 % 1015,3 hPa 0,0 l/m 7,6 km/h (2 Bft) S-SW 204 0 min 0,000 mm 0,0 UV-I 0 W/m 7,9 C 14,4 C 11,3 km/h (2 Bft) 93,62 %
10.07.2019 23:00 15,1 C 22,8 C 13,9 C 62 % 1015,3 hPa 0,0 l/m 8,4 km/h (2 Bft) S-SW 211 0 min 0,000 mm 0,0 UV-I 0 W/m 7,9 C 14,0 C 12,9 km/h (3 Bft) 95,74 %
10.07.2019 23:02 15,1 C 22,8 C 13,9 C 63 % 1015,3 hPa 0,0 l/m 8,0 km/h (2 Bft) SW 221 0 min 0,050 mm 0,0 UV-I 0 W/m 8,1 C 14,2 C 11,3 km/h (2 Bft) 98,00 %
10.07.2019 23:04 14,9 C 22,8 C 13,9 C 63 % 1015,3 hPa 0,0 l/m 7,4 km/h (2 Bft) S-SW 204 0 min 0,000 mm 0,0 UV-I 0 W/m 7,9 C 14,3 C 9,7 km/h (2 Bft) 95,74 %
10.07.2019 23:06 14,8 C 22,8 C 13,9 C 64 % 1015,3 hPa 0,0 l/m 7,8 km/h (2 Bft) S-SW 207 0 min 0,000 mm 0,0 UV-I 0 W/m 8,1 C 14,0 C 11,3 km/h (2 Bft) 100,00 %
10.07.2019 23:08 14,6 C 22,8 C 13,3 C 65 % 1015,4 hPa 0,0 l/m 7,7 km/h (2 Bft) SW 223 0 min 0,000 mm 0,0 UV-I 0 W/m 8,1 C 13,8 C 9,7 km/h (2 Bft) 100,00 %
10.07.2019 23:10 14,5 C 22,8 C 13,3 C 66 % 1015,3 hPa 0,0 l/m 6,6 km/h (2 Bft) SW 219 0 min 0,000 mm 0,0 UV-I 0 W/m 8,2 C 14,4 C 9,7 km/h (2 Bft) 93,62 %
10.07.2019 23:12 14,4 C 22,8 C 13,3 C 66 % 1015,3 hPa 0,0 l/m 7,1 km/h (2 Bft) S-SW 208 0 min 0,000 mm 0,0 UV-I 0 W/m 8,1 C 14,0 C 11,3 km/h (2 Bft) 97,87 %
10.07.2019 23:14 14,4 C 22,8 C 13,3 C 66 % 1015,3 hPa 0,0 l/m 7,6 km/h (2 Bft) SW 215 0 min 0,000 mm 0,0 UV-I 0 W/m 8,1 C 13,7 C 11,3 km/h (2 Bft) 98,00 %
10.07.2019 23:16 14,3 C 22,8 C 13,3 C 67 % 1015,3 hPa 0,0 l/m 6,7 km/h (2 Bft) SW 215 0 min 0,000 mm 0,0 UV-I 0 W/m 8,3 C 14,1 C 9,7 km/h (2 Bft) 97,37 %
10.07.2019 23:18 14,3 C 22,8 C 13,3 C 67 % 1015,3 hPa 0,0 l/m 6,0 km/h (2 Bft) S-SW 199 0 min 0,000 mm 0,0 UV-I 0 W/m 8,3 C 14,3 C 8,0 km/h (2 Bft) 93,62 %
10.07.2019 23:20 14,3 C 22,8 C 13,3 C 66 % 1015,3 hPa 0,0 l/m 7,0 km/h (2 Bft) S-SW 208 0 min 0,000 mm 0,0 UV-I 0 W/m 8,0 C 13,9 C 11,3 km/h (2 Bft) 97,87 %
10.07.2019 23:22 14,4 C 22,8 C 13,3 C 66 % 1015,3 hPa 0,0 l/m 6,8 km/h (2 Bft) SW 225 0 min 0,000 mm 0,0 UV-I 0 W/m 8,1 C 14,2 C 9,7 km/h (2 Bft) 97,87 %
10.07.2019 23:24 14,4 C 22,8 C 13,3 C 66 % 1015,3 hPa 0,0 l/m 8,2 km/h (2 Bft) SW 219 0 min 0,000 mm 0,0 UV-I 0 W/m 8,1 C 13,4 C 11,3 km/h (2 Bft) 97,87 %
10.07.2019 23:26 14,4 C 22,8 C 13,3 C 66 % 1015,4 hPa 0,0 l/m 7,8 km/h (2 Bft) SW 216 0 min 0,000 mm 0,0 UV-I 0 W/m 8,1 C 13,6 C 12,9 km/h (3 Bft) 98,00 %
10.07.2019 23:28 14,4 C 22,8 C 13,3 C 66 % 1015,4 hPa 0,0 l/m 6,9 km/h (2 Bft) SW 229 0 min 0,000 mm 0,0 UV-I 0 W/m 8,1 C 14,1 C 11,3 km/h (2 Bft) 97,87 %
10.07.2019 23:30 14,4 C 22,8 C 13,3 C 66 % 1015,3 hPa 0,0 l/m 7,4 km/h (2 Bft) SW 220 0 min 0,000 mm 0,0 UV-I 0 W/m 8,1 C 13,8 C 12,9 km/h (3 Bft) 98,00 %
10.07.2019 23:32 14,3 C 22,8 C 13,3 C 66 % 1015,4 hPa 0,0 l/m 7,2 km/h (2 Bft) S-SW 206 0 min 0,000 mm 0,0 UV-I 0 W/m 8,0 C 13,8 C 11,3 km/h (2 Bft) 97,87 %
10.07.2019 23:34 14,3 C 22,8 C 13,3 C 66 % 1015,3 hPa 0,0 l/m 7,0 km/h (2 Bft) S-SW 213 0 min 0,000 mm 0,0 UV-I 0 W/m 8,0 C 13,9 C 9,7 km/h (2 Bft) 91,49 %
10.07.2019 23:36 14,3 C 22,8 C 13,3 C 67 % 1015,4 hPa 0,0 l/m 5,9 km/h (2 Bft) SW 218 0 min 0,000 mm 0,0 UV-I 0 W/m 8,3 C 14,3 C 11,3 km/h (2 Bft) 87,23 %
10.07.2019 23:39 14,2 C 22,8 C 13,3 C 67 % 1015,3 hPa 0,0 l/m 7,0 km/h (2 Bft) S-SW 199 0 min 0,000 mm 0,0 UV-I 0 W/m 8,2 C 13,8 C 12,9 km/h (3 Bft) 97,30 %
10.07.2019 23:40 14,2 C 22,8 C 13,3 C 67 % 1015,3 hPa 0,0 l/m 7,8 km/h (2 Bft) S-SW 196 0 min 0,000 mm 0,0 UV-I 0 W/m 8,2 C 13,4 C 9,7 km/h (2 Bft) 86,67 %
10.07.2019 23:42 14,2 C 22,8 C 13,3 C 67 % 1015,4 hPa 0,0 l/m 7,3 km/h (2 Bft) SW 215 0 min 0,000 mm 0,0 UV-I 0 W/m 8,2 C 13,7 C 11,3 km/h (2 Bft) 95,74 %
10.07.2019 23:44 14,2 C 22,8 C 12,8 C 67 % 1015,3 hPa 0,0 l/m 7,4 km/h (2 Bft) S-SW 202 0 min 0,000 mm 0,0 UV-I 0 W/m 8,2 C 13,6 C 11,3 km/h (2 Bft) 95,74 %
10.07.2019 23:46 14,1 C 22,8 C 12,8 C 67 % 1015,3 hPa 0,0 l/m 7,7 km/h (2 Bft) S-SW 207 0 min 0,000 mm 0,0 UV-I 0 W/m 8,1 C 13,3 C 11,3 km/h (2 Bft) 95,74 %
10.07.2019 23:48 14,1 C 22,8 C 12,8 C 68 % 1015,3 hPa 0,0 l/m 6,2 km/h (2 Bft) S-SW 213 0 min 0,000 mm 0,0 UV-I 0 W/m 8,3 C 14,1 C 9,7 km/h (2 Bft) 97,87 %
10.07.2019 23:50 14,0 C 22,8 C 12,8 C 68 % 1015,4 hPa 0,0 l/m 5,8 km/h (2 Bft) S-SW 210 0 min 0,000 mm 0,0 UV-I 0 W/m 8,2 C 14,0 C 9,7 km/h (2 Bft) 95,74 %
10.07.2019 23:52 13,9 C 22,8 C 12,8 C 68 % 1015,3 hPa 0,0 l/m 6,6 km/h (2 Bft) SW 217 0 min 0,000 mm 0,0 UV-I 0 W/m 8,1 C 13,8 C 11,3 km/h (2 Bft) 97,87 %
10.07.2019 23:54 13,9 C 22,8 C 12,8 C 68 % 1015,4 hPa 0,0 l/m 7,4 km/h (2 Bft) SW 223 0 min 0,000 mm 0,0 UV-I 0 W/m 8,1 C 13,3 C 12,9 km/h (3 Bft) 95,74 %
10.07.2019 23:56 13,8 C 22,8 C 12,8 C 68 % 1015,3 hPa 0,0 l/m 6,5 km/h (2 Bft) S-SW 207 0 min 0,000 mm 0,0 UV-I 0 W/m 8,0 C 13,8 C 11,3 km/h (2 Bft) 95,74 %
10.07.2019 23:58 13,8 C 22,8 C 12,8 C 69 % 1015,3 hPa 0,0 l/m 7,2 km/h (2 Bft) SW 223 0 min 0,000 mm 0,0 UV-I 0 W/m 8,2 C 13,3 C 12,9 km/h (3 Bft) 97,87 %
_ Min-Zeit 05:34 04:56 05:14 14:44 19:34 - 02:20 - - - - - - 14:12 05:34 02:20 23:40
Minimum _ 10,7 C 21,7 C 8,9 C 36 % 1014,9 hPa - 0,0 km/h (0 Bft) - - - - - - 4,9 C 10,7 C 0,0 km/h (0 Bft) 86,67 %
_ Max-Zeit 16:10 15:40 13:16 05:58 09:24 00:00 14:52 - - 19:09 15:00 13:08 12:14 07:20 16:10 14:54 00:16
Maximum _ 22,1 C 23,3 C 33,9 C 85 % 1017,2 hPa 0,0 l/m 18,7 km/h
SW (3 Bft)
- - 3 min 0,584 mm 5,7 UV-I 1211 W/m 9,6 C 22,1 C 29,0 km/h
SW (5 Bft)
100,00 %
Durchschnitt _ 16,6 C 22,5 C 20,6 C 57 % 1016,1 hPa #0,0 l/m 5,5 km/h (1 Bft) W - #10:08 h #4,851 mm 2,8 UV-I 420 W/m 7,5 C 16,2 C 9,5 km/h (2 Bft) 97,23 %